[[{"header":{"parameterUnit":"m.s-1","parameterCategory":1,"la1":31.0,"la2":29.5877,"lo1":-88.7671,"lo2":-86.6584,"dy":0.0162,"dx":0.0185,"nx":115,"ny":88,"refTime":"2023-05-16T18:00:00:Z","depth":0,"parameterNumber":2,"parameterNumberName":"U-component_of_WINDS"},"data":[0.0,0.0,0.0,0.0,0.0,0.0,0.0,0.0,0.0,0.0,0.0,0.0,0.0,0.0,0.0,0.0,0.0,0.0,0.0,0.0,0.0,0.0,0.0,0.0,0.0,0.0,0.0,0.0,0.0,0.0,0.0,0.0,0.0,0.0,0.0,0.0,0.0,0.0,0.0,0.0,0.0,0.0,0.0,0.0,0.0,0.0,0.0,0.0,0.0,0.0,0.0,0.0,0.0,0.0,0.0,0.0,0.0,0.0,0.0,0.0,0.0,0.0,0.0,0.0,0.0,0.0,0.0,0.0,0.0,0.0,0.0,0.0,0.0,0.0,0.0,0.0,0.0,0.0,0.0,0.0,0.0,0.0,0.0,0.0,0.0,0.0,0.0,0.0,0.0,0.0,0.0,0.0,0.0,0.0,0.0,0.0,0.0,0.0,0.0,0.0,0.0,0.0,0.0,0.0,0.0,0.0,0.0,0.0,0.0,0.0,0.0,0.0,0.0,0.0,0.0,0.0,0.0,0.0,0.0,0.0,0.0,0.0,0.0,0.0,0.0,0.0,0.0,0.0,0.0,0.0,0.0,0.0,0.0,0.0,0.0,0.0,0.0,0.0,0.0,0.0,0.0,0.0,0.0,0.0,0.0,0.0,0.0,0.0,0.0,0.0,0.0,0.0,0.0,0.0,0.0,0.0,0.0,0.0,0.0,0.0,0.0,0.0,0.0,0.0,0.0,0.0,0.0,0.0,0.0,0.0,0.0,0.0,0.0,0.0,0.0,0.0,0.0,0.0,0.0,0.0,0.0,0.0,0.0,0.0,0.0,0.0,0.0,0.0,0.0,0.0,0.0,0.0,0.0,0.0,0.0,0.0,0.0,0.0,0.0,0.0,0.0,0.0,0.0,0.0,0.0,0.0,0.0,0.0,0.0,0.0,0.0,0.0,0.0,0.0,0.0,0.0,0.0,0.0,0.0,0.0,0.0,0.0,0.0,0.0,0.0,0.0,0.0,0.0,0.0,0.0,0.0,0.0,0.0,0.0,0.0,0.0,0.0,0.0,0.0,0.0,0.0,0.0,0.0,0.0,0.0,0.0,0.0,0.0,0.0,0.0,0.0,0.0,0.0,0.0,0.0,0.0,0.0,0.0,0.0,0.0,0.0,0.0,0.0,0.0,0.0,0.0,0.0,0.0,0.0,0.0,0.0,0.0,0.0,0.0,0.0,0.0,0.0,0.0,0.0,0.0,0.0,0.0,0.0,0.0,0.0,0.0,0.0,0.0,0.0,0.0,0.0,0.0,0.0,0.0,0.0,0.0,0.0,0.0,0.0,0.0,0.0,0.0,0.0,0.0,0.0,0.0,0.0,0.0,0.0,0.0,0.0,0.0,0.0,0.0,0.0,0.0,0.0,0.0,0.0,0.0,0.0,0.0,0.0,0.0,0.0,0.0,0.0,0.0,0.0,0.0,0.0,0.0,0.0,0.0,0.0,0.0,0.0,0.0,0.0,0.0,0.0,0.0,0.0,0.0,0.0,0.0,0.0,0.0,0.0,0.0,0.0,0.0,0.0,0.0,0.0,0.0,0.0,0.0,0.0,0.0,0.0,0.0,0.0,0.0,0.0,0.0,0.0,0.0,0.0,0.0,0.0,0.0,0.0,0.0,0.0,0.0,0.0,0.0,0.0,0.0,0.0,0.0,0.0,0.0,0.0,0.0,0.0,0.0,0.0,0.0,0.0,0.0,0.0,0.0,0.0,0.0,0.0,0.0,0.0,0.0,0.0,0.0,0.0,0.0,0.0,0.0,0.0,0.0,0.0,0.0,0.0,0.0,0.0,0.0,0.0,0.0,0.0,0.0,0.0,0.0,0.0,0.0,0.0,0.0,0.0,0.0,0.0,0.0,0.0,0.0,0.0,0.0,0.0,0.0,0.0,0.0,0.0,0.0,0.0,0.0,0.0,0.0,0.0,0.0,0.0,0.0,0.0,0.0,0.0,0.0,0.0,0.0,0.0,0.0,0.0,0.0,0.0,0.0,0.0,0.0,0.0,0.0,0.0,0.0,0.0,0.0,0.0,0.0,0.0,0.0,0.0,0.0,0.0,0.0,0.0,0.0,0.0,0.0,0.0,0.0,0.0,0.0,0.0,0.0,0.0,0.0,0.0,0.0,0.0,0.0,0.0,0.0,0.0,0.0,0.0,0.0,0.0,0.0,0.0,0.0,0.0,0.0,0.0,0.0,0.0,0.0,0.0,0.0,0.0,0.0,0.0,0.0,0.0,0.0,0.0,0.0,0.0,0.0,0.0,0.0,0.0,0.0,0.0,0.0,0.0,0.0,0.0,0.0,0.0,0.0,0.0,0.0,0.0,0.0,0.0,0.0,0.0,0.0,0.0,0.0,0.0,0.0,0.0,0.0,0.0,0.0,0.0,0.0,0.0,0.0,0.0,0.0,0.0,0.0,0.0,0.0,0.0,0.0,0.0,0.0,0.0,0.0,0.0,0.0,0.0,0.0,0.0,0.0,0.0,0.0,0.0,0.0,0.0,0.0,0.0,0.0,0.0,0.0,0.0,0.0,0.0,0.0,0.0,0.0,0.0,0.0,0.0,0.0,0.0,0.0,0.0,0.0,0.0,0.0,0.0,0.0,0.0,0.0,0.0,0.0,0.0,0.0,0.0,0.0,0.0,0.0,0.0,0.0,0.0,0.0,0.0,0.0,0.0,0.0,0.0,0.0,0.0,0.0,0.0,0.0,0.0,0.0,0.0,0.0,0.0,0.0,0.0,0.0,0.0,0.0,0.0,0.0,0.0,0.0,0.0,0.0,0.0,0.0,0.0,0.0,0.0,0.0,0.0,0.0,0.0,0.0,0.0,0.0,0.0,0.0,0.0,0.0,0.0,0.0,0.0,0.0,0.0,0.0,0.0,0.0,0.0,0.0,0.0,0.0,0.0,0.0,0.0,0.0,0.0,0.0,0.0,0.0,0.0,0.0,0.0,0.0,0.0,0.0,0.0,0.0,0.0,0.0,0.0,0.0,0.0,0.0,0.0,0.0,0.0,0.0,0.0,0.0,0.0,0.0,0.0,0.0,0.0,0.0,0.0,0.0,0.0,0.0,0.0,0.0,0.0,0.0,0.0,0.0,0.0,0.0,0.0,0.0,0.0,0.0,0.0,0.0,0.0,0.0,0.0,0.0,0.0,0.0,0.0,0.0,0.0,0.0,0.0,0.0,0.0,0.0,0.0,0.0,0.0,0.0,0.0,0.0,0.0,0.0,0.0,0.0,0.0,0.0,0.0,0.0,0.0,0.0,0.0,0.0,0.0,0.0,0.0,0.0,0.0,0.0,0.0,0.0,0.0,0.0,0.0,0.0,0.0,0.0,0.0,0.0,0.0,0.0,0.0,0.0,0.0,0.0,0.0,0.0,0.0,0.0,0.0,0.0,0.0,0.0,0.0,0.0,0.0,0.0,0.0,0.0,0.0,0.0,0.0,0.0,0.0,0.0,0.0,0.0,0.0,0.0,0.0,0.0,0.0,0.0,0.0,0.0,0.0,0.0,0.0,0.0,0.0,0.0,0.0,0.0,0.0,0.0,0.0,0.0,0.0,0.0,0.0,0.0,0.0,0.0,0.0,0.0,0.0,0.0,0.0,0.0,0.0,0.0,0.0,0.0,0.0,0.0,0.0,0.0,0.0,0.0,0.0,0.0,0.0,0.0,0.0,0.0,0.0,0.0,0.0,0.0,0.0,0.0,0.0,0.0,0.0,0.0,0.0,0.0,0.0,0.0,0.0,0.0,0.0,0.0,0.0,0.0,0.0,0.0,0.0,0.0,0.0,0.0,0.0,0.0,0.0,0.0,0.0,0.0,0.0,0.0,0.0,0.0,0.0,0.0,0.0,0.0,0.0,0.0,0.0,0.0,0.0,0.0,0.0,0.0,0.0,0.0,0.0,0.0,0.0,0.0,0.0,0.0,0.0,0.0,0.0,0.0,0.0,0.0,0.0,0.0,0.0,0.0,0.0,0.0,0.0,0.0,0.0,0.0,0.0,0.0,0.0,0.0,0.0,0.0,0.0,0.0,0.0,0.0,0.0,0.0,0.0,0.0,0.0,0.0,0.0,0.0,0.0,0.0,0.0,0.0,0.0,0.0,0.0,0.0,0.0,0.0,0.0,0.0,0.0,0.0,0.0,0.0,0.0,0.0,0.0,0.0,0.0,0.0,0.0,0.0,0.0,0.0,0.0,0.0,0.0,0.0,0.0,0.0,0.0,0.0,0.0,0.0,-3.4664,0.0,0.0,0.0,0.0,0.0,0.0,0.0,0.0,0.0,0.0,0.0,0.0,0.0,0.0,0.0,0.0,0.0,0.0,0.0,0.0,0.0,0.0,0.0,0.0,0.0,0.0,0.0,0.0,0.0,0.0,0.0,0.0,0.0,0.0,0.0,0.0,0.0,0.0,0.0,0.0,0.0,0.0,0.0,0.0,0.0,0.0,0.0,0.0,0.0,0.0,0.0,0.0,0.0,0.0,0.0,0.0,0.0,0.0,0.0,0.0,0.0,0.0,0.0,0.0,0.0,0.0,0.0,0.0,0.0,0.0,0.0,0.0,0.0,0.0,0.0,0.0,0.0,0.0,0.0,0.0,0.0,0.0,0.0,0.0,0.0,0.0,0.0,0.0,0.0,0.0,0.0,0.0,0.0,0.0,0.0,0.0,0.0,0.0,0.0,0.0,0.0,0.0,0.0,0.0,0.0,0.0,0.0,0.0,0.0,0.0,-3.9088,-3.8608,-3.7688,-3.6824,-3.6028,0.0,0.0,0.0,0.0,0.0,0.0,0.0,0.0,0.0,0.0,0.0,0.0,0.0,0.0,0.0,0.0,0.0,0.0,0.0,0.0,0.0,0.0,0.0,0.0,0.0,0.0,0.0,0.0,0.0,0.0,0.0,0.0,0.0,0.0,0.0,0.0,0.0,0.0,0.0,0.0,0.0,0.0,0.0,0.0,0.0,0.0,0.0,0.0,0.0,0.0,0.0,0.0,0.0,0.0,0.0,0.0,0.0,0.0,0.0,0.0,0.0,0.0,0.0,0.0,0.0,0.0,0.0,0.0,0.0,0.0,0.0,0.0,0.0,0.0,0.0,0.0,0.0,0.0,0.0,0.0,0.0,0.0,0.0,0.0,0.0,0.0,0.0,0.0,0.0,0.0,0.0,0.0,0.0,0.0,0.0,0.0,0.0,0.0,0.0,0.0,0.0,0.0,0.0,0.0,0.0,0.0,0.0,0.0,0.0,0.0,0.0,0.0,-3.8492,-3.756,-3.7141,0.0,0.0,0.0,0.0,0.0,0.0,0.0,0.0,0.0,0.0,0.0,0.0,0.0,0.0,0.0,0.0,0.0,0.0,0.0,0.0,0.0,0.0,0.0,0.0,0.0,0.0,0.0,0.0,0.0,0.0,0.0,0.0,0.0,0.0,0.0,0.0,0.0,0.0,0.0,0.0,0.0,0.0,0.0,0.0,0.0,0.0,0.0,0.0,0.0,0.0,0.0,0.0,0.0,0.0,0.0,0.0,0.0,0.0,0.0,0.0,0.0,0.0,0.0,0.0,0.0,0.0,0.0,0.0,0.0,0.0,0.0,0.0,0.0,0.0,0.0,0.0,0.0,0.0,0.0,0.0,0.0,0.0,0.0,0.0,0.0,0.0,0.0,0.0,0.0,0.0,0.0,0.0,0.0,0.0,0.0,0.0,0.0,0.0,0.0,0.0,0.0,0.0,0.0,0.0,0.0,0.0,0.0,0.0,0.0,0.0,-4.0613,-3.9828,-3.9571,0.0,-3.7114,0.0,0.0,0.0,0.0,0.0,0.0,0.0,0.0,0.0,0.0,0.0,0.0,0.0,0.0,0.0,0.0,0.0,0.0,0.0,0.0,0.0,0.0,0.0,0.0,0.0,0.0,0.0,0.0,0.0,0.0,0.0,0.0,0.0,0.0,0.0,0.0,0.0,0.0,0.0,0.0,0.0,0.0,0.0,0.0,0.0,0.0,0.0,0.0,0.0,0.0,0.0,0.0,0.0,0.0,0.0,0.0,0.0,0.0,0.0,0.0,0.0,0.0,0.0,0.0,0.0,0.0,0.0,0.0,0.0,0.0,0.0,0.0,0.0,0.0,0.0,0.0,0.0,0.0,0.0,0.0,0.0,0.0,0.0,0.0,0.0,0.0,0.0,0.0,0.0,0.0,0.0,0.0,0.0,0.0,0.0,0.0,0.0,0.0,0.0,0.0,0.0,0.0,0.0,0.0,0.0,0.0,0.0,0.0,0.0,0.0,-4.0922,-4.0599,-4.0007,-3.8852,0.0,0.0,0.0,0.0,0.0,0.0,0.0,0.0,0.0,0.0,0.0,0.0,0.0,0.0,0.0,0.0,0.0,0.0,0.0,0.0,0.0,0.0,0.0,0.0,0.0,0.0,0.0,0.0,0.0,0.0,0.0,0.0,0.0,0.0,0.0,0.0,0.0,0.0,0.0,0.0,0.0,0.0,0.0,0.0,0.0,0.0,0.0,0.0,0.0,0.0,0.0,0.0,0.0,0.0,0.0,0.0,0.0,0.0,0.0,0.0,0.0,0.0,0.0,0.0,0.0,0.0,0.0,0.0,0.0,0.0,0.0,0.0,0.0,0.0,0.0,0.0,0.0,0.0,0.0,0.0,0.0,0.0,0.0,0.0,0.0,0.0,0.0,0.0,0.0,0.0,0.0,0.0,0.0,0.0,0.0,0.0,0.0,0.0,0.0,0.0,0.0,0.0,0.0,0.0,0.0,0.0,0.0,0.0,0.0,0.0,-4.1108,-4.1085,-4.1039,-4.0174,-3.8963,-3.7405,0.0,0.0,0.0,0.0,0.0,0.0,0.0,0.0,0.0,0.0,0.0,0.0,0.0,0.0,0.0,0.0,0.0,0.0,0.0,0.0,0.0,0.0,0.0,0.0,0.0,0.0,0.0,0.0,0.0,0.0,0.0,0.0,0.0,0.0,0.0,0.0,0.0,0.0,0.0,0.0,0.0,0.0,0.0,0.0,0.0,0.0,0.0,0.0,0.0,0.0,0.0,0.0,0.0,0.0,0.0,0.0,0.0,0.0,0.0,0.0,0.0,0.0,0.0,0.0,0.0,0.0,0.0,0.0,0.0,0.0,0.0,0.0,0.0,0.0,0.0,0.0,0.0,0.0,0.0,0.0,0.0,0.0,0.0,0.0,0.0,0.0,0.0,0.0,0.0,0.0,0.0,0.0,0.0,0.0,0.0,0.0,0.0,0.0,0.0,0.0,0.0,0.0,0.0,0.0,0.0,0.0,0.0,0.0,-4.1111,-4.1109,-4.107,-4.0984,-4.0143,-3.9246,0.0,0.0,0.0,0.0,0.0,0.0,0.0,0.0,0.0,0.0,0.0,0.0,0.0,0.0,0.0,0.0,0.0,0.0,0.0,0.0,0.0,0.0,0.0,0.0,0.0,0.0,0.0,0.0,0.0,0.0,0.0,0.0,0.0,0.0,0.0,0.0,0.0,0.0,0.0,0.0,0.0,0.0,0.0,0.0,0.0,0.0,0.0,0.0,0.0,0.0,0.0,0.0,0.0,0.0,0.0,0.0,0.0,0.0,0.0,0.0,0.0,0.0,0.0,0.0,0.0,0.0,0.0,0.0,0.0,0.0,0.0,0.0,0.0,0.0,0.0,0.0,0.0,0.0,0.0,0.0,0.0,0.0,0.0,0.0,0.0,0.0,0.0,0.0,0.0,0.0,0.0,0.0,0.0,0.0,0.0,0.0,0.0,0.0,0.0,0.0,0.0,0.0,0.0,0.0,0.0,0.0,0.0,0.0,0.0,-4.1097,-4.1042,-4.1006,-4.0915,-4.009,-3.9219,0.0,0.0,0.0,0.0,0.0,0.0,0.0,0.0,0.0,0.0,0.0,0.0,0.0,0.0,0.0,0.0,0.0,0.0,0.0,0.0,0.0,0.0,0.0,0.0,0.0,0.0,0.0,0.0,0.0,0.0,0.0,0.0,0.0,0.0,0.0,0.0,0.0,0.0,0.0,0.0,0.0,0.0,0.0,0.0,0.0,0.0,0.0,0.0,0.0,0.0,0.0,0.0,0.0,0.0,0.0,0.0,0.0,0.0,0.0,0.0,0.0,0.0,0.0,0.0,0.0,0.0,0.0,0.0,0.0,0.0,0.0,0.0,0.0,0.0,0.0,0.0,0.0,0.0,0.0,0.0,0.0,0.0,0.0,0.0,0.0,0.0,0.0,0.0,0.0,0.0,0.0,0.0,0.0,0.0,0.0,0.0,0.0,0.0,0.0,0.0,0.0,0.0,0.0,0.0,0.0,0.0,0.0,0.0,0.0,-4.1076,0.0,-4.096,-4.0869,-4.0063,-3.919,0.0,0.0,0.0,0.0,0.0,0.0,0.0,0.0,0.0,0.0,0.0,0.0,0.0,0.0,0.0,0.0,0.0,0.0,0.0,0.0,0.0,0.0,0.0,0.0,0.0,0.0,0.0,0.0,0.0,0.0,0.0,0.0,0.0,0.0,0.0,0.0,0.0,0.0,0.0,0.0,0.0,0.0,0.0,0.0,0.0,0.0,0.0,0.0,0.0,0.0,0.0,0.0,0.0,0.0,0.0,0.0,0.0,0.0,0.0,0.0,0.0,0.0,0.0,0.0,0.0,0.0,0.0,0.0,0.0,0.0,0.0,0.0,0.0,0.0,0.0,0.0,0.0,0.0,0.0,0.0,0.0,0.0,0.0,0.0,0.0,0.0,0.0,0.0,0.0,0.0,0.0,0.0,0.0,0.0,0.0,0.0,0.0,0.0,0.0,0.0,0.0,0.0,0.0,0.0,0.0,0.0,0.0,0.0,-4.1105,-4.1033,-4.0991,-4.1005,-4.0907,-4.0101,-3.9207,0.0,0.0,0.0,0.0,0.0,0.0,0.0,0.0,0.0,0.0,0.0,0.0,0.0,0.0,0.0,0.0,0.0,0.0,0.0,0.0,0.0,0.0,0.0,0.0,0.0,0.0,0.0,0.0,0.0,0.0,0.0,0.0,0.0,0.0,0.0,0.0,0.0,0.0,0.0,0.0,0.0,0.0,0.0,0.0,0.0,0.0,0.0,0.0,0.0,0.0,0.0,0.0,0.0,0.0,0.0,0.0,0.0,0.0,0.0,0.0,0.0,0.0,0.0,0.0,0.0,0.0,0.0,0.0,0.0,0.0,0.0,0.0,0.0,0.0,0.0,0.0,0.0,0.0,0.0,0.0,0.0,0.0,0.0,0.0,0.0,0.0,0.0,0.0,0.0,0.0,0.0,0.0,0.0,0.0,0.0,0.0,0.0,0.0,0.0,0.0,0.0,0.0,0.0,0.0,0.0,0.0,0.0,0.0,0.0,-4.1824,-4.2345,-4.2352,-4.1726,-4.0901,-3.9735,0.0,0.0,0.0,0.0,0.0,0.0,0.0,0.0,0.0,0.0,0.0,0.0,0.0,0.0,0.0,0.0,0.0,0.0,0.0,0.0,0.0,0.0,0.0,0.0,0.0,0.0,0.0,0.0,0.0,0.0,0.0,0.0,0.0,0.0,0.0,0.0,0.0,0.0,0.0,0.0,0.0,0.0,0.0,0.0,0.0,0.0,0.0,0.0,0.0,0.0,0.0,0.0,0.0,0.0,0.0,0.0,0.0,0.0,0.0,0.0,0.0,0.0,0.0,0.0,0.0,0.0,0.0,0.0,0.0,0.0,0.0,0.0,0.0,0.0,0.0,0.0,0.0,0.0,0.0,0.0,0.0,0.0,0.0,0.0,0.0,0.0,0.0,0.0,0.0,0.0,0.0,0.0,0.0,0.0,0.0,0.0,0.0,0.0,0.0,0.0,0.0,0.0,0.0,0.0,0.0,0.0,0.0,0.0,0.0,-4.3507,-4.3427,-4.3102,-4.2562,-4.1427,-4.0261,-3.918,0.0,0.0,0.0,0.0,0.0,0.0,0.0,0.0,0.0,0.0,0.0,0.0,0.0,0.0,0.0,0.0,0.0,0.0,0.0,0.0,0.0,0.0,0.0,0.0,0.0,0.0,0.0,0.0,0.0,0.0,0.0,0.0,0.0,0.0,0.0,0.0,0.0,0.0,0.0,0.0,0.0,0.0,0.0,0.0,0.0,0.0,0.0,0.0,0.0,0.0,0.0,0.0,0.0,0.0,0.0,0.0,0.0,0.0,0.0,0.0,0.0,0.0,0.0,0.0,0.0,0.0,0.0,0.0,0.0,0.0,0.0,0.0,0.0,0.0,0.0,0.0,0.0,0.0,0.0,0.0,0.0,0.0,0.0,0.0,0.0,0.0,0.0,0.0,0.0,0.0,0.0,0.0,0.0,0.0,0.0,0.0,0.0,0.0,0.0,0.0,0.0,0.0,0.0,0.0,0.0,0.0,0.0,0.0,-4.5786,-4.4318,-4.3499,-4.344,-4.1944,-4.0958,0.0,0.0,0.0,0.0,0.0,0.0,0.0,0.0,0.0,0.0,0.0,0.0,0.0,0.0,0.0,0.0,0.0,0.0,0.0,0.0,0.0,0.0,0.0,0.0,0.0,0.0,0.0,0.0,0.0,0.0,0.0,0.0,0.0,0.0,0.0,0.0,0.0,0.0,0.0,0.0,0.0,0.0,0.0,0.0,0.0,0.0,0.0,0.0,0.0,0.0,0.0,0.0,0.0,0.0,0.0,0.0,0.0,0.0,0.0,0.0,0.0,0.0,0.0,0.0,0.0,0.0,0.0,0.0,0.0,0.0,0.0,0.0,0.0,0.0,0.0,0.0,0.0,0.0,0.0,0.0,0.0,0.0,0.0,0.0,0.0,0.0,0.0,0.0,0.0,0.0,0.0,0.0,0.0,0.0,0.0,0.0,0.0,0.0,0.0,0.0,0.0,0.0,0.0,0.0,0.0,0.0,0.0,0.0,0.0,-4.5718,-4.5939,-4.5746,-4.5109,-4.4631,-4.3207,0.0,0.0,0.0,0.0,0.0,0.0,0.0,0.0,0.0,0.0,0.0,0.0,0.0,0.0,0.0,0.0,0.0,0.0,0.0,0.0,0.0,0.0,0.0,0.0,0.0,0.0,0.0,0.0,0.0,0.0,0.0,0.0,0.0,0.0,0.0,0.0,0.0,0.0,0.0,0.0,0.0,0.0,0.0,0.0,0.0,0.0,0.0,0.0,0.0,0.0,0.0,0.0,0.0,0.0,0.0,0.0,0.0,0.0,0.0,0.0,0.0,0.0,0.0,0.0,0.0,0.0,0.0,0.0,0.0,0.0,0.0,0.0,0.0,0.0,0.0,0.0,0.0,0.0,0.0,0.0,0.0,0.0,0.0,0.0,0.0,0.0,0.0,0.0,0.0,0.0,0.0,0.0,0.0,0.0,0.0,0.0,0.0,0.0,0.0,0.0,0.0,0.0,0.0,0.0,0.0,0.0,0.0,0.0,-4.4761,-4.6761,-4.758,-4.7565,-4.6735,-4.6037,-4.4399,0.0,0.0,0.0,0.0,0.0,0.0,0.0,0.0,0.0,0.0,0.0,0.0,0.0,0.0,0.0,0.0,0.0,0.0,0.0,0.0,0.0,0.0,0.0,0.0,0.0,0.0,0.0,0.0,0.0,0.0,0.0,0.0,0.0,0.0,0.0,0.0,0.0,0.0,0.0,0.0,0.0,0.0,0.0,0.0,0.0,0.0,0.0,0.0,0.0,0.0,0.0,0.0,0.0,0.0,0.0,0.0,0.0,0.0,0.0,0.0,0.0,0.0,0.0,0.0,0.0,0.0,0.0,0.0,0.0,0.0,0.0,0.0,0.0,0.0,0.0,0.0,0.0,0.0,0.0,0.0,0.0,0.0,0.0,0.0,0.0,0.0,0.0,0.0,0.0,0.0,0.0,0.0,0.0,0.0,0.0,0.0,0.0,0.0,0.0,0.0,0.0,0.0,0.0,0.0,0.0,0.0,0.0,0.0,-4.5571,-4.8006,-4.8875,-4.8912,-4.8106,-4.6624,-4.4966,0.0,0.0,0.0,0.0,0.0,0.0,0.0,0.0,0.0,0.0,0.0,0.0,0.0,0.0,0.0,0.0,0.0,0.0,0.0,0.0,0.0,0.0,0.0,0.0,0.0,0.0,0.0,0.0,0.0,0.0,0.0,0.0,0.0,0.0,0.0,0.0,0.0,0.0,0.0,0.0,0.0,0.0,0.0,0.0,0.0,0.0,0.0,0.0,0.0,0.0,0.0,0.0,0.0,0.0,0.0,0.0,0.0,0.0,0.0,0.0,0.0,0.0,0.0,0.0,0.0,0.0,0.0,0.0,0.0,0.0,0.0,0.0,0.0,0.0,0.0,0.0,0.0,0.0,0.0,0.0,0.0,0.0,0.0,0.0,0.0,0.0,0.0,0.0,0.0,0.0,0.0,0.0,0.0,0.0,0.0,0.0,0.0,0.0,0.0,0.0,0.0,0.0,0.0,0.0,0.0,0.0,0.0,0.0,-4.5271,-4.7066,-4.8529,-4.8893,-4.8028,-4.7683,-4.6071,0.0,0.0,0.0,0.0,0.0,0.0,0.0,0.0,0.0,0.0,0.0,0.0,0.0,0.0,0.0,0.0,0.0,0.0,0.0,0.0,0.0,0.0,0.0,0.0,0.0,0.0,0.0,0.0,0.0,0.0,0.0,0.0,0.0,0.0,0.0,0.0,0.0,0.0,0.0,0.0,0.0,0.0,0.0,0.0,0.0,0.0,0.0,0.0,-3.9739,0.0,0.0,0.0,0.0,0.0,0.0,0.0,0.0,0.0,0.0,0.0,0.0,0.0,0.0,0.0,0.0,0.0,0.0,0.0,0.0,0.0,0.0,0.0,0.0,0.0,0.0,0.0,0.0,0.0,0.0,0.0,0.0,0.0,0.0,0.0,0.0,0.0,0.0,0.0,0.0,0.0,0.0,0.0,0.0,0.0,0.0,0.0,0.0,0.0,0.0,0.0,0.0,0.0,0.0,0.0,0.0,0.0,0.0,0.0,-4.6124,-4.7338,-4.8565,-4.8792,-4.7966,-4.716,-4.5495,0.0,0.0,0.0,0.0,0.0,0.0,0.0,0.0,0.0,0.0,0.0,0.0,0.0,0.0,0.0,0.0,0.0,0.0,0.0,0.0,0.0,0.0,0.0,0.0,0.0,0.0,0.0,0.0,0.0,0.0,0.0,0.0,0.0,0.0,0.0,0.0,0.0,0.0,0.0,0.0,0.0,0.0,0.0,0.0,0.0,0.0,0.0,0.0,0.0,0.0,0.0,0.0,0.0,0.0,0.0,0.0,0.0,0.0,0.0,0.0,0.0,0.0,0.0,0.0,0.0,0.0,0.0,0.0,0.0,0.0,0.0,0.0,0.0,0.0,0.0,0.0,0.0,0.0,0.0,0.0,0.0,0.0,0.0,0.0,0.0,0.0,0.0,0.0,0.0,0.0,0.0,0.0,0.0,0.0,0.0,0.0,0.0,0.0,0.0,0.0,0.0,0.0,0.0,0.0,0.0,0.0,0.0,-4.5299,-4.6916,-4.7605,-4.8462,-4.8518,-4.7695,-4.612,-4.4515,-4.2852,0.0,0.0,0.0,0.0,0.0,0.0,0.0,0.0,0.0,0.0,0.0,0.0,0.0,0.0,0.0,0.0,0.0,0.0,0.0,0.0,0.0,0.0,0.0,0.0,0.0,0.0,0.0,0.0,0.0,0.0,0.0,0.0,0.0,0.0,0.0,0.0,0.0,0.0,-4.1108,-4.1963,0.0,0.0,0.0,0.0,0.0,0.0,0.0,0.0,-4.0982,0.0,0.0,0.0,0.0,0.0,0.0,0.0,0.0,0.0,0.0,0.0,0.0,0.0,0.0,0.0,0.0,0.0,0.0,0.0,0.0,0.0,0.0,0.0,0.0,0.0,0.0,0.0,0.0,0.0,0.0,0.0,0.0,0.0,0.0,0.0,0.0,0.0,0.0,0.0,0.0,0.0,0.0,0.0,0.0,0.0,0.0,0.0,0.0,0.0,0.0,0.0,0.0,0.0,0.0,0.0,0.0,-4.1923,-4.4364,-4.5688,-4.5838,-4.7293,-4.7654,-4.6751,-4.5793,-4.4494,-4.289,0.0,0.0,0.0,0.0,0.0,0.0,0.0,0.0,0.0,0.0,0.0,0.0,0.0,0.0,0.0,0.0,0.0,0.0,0.0,0.0,0.0,0.0,0.0,0.0,0.0,0.0,0.0,0.0,0.0,0.0,0.0,0.0,0.0,0.0,0.0,0.0,0.0,0.0,0.0,-4.2436,-4.308,0.0,0.0,0.0,0.0,0.0,0.0,0.0,0.0,-4.0264,0.0,0.0,0.0,0.0,0.0,0.0,0.0,0.0,0.0,0.0,0.0,0.0,0.0,0.0,0.0,0.0,0.0,0.0,0.0,0.0,0.0,0.0,0.0,0.0,0.0,0.0,0.0,0.0,0.0,0.0,0.0,0.0,0.0,0.0,0.0,0.0,0.0,0.0,0.0,0.0,0.0,0.0,0.0,0.0,0.0,0.0,0.0,0.0,0.0,0.0,0.0,0.0,0.0,0.0,0.0,-4.1796,-4.4135,-4.538,-4.5376,-4.6543,-4.6942,-4.6481,-4.5277,-4.4055,0.0,0.0,0.0,0.0,0.0,0.0,0.0,0.0,0.0,0.0,0.0,0.0,0.0,0.0,0.0,0.0,0.0,0.0,0.0,0.0,0.0,0.0,0.0,0.0,0.0,0.0,0.0,0.0,0.0,0.0,0.0,0.0,0.0,0.0,0.0,0.0,0.0,0.0,0.0,0.0,-4.2832,-4.3278,-4.2416,0.0,0.0,0.0,0.0,0.0,0.0,-4.1445,-4.1395,0.0,0.0,0.0,0.0,0.0,0.0,0.0,0.0,0.0,0.0,0.0,0.0,0.0,0.0,0.0,0.0,0.0,0.0,0.0,0.0,0.0,0.0,0.0,0.0,0.0,0.0,0.0,0.0,0.0,0.0,0.0,0.0,0.0,0.0,0.0,0.0,0.0,0.0,0.0,0.0,0.0,0.0,0.0,0.0,0.0,0.0,0.0,0.0,0.0,0.0,0.0,0.0,0.0,0.0,0.0,-4.1685,-4.3905,-4.509,-4.5067,-4.5831,-4.6252,-4.6233,-4.4972,-4.3806,0.0,0.0,0.0,0.0,0.0,0.0,0.0,0.0,0.0,0.0,0.0,0.0,0.0,0.0,0.0,0.0,0.0,0.0,0.0,0.0,0.0,0.0,0.0,0.0,0.0,0.0,0.0,0.0,0.0,0.0,0.0,0.0,0.0,0.0,0.0,0.0,0.0,0.0,0.0,0.0,0.0,-4.3611,-4.2909,-4.3942,0.0,0.0,0.0,0.0,-4.2775,-4.2539,0.0,0.0,0.0,0.0,0.0,0.0,0.0,0.0,0.0,0.0,0.0,0.0,0.0,0.0,0.0,0.0,0.0,0.0,0.0,0.0,0.0,0.0,0.0,0.0,0.0,0.0,0.0,0.0,0.0,0.0,0.0,0.0,0.0,0.0,0.0,0.0,0.0,0.0,0.0,0.0,0.0,0.0,0.0,0.0,0.0,0.0,0.0,0.0,0.0,0.0,0.0,0.0,0.0,0.0,0.0,0.0,-4.1666,-4.3272,-4.415,-4.4188,-4.4991,-4.543,-4.5449,-4.5239,-4.4399,0.0,0.0,0.0,0.0,0.0,0.0,0.0,0.0,0.0,0.0,0.0,0.0,0.0,0.0,0.0,0.0,0.0,0.0,0.0,0.0,0.0,0.0,0.0,0.0,0.0,0.0,0.0,0.0,0.0,0.0,0.0,0.0,0.0,0.0,0.0,0.0,0.0,0.0,0.0,0.0,0.0,-4.4705,-4.4526,-4.4618,-4.4622,0.0,0.0,-4.2005,-4.186,-4.1144,0.0,0.0,0.0,0.0,0.0,0.0,0.0,0.0,0.0,0.0,0.0,0.0,0.0,0.0,0.0,0.0,0.0,0.0,0.0,0.0,0.0,0.0,0.0,0.0,0.0,0.0,0.0,0.0,0.0,0.0,0.0,0.0,0.0,0.0,0.0,0.0,0.0,0.0,0.0,0.0,0.0,0.0,0.0,0.0,0.0,0.0,0.0,0.0,0.0,0.0,0.0,0.0,0.0,0.0,0.0,-4.0863,-4.0883,-4.1991,-4.2584,-4.2622,-4.3883,-4.4571,-4.4551,-4.4551,-4.4017,0.0,0.0,0.0,0.0,0.0,0.0,0.0,0.0,0.0,0.0,0.0,0.0,0.0,0.0,0.0,0.0,0.0,0.0,0.0,0.0,0.0,0.0,0.0,0.0,0.0,0.0,0.0,0.0,0.0,0.0,0.0,0.0,0.0,0.0,0.0,0.0,0.0,0.0,0.0,0.0,0.0,0.0,-4.474,-4.5172,0.0,0.0,0.0,-4.3612,-4.4456,0.0,0.0,0.0,0.0,0.0,0.0,0.0,0.0,0.0,0.0,0.0,0.0,0.0,0.0,0.0,0.0,0.0,0.0,0.0,0.0,0.0,0.0,0.0,0.0,0.0,0.0,0.0,0.0,0.0,0.0,0.0,0.0,0.0,0.0,0.0,0.0,0.0,0.0,0.0,0.0,0.0,0.0,0.0,0.0,0.0,0.0,0.0,0.0,0.0,0.0,0.0,0.0,0.0,0.0,0.0,0.0,0.0,-4.031,-4.1094,-4.1495,-4.1552,-4.3157,-4.4017,-4.4017,-4.4017,0.0,0.0,0.0,0.0,0.0,0.0,0.0,0.0,0.0,0.0,0.0,0.0,0.0,0.0,0.0,0.0,0.0,0.0,0.0,0.0,0.0,0.0,0.0,0.0,0.0,0.0,0.0,-3.5438,0.0,0.0,0.0,0.0,0.0,0.0,0.0,0.0,0.0,0.0,0.0,0.0,0.0,0.0,-4.3736,-4.4945,-4.5599,-4.5956,0.0,0.0,-4.4966,-4.5687,-4.3943,-4.2393,0.0,0.0,0.0,0.0,0.0,0.0,0.0,0.0,0.0,0.0,0.0,0.0,0.0,0.0,0.0,0.0,0.0,0.0,0.0,0.0,0.0,0.0,0.0,0.0,0.0,0.0,0.0,0.0,0.0,0.0,0.0,0.0,0.0,0.0,0.0,0.0,0.0,0.0,0.0,0.0,0.0,0.0,0.0,0.0,0.0,0.0,0.0,0.0,0.0,0.0,0.0,0.0,0.0,0.0,0.0,-4.031,-4.1074,-4.1476,-4.1533,-4.3138,-4.4017,-4.4017,-4.4017,-4.3576,0.0,0.0,0.0,0.0,0.0,0.0,0.0,0.0,0.0,0.0,0.0,0.0,0.0,0.0,0.0,0.0,0.0,0.0,0.0,0.0,0.0,0.0,0.0,0.0,0.0,0.0,0.0,0.0,0.0,0.0,0.0,0.0,0.0,0.0,0.0,0.0,0.0,0.0,0.0,0.0,0.0,-4.3272,-4.5665,-4.5947,-4.588,0.0,0.0,-4.4989,-4.3423,-4.2297,-4.1342,-4.0616,0.0,0.0,0.0,0.0,0.0,0.0,0.0,0.0,0.0,0.0,0.0,0.0,0.0,0.0,0.0,0.0,0.0,0.0,0.0,0.0,0.0,0.0,0.0,0.0,0.0,0.0,0.0,0.0,0.0,0.0,0.0,0.0,0.0,0.0,0.0,0.0,0.0,0.0,0.0,0.0,0.0,0.0,0.0,0.0,0.0,0.0,0.0,0.0,0.0,0.0,0.0,0.0,0.0,-3.8897,-4.0291,-4.0597,-4.075,-4.0807,-4.1877,-4.243,-4.239,-4.2371,-4.1969,0.0,0.0,0.0,0.0,0.0,0.0,0.0,0.0,0.0,0.0,0.0,0.0,0.0,0.0,0.0,0.0,0.0,0.0,0.0,0.0,0.0,0.0,0.0,0.0,0.0,0.0,0.0,0.0,-3.7507,-3.816,-3.7444,0.0,0.0,0.0,0.0,0.0,0.0,0.0,0.0,0.0,0.0,-4.2833,-4.4305,-4.4462,0.0,0.0,-4.448,-4.4143,-4.4403,-4.2795,-4.159,-4.18,-4.0059,0.0,0.0,0.0,0.0,0.0,0.0,0.0,0.0,0.0,0.0,0.0,0.0,0.0,0.0,0.0,0.0,0.0,0.0,0.0,0.0,0.0,0.0,0.0,0.0,0.0,0.0,0.0,0.0,0.0,0.0,0.0,0.0,0.0,0.0,0.0,0.0,0.0,0.0,0.0,0.0,0.0,0.0,0.0,0.0,0.0,0.0,0.0,0.0,0.0,0.0,0.0,0.0,-3.819,-3.989,-4.0177,-4.0329,-4.0329,-4.1055,-4.1456,-4.1377,-4.1336,-4.1007,0.0,0.0,0.0,0.0,0.0,0.0,0.0,0.0,0.0,0.0,0.0,0.0,0.0,0.0,0.0,0.0,0.0,0.0,0.0,0.0,0.0,0.0,0.0,0.0,0.0,0.0,0.0,0.0,-3.7328,-3.8206,-3.7977,0.0,0.0,0.0,0.0,0.0,0.0,0.0,0.0,0.0,0.0,-4.2113,-4.3655,-4.3879,-4.4087,-4.4788,-4.4519,-4.435,-4.4651,-4.3139,-4.1896,-4.1705,0.0,0.0,0.0,0.0,0.0,0.0,0.0,0.0,0.0,0.0,0.0,0.0,0.0,0.0,0.0,0.0,0.0,0.0,0.0,0.0,0.0,0.0,0.0,0.0,0.0,0.0,0.0,0.0,0.0,0.0,0.0,0.0,0.0,0.0,0.0,0.0,0.0,0.0,0.0,0.0,0.0,0.0,0.0,0.0,0.0,0.0,0.0,0.0,0.0,0.0,0.0,0.0,0.0,-3.7387,-3.903,-3.989,-4.031,-4.031,-4.1016,-4.1339,-4.1277,-4.1231,-4.112,-4.0925,0.0,0.0,0.0,0.0,0.0,0.0,0.0,0.0,0.0,0.0,0.0,0.0,0.0,0.0,0.0,0.0,0.0,0.0,0.0,0.0,0.0,0.0,0.0,0.0,0.0,0.0,-3.6714,-3.61,-3.6112,0.0,0.0,0.0,0.0,0.0,0.0,0.0,0.0,0.0,0.0,-4.0279,-4.0982,-4.4268,-4.4683,-4.4814,-4.5524,-4.6233,-4.5868,-4.338,-4.2905,-4.2027,0.0,0.0,0.0,0.0,0.0,0.0,0.0,0.0,0.0,0.0,0.0,0.0,0.0,0.0,0.0,0.0,0.0,0.0,0.0,0.0,0.0,0.0,0.0,0.0,0.0,0.0,0.0,-4.1269,-4.0868,0.0,0.0,0.0,0.0,0.0,0.0,0.0,0.0,0.0,0.0,0.0,-4.0331,-4.0374,0.0,0.0,0.0,0.0,0.0,0.0,0.0,0.0,0.0,0.0,0.0,0.0,-3.7865,-3.8973,-3.9814,-4.0215,-4.0215,-4.0384,-4.0435,-4.029,-4.0242,-4.0104,-3.9846,0.0,0.0,0.0,0.0,0.0,0.0,0.0,0.0,0.0,0.0,0.0,0.0,0.0,0.0,0.0,0.0,0.0,0.0,0.0,0.0,0.0,0.0,0.0,0.0,0.0,-3.774,0.0,0.0,0.0,0.0,0.0,0.0,0.0,0.0,0.0,0.0,0.0,-3.9684,-4.0843,-4.171,-4.2645,-4.3792,-4.3422,-4.2915,0.0,0.0,0.0,0.0,0.0,0.0,0.0,0.0,0.0,0.0,0.0,0.0,0.0,0.0,-3.88,-3.7737,-3.7662,-3.768,-3.7408,0.0,0.0,0.0,0.0,0.0,0.0,0.0,0.0,0.0,0.0,0.0,0.0,0.0,0.0,0.0,0.0,-4.0228,0.0,0.0,0.0,0.0,0.0,0.0,0.0,0.0,-4.0132,-4.0132,-4.0188,-4.0235,-4.0087,0.0,-3.9935,-3.9619,0.0,0.0,0.0,0.0,0.0,0.0,0.0,0.0,-3.7695,-3.8536,-3.9605,-4.0137,-4.0078,-3.9956,-3.9826,-3.9693,-3.9575,-3.9252,-3.8755,-3.6649,-3.5609,0.0,0.0,0.0,0.0,0.0,0.0,0.0,0.0,0.0,0.0,0.0,0.0,0.0,0.0,0.0,0.0,0.0,0.0,0.0,0.0,0.0,0.0,0.0,-3.7344,0.0,0.0,0.0,0.0,0.0,0.0,0.0,0.0,0.0,-3.7533,-3.8533,-3.9544,-4.0449,-4.1226,-4.2033,-4.2937,0.0,0.0,0.0,0.0,0.0,0.0,0.0,-4.1468,-4.1838,-4.1074,-4.0399,-4.0274,-4.0019,-3.9823,-3.9777,0.0,0.0,-3.8447,-3.8525,-3.8577,-3.8206,-3.7819,-3.7374,-3.6844,-3.6318,-3.5772,0.0,0.0,0.0,0.0,0.0,0.0,0.0,0.0,-4.368,-4.3784,0.0,-4.1997,0.0,0.0,0.0,0.0,0.0,0.0,0.0,0.0,-3.9133,-3.9114,-4.0589,-4.0626,-4.0239,-3.9539,-3.9623,-3.9339,-3.8631,-3.8023,0.0,0.0,0.0,0.0,0.0,0.0,-3.6879,-3.7775,-3.9239,-3.9954,-3.9892,-3.9762,-3.9623,-3.9483,-3.9219,-3.8646,-3.7765,-3.7618,-3.6601,-3.4408,-3.424,0.0,0.0,0.0,0.0,0.0,0.0,0.0,0.0,0.0,0.0,0.0,0.0,0.0,0.0,0.0,0.0,0.0,0.0,0.0,0.0,-3.532,0.0,0.0,0.0,0.0,0.0,0.0,0.0,0.0,0.0,0.0,-3.82,-3.8443,-3.8782,-3.9752,0.0,0.0,0.0,0.0,-4.2703,-4.4227,-4.5114,-4.524,-4.4365,-4.3516,-4.2396,-4.0758,0.0,0.0,-3.8644,-3.9222,-3.9708,-3.9717,-3.9693,-3.9698,-3.967,-3.9609,-3.9642,-3.9618,-3.9457,-3.9245,-3.845,-3.7831,-3.7357,-4.566,0.0,0.0,0.0,0.0,-4.4374,-4.392,-4.3006,-4.3174,-4.3111,-4.2686,-4.068,0.0,0.0,0.0,0.0,0.0,0.0,-3.9327,-3.9717,-3.9829,-3.9866,-3.978,-3.9769,-3.9645,-3.9427,-3.957,-3.9529,-3.927,-3.8553,-3.826,-3.8381,0.0,0.0,0.0,0.0,-3.8114,-3.8319,-3.9277,-3.9739,-3.967,-3.9508,-3.9324,-3.9156,-3.8979,-3.8493,-3.7642,-3.709,-3.6473,-3.5781,-3.4235,0.0,0.0,0.0,0.0,0.0,0.0,0.0,0.0,0.0,0.0,0.0,0.0,0.0,0.0,0.0,0.0,0.0,0.0,0.0,-3.6974,-3.6017,-3.5895,0.0,0.0,0.0,0.0,0.0,0.0,0.0,0.0,0.0,-3.8761,-4.0152,-4.1338,0.0,0.0,-4.4009,-4.4746,-4.3804,-4.2966,-4.284,0.0,0.0,0.0,-4.1123,-4.1316,-4.126,-4.0843,-4.046,-4.0367,-3.9991,-3.9717,-3.9693,-3.965,-3.9626,-3.9626,-3.9626,-3.9626,-3.957,-3.8705,-3.7821,-3.7497,-3.6535,-3.5537,-4.6023,-4.5277,-4.5277,-4.5044,-4.4709,-4.4762,-4.4202,-4.3246,-4.3234,-4.3206,-4.3063,-4.1157,-4.0781,-4.139,-3.9342,0.0,0.0,0.0,-3.9202,-3.9147,-3.9732,-3.9732,-3.9239,-3.9256,-3.9237,-3.9237,-3.9343,-3.9376,-3.9401,-3.9277,-3.9064,-3.8841,0.0,0.0,-3.8061,-3.8061,-3.7872,-3.7527,-3.8229,-3.8568,-3.8496,-3.8611,-3.8758,-3.8921,-3.8556,-3.8074,-3.7566,-3.6434,-3.5873,-3.5901,-3.4293,-3.3493,0.0,0.0,0.0,0.0,0.0,0.0,0.0,0.0,0.0,0.0,0.0,-3.3448,-3.5143,0.0,0.0,0.0,-3.5588,-3.6323,-3.7649,-3.6865,0.0,0.0,0.0,0.0,0.0,0.0,0.0,-3.7885,-3.7194,-3.7229,-3.8914,-4.0457,-4.1498,-4.1763,-4.2419,-4.309,-4.3749,0.0,-4.1889,-4.2027,-4.1899,-4.1583,-4.1048,-4.1017,-4.1085,-4.1034,-4.088,-4.0599,-4.0151,-3.9603,-3.9119,-3.879,-3.8649,-3.8625,-3.8606,-3.8625,-3.8737,-3.8976,-3.8042,-3.7047,-3.6686,-3.5803,-3.5086,-4.6023,-4.5297,-4.5277,-4.4794,-4.4056,-4.4549,-4.4233,-4.3342,-4.3701,-4.3897,-4.3809,-4.2802,-4.1954,-4.1126,-3.9593,0.0,0.0,-3.8968,-3.8979,-3.8997,-3.9064,-3.9045,-3.8997,-3.8905,-3.8886,-3.8886,-3.883,-3.8832,-3.8906,-3.9677,-3.9714,-3.899,-3.7815,-3.7265,-3.7257,-3.7167,-3.6754,-3.6095,-3.6705,-3.6939,-3.6789,-3.7322,-3.7893,-3.8552,-3.789,-3.7437,-3.7239,-3.5826,-3.5046,-3.5064,-3.4336,-3.364,-3.3091,0.0,0.0,0.0,0.0,0.0,0.0,0.0,0.0,0.0,0.0,0.0,0.0,0.0,0.0,0.0,-3.6096,0.0,-3.7521,-3.7613,0.0,0.0,0.0,-3.6266,-3.5473,-3.5339,-3.5595,-3.6394,0.0,0.0,-3.8667,0.0,-3.9893,-3.9334,-3.8813,-3.9023,-4.05,-4.0118,-4.0041,-4.1506,-4.2357,-4.2821,-4.2267,-4.174,-4.0912,-4.0114,-3.9967,-3.9584,-3.8779,-3.8502,-3.8112,-3.748,-3.7186,-3.7178,-3.7141,-3.7178,-3.723,-3.7943,-3.7493,-3.6761,-3.6122,-3.5803,-3.5556,-4.6042,-4.5297,-4.5277,-4.5099,-4.4817,-4.4795,-4.4553,-4.4205,-4.3962,-4.3883,-4.3749,-4.2754,-4.1581,-4.0259,-3.9324,-3.8881,-3.8822,-3.891,-3.891,-3.8851,-3.8939,-3.895,-3.8902,-3.8311,-3.8015,-3.7978,-3.7387,-3.7119,-3.7146,-3.7304,-3.7618,-3.7988,-3.7719,-3.7966,-3.8637,-3.7505,-3.7069,-3.741,-3.7582,-3.7291,-3.6528,-3.6639,-3.6785,-3.6883,-3.6699,-3.6295,-3.5624,-3.5192,-3.4743,-3.4164,-3.3979,-3.3854,-3.3753,-3.2516,0.0,0.0,0.0,0.0,0.0,0.0,0.0,0.0,0.0,-3.3633,-3.5961,0.0,-3.5888,0.0,-3.6612,-3.6423,-3.6613,-3.608,0.0,0.0,-3.5861,-3.5651,-3.6073,-3.5539,-3.5677,-3.7015,-3.6654,-3.6692,-3.7658,-3.8061,-3.8211,-3.8144,-3.9777,-4.0963,-4.0771,-3.9973,-3.9547,-3.9978,-3.9804,-3.9424,-3.9515,-3.9141,-3.8878,-3.8569,-3.8441,-3.8261,-3.8034,-3.7852,-3.7675,-3.7446,-3.7281,-3.719,-3.7111,-3.6656,-3.6273,-3.6423,-3.6291,-3.6141,-3.5935,-3.5371,-3.473,-4.5698,-4.5277,-4.5277,-4.5235,-4.5125,-4.4938,-4.4745,-4.4513,-4.3767,-4.3423,-4.3254,-4.1899,-4.0809,-3.9926,-3.916,-3.8792,-3.878,-3.8822,-3.8851,-3.8803,-3.8512,-3.8346,-3.8298,-3.7505,-3.709,-3.7071,-3.6629,-3.6408,-3.6408,-3.6408,-3.6648,-3.7043,-3.6693,-3.7008,-3.7914,-3.7477,-3.7254,-3.7302,-3.6914,-3.6399,-3.579,-3.579,-3.5956,-3.6342,-3.6011,-3.5404,-3.4604,-3.4218,-3.3647,-3.2875,-3.3202,-3.3437,-3.3512,-3.3104,-3.278,0.0,0.0,0.0,0.0,0.0,0.0,0.0,0.0,0.0,0.0,0.0,-3.6596,0.0,-3.6805,0.0,-3.6843,-3.6463,-3.6253,-3.6348,-3.5911,-3.5645,-3.5685,-3.5267,-3.5268,-3.6097,-3.5833,-3.5738,-3.617,-3.6611,-3.6787,-3.6539,-3.8219,-3.9469,-3.945,-3.8814,-3.8433,-3.8818,-3.8508,-3.8206,-3.8208,-3.8132,-3.8086,-3.804,-3.795,-3.7778,-3.7344,-3.7122,-3.6882,-3.6483,-3.6249,-3.6142,-3.6061,-3.5697,-3.5428,-3.5766,-3.5578,-3.5353,-3.5334,-3.5218,-3.4854,-4.5277,-4.5277,-4.5277,-4.5256,-4.5192,-4.5014,-4.4846,-4.461,-4.3456,-4.2765,-4.2477,-4.0763,-3.9963,-3.9845,-3.9074,-3.8707,-3.8689,-3.8762,-3.8737,-3.8589,-3.7966,-3.7598,-3.7393,-3.6591,-3.6176,-3.6138,-3.6009,-3.5973,-3.5973,-3.5973,-3.6009,-3.6101,-3.5367,-3.5496,-3.6482,-3.7239,-3.7276,-3.6591,-3.5643,-3.5129,-3.499,-3.499,-3.5395,-3.6159,-3.5367,-3.4565,-3.3862,-3.3093,-3.2317,-3.1671,-3.2373,-3.2841,-3.2913,-3.3629,-3.3799,0.0,-3.3968,0.0,0.0,0.0,0.0,0.0,0.0,0.0,0.0,-3.711,-3.7528,-3.7433,-3.673,-3.6558,-3.7186,-3.7243,-3.6939,-3.6217,-3.6103,-3.5761,-3.4925,-3.4793,-3.4791,-3.4708,-3.4706,-3.4706,-3.4781,-3.535,-3.5605,-3.5249,-3.5869,-3.6763,-3.7406,-3.7173,-3.7061,-3.7781,-3.787,-3.7684,-3.7718,-3.7796,-3.7752,-3.7726,-3.7596,-3.7425,-3.6628,-3.638,-3.602,-3.5302,-3.5059,-3.4865,-3.4728,-3.4703,-3.4864,-3.5518,-3.5218,-3.4899,-3.488,-3.5027,-3.5128,-4.5277,-4.5277,-4.5277,-4.5297,-4.5275,-4.517,-4.501,-4.4688,-4.3474,-4.2419,-4.1433,-4.043,-3.9945,-3.9845,-3.9056,-3.8707,-3.8707,-3.8707,-3.8352,-3.7728,-3.761,-3.7206,-3.6497,-3.5661,-3.5257,-3.522,-3.4578,-3.4284,-3.4266,-3.4266,-3.4596,-3.5257,-3.5064,-3.5468,-3.6362,0.0,0.0,0.0,-3.5542,-3.5037,-3.499,-3.499,-3.5119,-3.5303,-3.395,0.0,-3.3019,-3.2244,-3.1763,-3.1634,-3.2354,0.0,0.0,0.0,0.0,0.0,0.0,0.0,0.0,0.0,0.0,0.0,-3.6007,-3.6121,-3.631,-3.6996,-3.7165,-3.6539,-3.6272,-3.593,-3.5457,-3.5361,-3.5264,-3.5113,-3.5094,-3.4999,-3.4809,-3.479,-3.4769,-3.4708,-3.4706,-3.4685,-3.4663,-3.4837,-3.4919,-3.4869,-3.5153,-3.5444,-3.5795,-3.5894,-3.5925,-3.6064,-3.6273,-3.6207,-3.6176,-3.6253,-3.6331,-3.6145,-3.6103,-3.6009,-3.5881,-3.5705,-3.5569,-3.5254,-3.5054,-3.487,-3.4811,-3.4689,-3.4677,-3.4817,-3.5229,-3.5585,-3.5548,-3.4611,-3.3481,-4.5277,0.0,-4.5277,-4.5277,0.0,-4.5213,-4.5125,-4.4891,-4.3283,-4.1661,-4.0111,-3.9644,-3.9418,-3.9294,-3.8872,-3.8469,-3.8102,-3.812,-3.7679,-3.689,-3.645,-3.6064,-3.5624,-3.4798,-3.4412,-3.4394,-3.4009,-3.3807,-3.3807,-3.3807,-3.4009,-3.4412,-3.4412,-3.466,-3.5146,-3.5165,-3.5395,-3.5855,-3.5294,-3.4807,-3.4431,-3.4412,-3.444,-3.4475,0.0,0.0,0.0,0.0,0.0,0.0,0.0,0.0,0.0,0.0,0.0,-3.3711,-3.4184,-3.4376,-3.4223,-3.468,-3.5191,-3.5664,-3.5666,-3.5837,-3.6217,-3.6217,-3.5988,-3.5609,-3.5532,-3.5341,-3.4944,-3.4848,-3.4788,-3.4768,-3.4747,-3.4747,-3.4708,-3.4706,-3.4687,-3.4666,-3.4645,-3.4645,-3.4623,-3.4623,-3.4687,-3.4751,-3.4908,-3.5056,-3.5193,-3.5407,-3.5553,-3.5651,-3.5654,-3.5704,-3.5704,-3.5704,-3.5704,-3.5704,-3.5643,-3.562,-3.562,-3.5522,-3.5412,-3.5315,-3.5124,-3.4927,-3.4812,-3.467,-3.4727,-3.5229,-3.5263,-3.5142,-3.5082,-3.4404,-3.3321,-4.5277,-4.5277,-4.5277,-4.5277,-4.5297,-4.5235,-4.5115,-4.4824,0.0,0.0,0.0,-3.8939,-3.8822,-3.8707,-3.856,-3.8102,-3.7526,-3.736,-3.6835,-3.6046,-3.5349,-3.4917,-3.478,-3.4119,-3.3807,-3.3807,-3.3807,-3.3807,-3.3807,-3.3807,-3.3807,-3.3807,-3.3807,-3.3815,-3.3868,-3.3868,-3.4263,-3.4926,-3.4991,-3.466,-3.4045,-3.4009,-3.4036,-3.4115,-3.3839,-3.3386,-3.2835,-3.2668,-3.2281,-3.169,-3.2373,-3.2798,-3.2853,-3.4238,-3.4814,-3.4321,-3.5608,-3.596,-3.486,-3.5512,-3.5723,-3.5095,-3.5002,-3.523,-3.5931,-3.5325,-3.4889,-3.4889,-3.4868,-3.4868,-3.4868,-3.4788,-3.4728,-3.4687,-3.4666,-3.4666,-3.4623,-3.4602,-3.4623,-3.4602,-3.4602,-3.4602,-3.4602,-3.4602,-3.4623,-3.4687,-3.4811,-3.4964,-3.5108,-3.535,-3.5547,-3.5651,-3.5654,-3.5684,-3.5704,-3.5704,-3.5704,-3.5704,-3.5673,-3.5612,-3.562,-3.5547,-3.5468,-3.5345,-3.5138,-3.4982,-3.4851,-3.4649,-3.4854,-3.5791,-3.5142,-3.4251,-3.3883,-3.3864,-3.3156,-4.5277,-4.5277,-4.5277,-4.5277,-4.5277,-4.5297,-4.4791,-4.3912,-4.2648,-4.0937,-3.9026,-3.8921,-3.8822,-3.867,-3.7973,-3.7588,-3.7441,-3.6762,-3.6009,0.0,-3.5045,-3.4623,-3.3972,-3.3844,-3.3807,-3.3807,-3.3807,-3.3807,-3.3807,-3.3807,-3.3807,-3.3807,-3.3807,-3.3788,-3.3807,-3.3834,-3.3889,-3.4017,-3.4669,-3.4935,-3.4825,-3.4825,-3.4899,-3.4935,-3.3618,-3.2852,-3.2816,-3.217,-3.1727,-3.1634,-3.2373,-3.2798,-3.2835,-3.3684,-3.4178,-3.4142,-3.4582,-3.4761,-3.4623,-3.4904,-3.5021,-3.4945,-3.4849,-3.4905,-3.5058,-3.4983,-3.4887,-3.4829,-3.4768,-3.4727,-3.4708,-3.4666,-3.4645,-3.4623,-3.4604,-3.4623,-3.4602,-3.4602,-3.4602,-3.4602,-3.4602,-3.4602,-3.4602,-3.4602,-3.4623,-3.4687,-3.4771,-3.4908,-3.5176,-3.5403,-3.5509,-3.5608,-3.5631,-3.5643,-3.5673,-3.5704,-3.5704,-3.5704,-3.5704,-3.5673,-3.5673,-3.5628,-3.5534,-3.5411,-3.5219,-3.5035,-3.4927,-3.473,-3.4674,-3.4847,-3.4493,-3.3827,-3.2284,-3.208,-3.1861,-4.5277,-4.5277,-4.5277,-4.5277,-4.5277,-4.5277,-4.4734,-4.3779,-4.3218,-4.1813,-3.9891,-3.9268,-3.8921,-3.8707,-3.7886,-3.7298,-3.6798,-3.5973,-3.5147,-3.4394,-3.4339,-3.4156,-3.3844,-3.3807,-3.3807,-3.3807,-3.3807,-3.3807,-3.3807,-3.3807,-3.3568,-3.3146,-3.2724,-3.2485,-3.2522,-3.2944,-3.3146,-3.3164,-3.3954,-3.4357,-3.4357,-3.4357,-3.4376,-3.443,-3.3676,-3.3309,-3.3316,-3.2959,-3.275,-3.2732,-3.3054,-3.323,-3.3248,-3.3632,-3.3868,-3.3998,-3.4197,-3.4409,-3.4602,-3.4791,-3.4908,-3.4907,-3.4868,-3.4848,-3.4788,-3.4827,-3.4829,-3.4788,-3.4747,-3.4706,-3.4706,-3.4645,-3.4602,-3.4602,-3.4602,-3.4602,-3.4602,-3.4602,-3.4602,-3.4602,-3.4602,-3.4602,-3.4602,-3.4602,-3.4623,-3.4645,-3.4749,-3.4908,-3.5091,-3.5229,-3.5354,-3.5515,-3.5584,-3.5608,-3.5662,-3.5662,-3.5673,-3.5704,-3.5704,-3.5704,-3.5704,-3.5639,-3.556,-3.547,-3.5247,-3.5088,-3.4964,-3.473,-3.4539,-3.4427,-3.4316,-3.3515,-3.2317,-3.1556,-3.0854,-4.5277,-4.5277,-4.5277,-4.5277,-4.5277,-4.5277,-4.4832,-4.4129,-4.3852,-4.271,-4.0963,-3.989,-3.9174,-3.873,-3.7779,-3.6959,-3.6211,-3.522,-3.4394,-3.3844,-3.3807,-3.3807,-3.3807,-3.3807,-3.3697,-3.355,-3.3532,-3.3532,-3.3532,-3.3532,-3.333,-3.2816,-3.2045,-3.1751,-3.1953,-3.2559,-3.2871,-3.2908,-3.3495,-3.3807,-3.3807,-3.3807,-3.3807,-3.3807,-3.3807,-3.3807,-3.3807,-3.3707,-3.3698,-3.3698,-3.3633,-3.3605,-3.3605,-3.3689,-3.3734,-3.3895,-3.4099,-3.4335,-3.4583,-3.4771,-3.4869,-3.4868,-3.4849,-3.4788,-3.4706,-3.4708,-3.4749,-3.4747,-3.4706,-3.4666,-3.4666,-3.4645,-3.4602,-3.4602,-3.4602,-3.4602,-3.4602,-3.4602,-3.4602,-3.4602,-3.4602,-3.4602,-3.4602,-3.4602,-3.4623,-3.4645,-3.4727,-3.4829,-3.4946,-3.502,-3.516,-3.533,-3.5476,-3.556,-3.5589,-3.562,-3.5631,-3.5704,-3.5704,-3.5704,-3.5693,-3.5659,-3.5579,-3.5489,-3.5281,-3.5088,-3.4964,-3.473,-3.4423,-3.4143,-3.3897,-3.3547,-3.2507,-3.1429,-3.0429,-4.5277,-4.5277,-4.5258,-4.5277,-4.5258,-4.5258,-4.514,-4.4941,-4.4249,-4.3217,-4.1908,-4.0865,-3.9779,-3.8674,-3.719,-3.6444,-3.6119,-3.4633,-3.388,-3.3807,-3.3807,-3.3807,-3.3807,-3.3807,-3.3421,-3.2852,-3.2797,-3.2871,-3.2852,-3.2779,-3.3054,-3.3513,-3.2889,-3.2779,-3.344,-3.3587,-3.366,-3.3678,-3.377,-3.3807,-3.3807,-3.3807,-3.3807,-3.3807,-3.3807,-3.3807,-3.3788,-3.3771,-3.3698,-3.3698,-3.3615,-3.3605,-3.3605,-3.3671,-3.3753,-3.3895,-3.4099,-3.434,-3.4645,-3.4768,-3.4788,-3.4708,-3.4727,-3.4687,-3.4623,-3.4623,-3.4623,-3.4623,-3.4623,-3.4604,-3.4604,-3.4623,-3.4602,-3.4602,-3.4602,-3.4602,-3.4602,-3.4602,-3.4602,-3.4602,-3.4602,-3.4602,-3.4602,-3.4602,-3.4623,-3.4666,-3.4687,-3.4728,-3.4812,-3.4889,-3.4964,-3.5143,-3.5289,-3.5449,-3.5553,-3.5601,-3.5631,-3.5693,-3.5704,-3.5704,-3.5673,-3.5659,-3.5579,-3.5457,-3.53,-3.5107,-3.4908,-3.4672,-3.422,-3.3579,-3.3227,-3.2841,-3.2042,-3.1188,-3.0355,-4.5277,-4.5239,-4.4743,-4.4532,-4.4532,-4.4532,-4.4796,-4.5135,-4.4827,-4.3779,-4.2313,-4.1675,-4.0261,-3.8163,-3.699,-3.6141,-3.5459,-3.4321,-3.3807,-3.3807,-3.3807,-3.3807,-3.3807,-3.3807,-3.3605,-3.333,-3.3311,-3.3311,-3.3238,-3.2852,-3.2779,-3.2963,-3.2302,-3.2063,-3.2394,-3.2852,-3.3091,-3.3109,-3.3568,-3.3807,-3.3807,-3.3807,-3.3807,-3.3807,-3.3807,-3.3807,-3.3807,-3.3698,-3.3661,-3.3633,-3.3538,-3.3481,-3.3481,-3.3549,-3.3615,-3.3726,-3.3998,-3.4245,-3.4431,-3.4602,-3.4647,-3.4645,-3.4666,-3.4685,-3.4623,-3.4602,-3.4602,-3.4602,-3.4602,-3.4602,-3.4602,-3.4602,-3.4602,-3.4602,-3.4602,-3.4602,-3.4602,-3.4602,-3.4602,-3.4602,-3.4602,-3.4602,-3.4602,-3.4602,-3.4623,-3.4626,-3.4645,-3.4687,-3.473,-3.4751,-3.485,-3.5001,-3.5108,-3.5239,-3.5435,-3.5522,-3.5579,-3.562,-3.5643,-3.5643,-3.5673,-3.5659,-3.5579,-3.547,-3.5281,-3.5107,-3.4908,-3.4239,-3.3615,-3.3015,-3.2478,-3.2065,-3.1266,-3.0857,-3.0299,-4.5144,-4.4857,-4.4265,-4.4017,-4.4036,-4.4265,-4.4683,-4.5137,-4.4965,-4.3923,-4.2408,-4.2001,-4.0246,-3.7716,-3.6795,-3.5956,-3.5009,-3.4174,-3.3807,-3.3807,-3.3807,-3.3807,-3.3807,-3.3807,-3.3678,-3.3495,-3.344,-3.3458,-3.3421,-3.2908,-3.268,-3.2779,-3.2137,-3.1843,-3.21,-3.2669,-3.2944,-3.2999,-3.3532,-3.3697,-3.3468,-3.3431,-3.345,-3.3431,-3.3431,-3.3358,-3.3075,-3.3004,-3.2903,-3.2903,-3.3009,-3.3067,-3.3085,-3.3354,-3.352,-3.3633,-3.3895,-3.4117,-3.4221,-3.4386,-3.4517,-3.4539,-3.4623,-3.4666,-3.4604,-3.4602,-3.4602,-3.4602,-3.4602,-3.4602,-3.4602,-3.4602,-3.4602,-3.4602,-3.4602,-3.4602,-3.4602,-3.4602,-3.4602,-3.4602,-3.4602,-3.4602,-3.4602,-3.4602,-3.4623,-3.4623,-3.4623,-3.4623,-3.4666,-3.4687,-3.4747,-3.4888,-3.4927,-3.5072,-3.532,-3.5441,-3.5495,-3.5591,-3.5608,-3.562,-3.5651,-3.5604,-3.5541,-3.5393,-3.5223,-3.4845,-3.4358,-3.3669,-3.2919,-3.2452,-3.1883,-3.1321,-3.0838,-3.0615,-3.0392,-4.4819,-4.4093,-4.3996,-4.3959,-4.4055,-4.4819,-4.5201,-4.5239,-4.4435,-4.3474,-4.2427,-4.1514,-3.9585,-3.7019,-3.6597,-3.5984,-3.5027,-3.4183,-3.3807,-3.3807,-3.3807,-3.3807,-3.3807,-3.3807,-3.3421,-3.2908,-3.2889,-3.2834,-3.2761,-3.2687,-3.2999,-3.3642,-3.2944,-3.2926,-3.3476,-3.3623,-3.3733,-3.3697,-3.377,-3.3413,-3.27,-3.2609,-3.2609,-3.2517,-3.2554,-3.2216,-3.1524,-3.13,-3.1265,-3.1247,-3.191,-3.2252,-3.2325,-3.3063,-3.353,-3.3671,-3.3815,-3.3939,-3.4023,-3.4197,-3.434,-3.4409,-3.4517,-3.4583,-3.4583,-3.4602,-3.4602,-3.4602,-3.4602,-3.4602,-3.4602,-3.4602,-3.4602,-3.4602,-3.4602,-3.4602,-3.4602,-3.4602,-3.4602,-3.4602,-3.4602,-3.4602,-3.4602,-3.4602,-3.4602,-3.4602,-3.4602,-3.4623,-3.4623,-3.4623,-3.4666,-3.4727,-3.479,-3.4927,-3.5304,-3.5364,-3.5441,-3.5522,-3.5547,-3.5572,-3.5534,-3.5495,-3.5412,-3.5324,-3.5176,-3.4679,-3.3827,-3.3025,-3.2259,-3.1669,-3.1009,-3.0485,-3.0336,-3.0522,-3.0336,-4.3654,-4.2469,-4.3004,-4.3233,-4.3329,-4.4131,-4.4781,-4.5182,-4.438,-4.3479,-4.2441,-4.1016,-3.9135,-3.7042,-3.6236,-3.5295,-3.4355,-3.3997,-3.386,-3.3807,-3.3807,-3.3807,-3.3807,-3.3807,-3.3678,-3.3421,-3.3385,-3.3366,-3.3366,-3.3366,-3.3513,-3.3715,-3.3532,-3.3532,-3.377,-3.3807,-3.3807,-3.3807,-3.378,-3.3323,-3.2546,-3.2464,-3.1954,-3.0935,-3.137,-3.1524,-3.1206,-3.1128,-3.1101,-3.1101,-3.1329,-3.1673,-3.2198,-3.2987,-3.3452,-3.3491,-3.3605,-3.3671,-3.3753,-3.3939,-3.4099,-3.4197,-3.4381,-3.4495,-3.4517,-3.4561,-3.4602,-3.4602,-3.4602,-3.4602,-3.4602,-3.4602,-3.4602,-3.4602,-3.4602,-3.4602,-3.4602,-3.4602,-3.4602,-3.4602,-3.4602,-3.4602,-3.4602,-3.4602,-3.4602,-3.4602,-3.4602,-3.4602,-3.4602,-3.4602,-3.4604,-3.4666,-3.4728,-3.483,-3.5072,-3.5155,-3.5235,-3.5364,-3.5422,-3.5443,-3.543,-3.5374,-3.53,-3.5242,-3.5108,-3.4756,-3.3915,-3.2807,-3.1968,-3.0807,-3.0188,-3.0206,-2.9834,-3.0057,-3.0002,-4.2545,-4.1686,-4.2125,-4.2545,-4.2889,-4.3654,-4.4494,-4.5144,-4.438,-4.3345,-4.2119,-4.0585,-3.8745,-3.6889,-3.5909,-3.4977,-3.4002,-3.3895,-3.3868,-3.3807,-3.3807,-3.3807,-3.3807,-3.3807,-3.3807,-3.3807,-3.3807,-3.3807,-3.3807,-3.3807,-3.3807,-3.3807,-3.3807,-3.3807,-3.3807,-3.3807,-3.3807,-3.3807,-3.3726,-3.3204,-3.2245,-3.2027,-3.1182,-2.9831,-3.0064,-3.0363,-3.0363,-3.0311,-3.0285,-3.0303,-3.0486,-3.1093,-3.2107,-3.2723,-3.314,-3.3357,-3.3452,-3.3509,-3.3577,-3.3744,-3.3868,-3.4023,-3.4197,-3.434,-3.445,-3.4517,-3.4561,-3.4602,-3.4602,-3.4602,-3.4602,-3.4602,-3.4602,-3.4602,-3.4602,-3.4602,-3.4602,-3.4602,-3.4602,-3.4602,-3.4602,-3.4602,-3.4602,-3.4602,-3.4602,-3.4602,-3.4602,-3.4602,-3.4602,-3.4602,-3.4623,-3.4685,-3.4647,-3.4728,-3.4737,-3.466,-3.4897,-3.5051,-3.504,-3.5124,-3.5085,-3.5097,-3.5054,-3.5083,-3.4906,-3.4622,-3.3872,-3.272,-3.157,-3.0336,-3.0132,-3.0262,-2.9927,-2.9611,-2.9611,-4.1533,-4.1437,-4.1514,-4.2011,-4.2775,-4.3634,-4.4494,-4.4991,-4.4303,-4.2981,-4.1508,-4.026,-3.8231,-3.6242,-3.5628,-3.5027,-3.4264,-3.4068,-3.3942,-3.3807,-3.3807,-3.3807,-3.3807,-3.3807,-3.3807,-3.3807,-3.3807,-3.3807,-3.3807,-3.3807,-3.3807,-3.3807,-3.3807,-3.3807,-3.3807,-3.3807,-3.3807,-3.378,-3.3726,-3.2903,-3.1443,-3.1237,-3.0412,-2.8902,-2.8775,-2.8811,-2.8739,-2.8739,-2.883,-2.8848,-2.9409,-3.0532,-3.1745,-3.2125,-3.2506,-3.3067,-3.3284,-3.3332,-3.3364,-3.3377,-3.3405,-3.3629,-3.3931,-3.4067,-3.4172,-3.4319,-3.4386,-3.443,-3.447,-3.4526,-3.4489,-3.447,-3.4508,-3.4602,-3.4602,-3.4602,-3.4602,-3.4564,-3.4564,-3.4489,-3.4395,-3.4526,-3.4526,-3.4433,-3.4414,-3.4414,-3.4433,-3.4433,-3.4358,-3.4264,-3.4433,-3.4414,-3.4191,-3.4047,-3.4086,-3.4127,-3.4452,-3.4689,-3.4628,-3.4587,-3.4435,-3.4382,-3.4255,-3.4242,-3.4093,-3.3782,-3.2981,-3.1983,-3.1846,-3.0968,-3.0782,-3.0411,-3.0188,-2.9909,-2.9518,-4.1189,-4.0769,-4.1285,-4.1648,-4.2087,-4.3405,-4.4188,-4.4303,-4.3539,-4.2487,-4.1167,-3.9123,-3.7289,-3.5964,-3.5123,-3.481,-3.4884,-3.4823,-3.4448,-3.3935,-3.3825,-3.3844,-3.3825,-3.3825,-3.3807,-3.3807,-3.3807,-3.3807,-3.3807,-3.3807,-3.3807,-3.3807,-3.3807,-3.3807,-3.3807,-3.3807,-3.3762,-3.3726,-3.3689,-3.2803,-3.1291,-3.1066,-3.0251,-2.8811,-2.8587,-2.8587,-2.8587,-2.8587,-2.8587,-2.8587,-2.8848,-2.9463,-3.0405,-3.1057,-3.1455,-3.1691,-3.1745,-3.1745,-3.1773,-3.1856,-3.2001,-3.2169,-3.2709,-3.3161,-3.3343,-3.3519,-3.3627,-3.3693,-3.3754,-3.3776,-3.3776,-3.3776,-3.3963,-3.4526,-3.4602,-3.4508,-3.4395,-3.4076,-3.3813,-3.37,-3.3269,-3.2931,-3.3025,-3.3306,-3.3757,-3.3757,-3.3776,-3.3776,-3.37,-3.3325,-3.2912,-3.2874,-3.2893,-3.3139,-3.3142,-3.3049,-3.311,-3.3429,-3.3578,-3.3766,-3.3672,-3.358,-3.3469,-3.3355,-3.3219,-3.2852,-3.203,-3.1719,-3.1715,-3.134,-3.0838,-3.0615,-3.0522,-3.015,-2.9611,-4.0769,-4.0387,-4.0845,-4.1227,-4.159,-4.2679,-4.3463,-4.3825,-4.3157,-4.2086,-4.0651,-3.9102,-3.7341,-3.5968,-3.5347,-3.541,-3.5688,-3.5662,-3.5294,-3.4706,-3.4339,-3.4266,-3.4192,-3.3917,-3.3807,-3.3807,-3.3807,-3.3807,-3.3807,-3.3807,-3.3807,-3.3807,-3.3807,-3.3807,-3.3807,-3.378,-3.3753,-3.3716,-3.3587,-3.2911,-3.1747,-3.1184,-3.0369,-2.921,-2.875,-2.8605,-2.8587,-2.8587,-2.8587,-2.8587,-2.8587,-2.8993,-2.9761,-3.0323,-3.0704,-3.0948,-3.1003,-3.1021,-3.1003,-3.113,-3.1074,-3.1289,-3.1785,-3.2219,-3.2366,-3.2544,-3.2657,-3.2786,-3.2868,-3.2929,-3.2931,-3.2931,-3.3175,-3.3588,-3.3607,-3.3663,-3.3588,-3.3231,-3.2949,-3.2818,-3.248,-3.2161,-3.2255,-3.248,-3.2931,-3.2912,-3.2931,-3.2931,-3.2818,-3.2461,-3.2198,-3.2067,-3.2292,-3.2388,-3.2238,-3.2051,-3.1788,-3.2034,-3.2298,-3.2599,-3.2768,-3.2713,-3.2617,-3.2557,-3.2433,-3.2409,-3.1756,-3.2035,-3.2087,-3.1492,-3.0953,-3.1067,-3.0956,-3.0002,-2.9463,-4.0329,-4.0329,-4.0329,-4.075,-4.1342,-4.1571,-4.2431,-4.352,-4.3004,-4.1683,-4.0245,-3.9567,-3.8098,-3.6278,-3.621,-3.6424,-3.65,-3.6454,-3.6489,-3.6203,-3.5679,-3.521,-3.5037,-3.4376,-3.4119,-3.4156,-3.4137,-3.4027,-3.4027,-3.4009,-3.3844,-3.3807,-3.3807,-3.3807,-3.3807,-3.3726,-3.3698,-3.3671,-3.3577,-3.3055,-3.2219,-3.1438,-3.0586,-2.9735,-2.8993,-2.8587,-2.8587,-2.8587,-2.8587,-2.8587,-2.8587,-2.892,-2.9536,-2.9743,-3.0043,-3.0604,-3.0822,-3.0713,-3.0785,-3.0613,-3.0676,-3.0693,-3.0961,-3.121,-3.1403,-3.1552,-3.1708,-3.1859,-3.1942,-3.2004,-3.2008,-3.1989,-3.2028,-3.1973,-3.2236,-3.233,-3.2161,-3.2142,-3.2048,-3.2011,-3.2011,-3.1917,-3.1748,-3.1898,-3.2029,-3.2048,-3.2048,-3.2048,-3.1973,-3.1842,-3.1898,-3.1767,-3.1504,-3.1448,-3.1242,-3.111,-3.0885,-3.096,-3.1186,-3.1412,-3.1675,-3.1637,-3.152,-3.1474,-3.16,-3.161,-3.1644,-3.1678,-3.1771,-3.1377,-3.125,-3.1536,-3.1052,-3.0041,-2.9463,-4.0329,-4.0329,-4.0329,-4.0425,-4.0711,-4.1227,-4.1705,-4.2106,-4.1914,-4.1089,-3.9994,-3.912,-3.8023,-3.6659,-3.6578,-3.6777,-3.7172,-3.7224,-3.7581,-3.7863,-3.7221,-3.6505,-3.5899,-3.5128,-3.5018,-3.5477,-3.5459,-3.5312,-3.4715,-3.4633,-3.4357,-3.3825,-3.3807,-3.3807,-3.3807,-3.3744,-3.3689,-3.3633,-3.3549,-3.3099,-3.2262,-3.1447,-3.0631,-2.9826,-2.9029,-2.8623,-2.8587,-2.8587,-2.8587,-2.8587,-2.8587,-2.8685,-2.8938,-2.8974,-2.9119,-2.93,-2.9318,-2.9282,-2.93,-2.93,-2.9282,-2.9326,-2.993,-3.0261,-3.038,-3.0557,-3.0692,-3.0806,-3.0913,-3.0996,-3.0998,-3.104,-3.0839,-3.0526,-3.1259,-3.1954,-3.1898,-3.1579,-3.1222,-3.1185,-3.0734,-3.0527,-3.0584,-3.0903,-3.1203,-3.1222,-3.1222,-3.1203,-3.1166,-3.0847,-3.0734,-3.0452,-3.0227,-3.0265,-3.0227,-3.0114,-3.0021,-3.0039,-3.0133,-3.0227,-3.0359,-3.0339,-3.0167,-3.0031,-3.0365,-3.0472,-3.0525,-3.0599,-3.0708,-3.095,-3.1009,-3.0956,-3.0674,-2.9965,-2.9556,-4.0329,-4.0329,-4.0329,-4.0329,-4.0348,-4.0807,-4.117,-4.1341,-4.0996,-4.0513,-3.9813,-3.9199,-3.8284,-3.7314,-3.7461,-3.769,-3.8044,-3.8021,-3.8248,-3.845,-3.7808,-3.7019,-3.6321,-3.5734,-3.5826,-3.6229,-3.6303,-3.5789,-3.5119,-3.499,-3.4578,-3.3954,-3.3807,-3.3807,-3.3807,-3.3716,-3.3661,-3.3577,-3.3491,-3.3169,-3.2687,-3.1564,-3.0876,-3.0115,-2.9282,-2.8587,-2.8587,-2.8587,-2.8587,-2.8587,-2.8587,-2.8587,-2.8587,-2.8587,-2.8587,-2.8587,-2.8587,-2.8605,-2.8587,-2.8587,-2.8587,-2.8685,-2.9127,-2.9323,-2.946,-2.9582,-2.9719,-2.9835,-2.9902,-2.9968,-2.9993,-3.0057,-2.9917,-2.9831,-3.047,-3.1052,-3.1091,-3.0659,-3.0452,-3.0283,-3.0021,-2.9701,-2.9701,-3.0152,-3.0321,-3.0396,-3.0396,-3.0396,-3.0359,-2.9927,-2.9701,-2.9701,-2.9701,-2.987,-2.9945,-2.987,-2.9833,-2.9758,-2.9739,-2.9701,-2.9626,-2.9607,-2.9567,-2.9524,-2.9448,-2.9446,-2.9725,-2.989,-2.9965,-3.0169,-3.0302,-3.0265,-3.0002,-2.9946,-2.9556,-4.0329,-4.0329,-4.0329,-4.0329,-4.0329,-4.0348,-4.0673,-4.1035,-4.0459,-3.9992,-3.9698,-3.9551,-3.8831,-3.7961,-3.8385,-3.8748,-3.8652,-3.8579,-3.8634,-3.8505,-3.801,-3.7367,-3.689,-3.656,-3.6578,-3.6743,-3.6597,-3.6083,-3.5532,-3.5238,-3.4651,-3.4027,-3.3807,-3.3807,-3.378,-3.3671,-3.3605,-3.3577,-3.3481,-3.3375,-3.3031,-3.1981,-3.1184,-3.0677,-2.9337,-2.8641,-2.8587,-2.8587,-2.8587,-2.8587,-2.8587,-2.8587,-2.8587,-2.8587,-2.8587,-2.8587,-2.8587,-2.8587,-2.8587,-2.8587,-2.8587,-2.8623,-2.8605,-2.8612,-2.8778,-2.8931,-2.9004,-2.9122,-2.904,-2.9181,-2.923,-2.9265,-2.9407,-2.947,-2.9624,-2.9626,-2.9664,-2.9701,-2.9701,-2.9701,-2.9701,-2.9701,-2.9701,-2.9701,-2.972,-3.0021,-2.9964,-2.9983,-3.0002,-2.9814,-2.9701,-2.9701,-2.9701,-2.9701,-2.972,-2.972,-2.972,-2.9701,-2.9702,-2.9664,-2.9569,-2.9531,-2.949,-2.9429,-2.939,-2.939,-2.9444,-2.9518,-2.9537,-2.9574,-2.9797,-2.9649,-2.9444,-2.9574,-2.9388,-4.0329,-4.0329,-4.0329,-4.0329,-4.0329,-4.0329,-4.0368,-4.0424,-4.0112,-3.9848,-3.9689,-3.9401,-3.9072,-3.8719,-3.877,-3.8762,-3.8689,-3.8707,-3.8707,-3.867,-3.8579,-3.8377,-3.7991,-3.7533,-3.7569,-3.7918,-3.8157,-3.7386,-3.634,-3.5807,-3.5238,-3.3972,-3.3807,-3.3807,-3.378,-3.3671,-3.3605,-3.3577,-3.3481,-3.3393,-3.3248,-3.2433,-3.1546,-3.0876,-2.9427,-2.8659,-2.8587,-2.8587,-2.8587,-2.8587,-2.8587,-2.8587,-2.8587,-2.8587,-2.8587,-2.8587,-2.8587,-2.8587,-2.8587,-2.8587,-2.8587,-2.8587,-2.8587,-2.8587,-2.8612,-2.8687,-2.8718,-2.8767,-2.8815,-2.8905,-2.8938,-2.9089,-2.92,-2.9307,-2.9411,-2.9472,-2.9589,-2.9645,-2.9701,-2.9701,-2.9701,-2.9701,-2.9701,-2.9701,-2.9701,-2.9701,-2.9701,-2.9701,-2.9701,-2.9701,-2.9701,-2.9701,-2.9701,-2.9701,-2.9701,-2.9683,-2.9683,-2.9645,-2.9645,-2.9607,-2.9531,-2.9491,-2.9451,-2.9429,-2.9388,-2.9388,-2.9388,-2.9407,-2.9463,-2.9407,-2.9388,-2.9388,-2.9388,-2.9388,-2.9388,-4.0329,-4.0329,-4.0329,-4.0329,-4.0329,-4.0311,-4.0234,-4.0098,-3.9933,-3.9717,-3.9483,-3.9245,-3.9045,-3.8892,-3.8851,-3.8762,-3.8738,-3.8707,-3.8707,-3.8707,-3.8689,-3.8689,-3.867,-3.834,-3.8322,-3.867,-3.867,-3.779,-3.6688,-3.6138,-3.5404,-3.3935,-3.3807,-3.3762,-3.3734,-3.3643,-3.3577,-3.3538,-3.3452,-3.3393,-3.3266,-3.2614,-3.1546,-3.0496,-2.9282,-2.8587,-2.8587,-2.8587,-2.8587,-2.8587,-2.8587,-2.8587,-2.8587,-2.8587,-2.8587,-2.8587,-2.8587,-2.8587,-2.8587,-2.8587,-2.8587,-2.8587,-2.8587,-2.8587,-2.8612,-2.8619,-2.8662,-2.8662,-2.8687,-2.8737,-2.881,-2.8863,-2.9003,-2.9134,-2.9243,-2.9351,-2.9453,-2.9569,-2.9664,-2.9701,-2.9701,-2.9701,-2.9701,-2.9664,-2.9683,-2.9664,-2.9701,-2.9701,-2.9701,-2.9701,-2.9701,-2.9701,-2.9701,-2.9701,-2.9701,-2.9683,-2.9645,-2.9626,-2.9569,-2.9531,-2.9453,-2.9433,-2.9433,-2.9411,-2.9388,-2.9388,-2.9388,-2.9388,-2.9388,-2.9388,-2.9388,-2.9388,-2.9388,-2.9388,-2.9388,-4.0329,-4.0329,-4.0329,-4.0329,-4.031,-4.0291,-4.0176,-3.9996,-3.9826,-3.9599,-3.9324,-3.9156,-3.8979,-3.8851,-3.8792,-3.875,-3.8689,-3.8707,-3.8707,-3.8707,-3.8707,-3.8707,-3.867,-3.8634,-3.8487,-3.856,-3.8432,-3.7569,-3.6615,-3.6064,-3.5183,-3.4027,-3.3807,-3.3753,-3.3698,-3.3615,-3.3549,-3.3509,-3.3452,-3.3393,-3.3339,-3.2741,-3.1727,-3.0314,-2.9156,-2.8623,-2.8587,-2.8587,-2.8587,-2.8587,-2.8587,-2.8587,-2.8587,-2.8587,-2.8587,-2.8587,-2.8587,-2.8587,-2.8587,-2.8587,-2.8587,-2.8587,-2.8587,-2.8587,-2.8612,-2.8612,-2.8612,-2.8612,-2.8612,-2.8637,-2.8687,-2.8743,-2.8839,-2.8975,-2.9089,-2.92,-2.9291,-2.9433,-2.9549,-2.9664,-2.9683,-2.9664,-2.9645,-2.9645,-2.9664,-2.9664,-2.9664,-2.9701,-2.9683,-2.9701,-2.9701,-2.9701,-2.9701,-2.9664,-2.9645,-2.9626,-2.9588,-2.9569,-2.9512,-2.9472,-2.9412,-2.9412,-2.9411,-2.9409,-2.9388,-2.9388,-2.9388,-2.9388,-2.9388,-2.9388,-2.9388,-2.9388,-2.9388,-2.9388,-2.9388,-4.0329,-4.0329,-4.0329,-4.0329,-4.0291,-4.0253,-4.0137,-3.9975,-3.9717,-3.9502,-3.9272,-3.9064,-3.8892,-3.8792,-3.875,-3.867,-3.8615,-3.856,-3.856,-3.8524,-3.8505,-3.8487,-3.8432,-3.8377,-3.8212,-3.7826,-3.7588,-3.7019,-3.6248,-3.555,-3.4789,-3.399,-3.3753,-3.3698,-3.3661,-3.3577,-3.352,-3.3481,-3.3404,-3.3393,-3.3321,-3.294,-3.2216,-3.0659,-2.9355,-2.8677,-2.8587,-2.8587,-2.8587,-2.8587,-2.8587,-2.8587,-2.8587,-2.8587,-2.8587,-2.8587,-2.8587,-2.8587,-2.8587,-2.8587,-2.8587,-2.8587,-2.8587,-2.8587,-2.8587,-2.8587,-2.8587,-2.8587,-2.8587,-2.8612,-2.8612,-2.8687,-2.8737,-2.8834,-2.8929,-2.9021,-2.916,-2.9265,-2.937,-2.953,-2.9569,-2.9607,-2.9569,-2.955,-2.9531,-2.955,-2.9569,-2.9607,-2.9626,-2.9664,-2.9701,-2.9701,-2.9701,-2.9645,-2.9626,-2.955,-2.9512,-2.9511,-2.9472,-2.9433,-2.9392,-2.939,-2.9388,-2.9388,-2.9388,-2.9388,-2.9388,-2.9388,-2.9388,-2.9388,-2.9388,-2.9388,-2.9388,-2.9388,-2.9388,-4.0329,-4.0329,-4.0329,-4.0272,-4.0234,-4.0176,-4.0017,-3.9826,-3.9623,-3.942,-3.9156,-3.8979,-3.8851,-3.878,-3.8719,-3.8505,-3.8157,-3.8065,-3.7845,-3.7588,-3.7459,-3.7459,-3.7514,-3.7496,-3.7257,-3.6817,-3.645,-3.6101,-3.5624,-3.5229,-3.4513,-3.3936,-3.3698,-3.3671,-3.3605,-3.352,-3.3462,-3.3452,-3.3422,-3.3393,-3.3248,-3.2741,-3.1655,-3.0858,-2.9536,-2.8677,-2.8587,-2.8587,-2.8587,-2.8587,-2.8587,-2.8587,-2.8587,-2.8587,-2.8587,-2.8587,-2.8587,-2.8587,-2.8587,-2.8587,-2.8587,-2.8587,-2.8587,-2.8587,-2.8587,-2.8587,-2.8587,-2.8587,-2.8587,-2.8587,-2.8612,-2.8637,-2.8662,-2.8687,-2.8743,-2.8858,-2.8975,-2.9044,-2.92,-2.9349,-2.9372,-2.9412,-2.9414,-2.9414,-2.9394,-2.9433,-2.9453,-2.9491,-2.9549,-2.9588,-2.9626,-2.9683,-2.9683,-2.9626,-2.955,-2.9511,-2.9453,-2.9433,-2.9433,-2.9392,-2.939,-2.9388,-2.9388,-2.9388,-2.9388,-2.9388,-2.9388,-2.9388,-2.9388,-2.9388,-2.9388,-2.9388,-2.9388,-2.9388,-2.9388,-4.0329,-4.0329,-4.0329,-4.0253,-4.0196,-4.0117,-3.9933,-3.9693,-3.9508,-3.9272,-3.9007,-3.8892,-3.8711,-3.8444,-3.8175,-3.7826,-3.7257,-3.7287,-3.6927,-3.6578,-3.6468,-3.6358,-3.6321,-3.6266,-3.6285,-3.5973,-3.5522,-3.5009,-3.5045,-3.477,-3.4321,-3.3881,-3.3671,-3.3615,-3.352,-3.3462,-3.3452,-3.3422,-3.3393,-3.3393,-3.3013,-3.1908,-3.1003,-3.084,-2.9463,-2.8587,-2.8587,-2.8587,-2.8587,-2.8587,-2.8587,-2.8587,-2.8587,-2.8587,-2.8587,-2.8587,-2.8587,-2.8587,-2.8587,-2.8587,-2.8587,-2.8587,-2.8587,-2.8587,-2.8587,-2.8587,-2.8587,-2.8587,-2.8587,-2.8587,-2.8587,-2.8587,-2.8612,-2.8612,-2.8662,-2.8712,-2.881,-2.8881,-2.8934,-2.9071,-2.9144,-2.9206,-2.9228,-2.9228,-2.9225,-2.9246,-2.9286,-2.9349,-2.939,-2.9491,-2.955,-2.9626,-2.9645,-2.9588,-2.9511,-2.9471,-2.9431,-2.9411,-2.9411,-2.939,-2.9388,-2.9388,-2.9388,-2.9388,-2.9388,-2.9388,-2.9388,-2.9388,-2.9388,-2.9388,-2.9388,-2.9388,-2.9388,-2.9407,-2.9386,-4.0329,-4.0329,-4.0329,-4.0253,-4.0176,-3.9996,-3.9848,-3.9651,-3.9376,-3.9156,-3.8979,-3.8789,-3.8302,-3.7672,-3.6964,-3.6615,-3.645,-3.6413,-3.6266,-3.5973,-3.6009,-3.6009,-3.6174,-3.6285,-3.5632,-3.521,-3.4944,-3.4962,-3.4742,-3.422,-3.3881,-3.3689,-3.3577,-3.3491,-3.3491,-3.3452,-3.3411,-3.3393,-3.3393,-3.3375,-3.3067,-3.1781,-3.1111,-3.0514,-2.9536,-2.8587,-2.8587,-2.8587,-2.8587,-2.8587,-2.8587,-2.8587,-2.8587,-2.8587,-2.8587,-2.8587,-2.8587,-2.8587,-2.8587,-2.8587,-2.8587,-2.8587,-2.8587,-2.8587,-2.8587,-2.8587,-2.8587,-2.8587,-2.8587,-2.8587,-2.8587,-2.8587,-2.8587,-2.8587,-2.8612,-2.8662,-2.8712,-2.8737,-2.881,-2.8815,-2.8915,-2.9003,-2.9067,-2.9044,-2.904,-2.9062,-2.9089,-2.9156,-2.9265,-2.9372,-2.9511,-2.9588,-2.9588,-2.9511,-2.9491,-2.9431,-2.9411,-2.939,-2.9388,-2.9388,-2.9388,-2.9388,-2.9388,-2.9388,-2.9388,-2.9388,-2.9388,-2.9388,-2.9388,-2.9388,-2.9388,-2.9388,-2.9388,-2.9386,-2.9365,-3.9393,-4.031,-4.0329,-4.0215,-4.0058,-3.9933,-3.9693,-3.9477,-3.9264,-3.9045,-3.8799,-3.8306,-3.764,-3.6846,-3.6413,-3.6046,-3.5697,-3.5569,-3.5275,-3.5,-3.4963,-3.4945,-3.4835,-3.4844,-3.4522,-3.4458,-3.4201,-3.4118,-3.4054,-3.3917,-3.3633,-3.3577,-3.352,-3.3462,-3.3452,-3.3422,-3.3393,-3.3393,-3.3357,-3.3158,-3.256,-3.1655,-3.0785,-3.0341,-2.921,-2.8696,-2.8587,-2.8587,-2.8587,-2.8587,-2.8587,-2.8587,-2.8587,-2.8587,-2.8587,-2.8587,-2.8587,-2.8587,-2.8587,-2.8587,-2.8587,-2.8587,-2.8587,-2.8587,-2.8587,-2.8587,-2.8587,-2.8587,-2.8587,-2.8587,-2.8587,-2.8587,-2.8587,-2.8587,-2.8587,-2.8612,-2.8637,-2.8637,-2.8662,-2.8687,-2.8687,-2.881,-2.8881,-2.8881,-2.8881,-2.8905,-2.8952,-2.9044,-2.9178,-2.931,-2.9433,-2.955,-2.9511,-2.9451,-2.9431,-2.9429,-2.9409,-2.9388,-2.9388,-2.9388,-2.9388,-2.9388,-2.9368,-2.9368,-2.9407,-2.9388,-2.9388,-2.9388,-2.9388,-2.9388,-2.9388,-2.9388,-2.9388,-2.9344,-2.9302,-3.8476,-3.9642,-3.9661,-3.9547,-3.9369,-3.9221,-3.8936,-3.8707,-3.8459,-3.8321,-3.7993,-3.729,-3.6544,-3.5991,-3.5679,-3.5202,-3.4724,-3.4706,-3.433,-3.3927,-3.3762,-3.3844,-3.3927,-3.3808,-3.378,-3.3689,-3.3733,-3.3686,-3.365,-3.3567,-3.3538,-3.3509,-3.3462,-3.3433,-3.3422,-3.3393,-3.3393,-3.3393,-3.3393,-3.2995,-3.227,-3.1437,-3.0604,-2.9826,-2.9101,-2.8587,-2.8587,-2.8587,-2.8587,-2.8587,-2.8587,-2.8587,-2.8587,-2.8587,-2.8587,-2.8587,-2.8587,-2.8587,-2.8587,-2.8587,-2.8587,-2.8587,-2.8587,-2.8587,-2.8587,-2.8587,-2.8587,-2.8587,-2.8587,-2.8587,-2.8587,-2.8587,-2.8587,-2.8587,-2.8587,-2.8587,-2.8587,-2.8612,-2.8612,-2.8637,-2.8637,-2.8612,-2.8687,-2.8712,-2.8737,-2.8737,-2.881,-2.8905,-2.9026,-2.9203,-2.9291,-2.9412,-2.9375,-2.9334,-2.9373,-2.9372,-2.937,-2.9275,-2.9275,-2.933,-2.9291,-2.9328,-2.9365,-2.9365,-2.9365,-2.9326,-2.9304,-2.9347,-2.9388,-2.9388,-2.9388,-2.9388,-2.9368,-2.9286,-2.9156,-3.775,-3.7865,-3.7868,-3.7833,-3.7754,-3.7395,-3.7249,-3.7219,-3.6904,-3.6777,-3.6536,-3.5707,-3.5349,-3.4954,-3.4541,-3.4174,-3.3935,-3.388,-3.3853,-3.3762,-3.368,-3.3689,-3.3643,-3.3615,-3.3605,-3.3605,-3.3549,-3.3491,-3.3491,-3.3452,-3.3481,-3.3462,-3.3452,-3.3422,-3.3393,-3.3393,-3.3393,-3.3393,-3.3393,-3.2904,-3.2144,-3.1347,-3.0568,-2.9753,-2.9047,-2.8587,-2.8587,-2.8587,-2.8587,-2.8587,-2.8587,-2.8587,-2.8587,-2.8587,-2.8587,-2.8587,-2.8587,-2.8587,-2.8587,-2.8587,-2.8587,-2.8587,-2.8587,-2.8587,-2.8587,-2.8587,-2.8587,-2.8587,-2.8587,-2.8587,-2.8587,-2.8587,-2.8587,-2.8587,-2.8587,-2.8587,-2.8587,-2.8587,-2.8612,-2.8587,-2.8587,-2.8587,-2.8587,-2.8612,-2.8637,-2.8637,-2.8687,-2.8761,-2.8881,-2.9026,-2.9141,-2.9209,-2.9193,-2.9214,-2.9279,-2.9128,-2.8697,-2.8713,-2.8806,-2.901,-2.9138,-2.9212,-2.9283,-2.9283,-2.9262,-2.924,-2.9148,-2.9005,-2.901,-2.9275,-2.9256,-2.8769,-2.8725,-2.8695,-2.8672,-3.6167,-3.6152,-3.6062,-3.6559,-3.7389,-3.7181,-3.6972,-3.6738,-3.6572,-3.6095,-3.5523,-3.5147,-3.4715,-3.4284,-3.4045,-3.3807,-3.3807,-3.3807,-3.3753,-3.3726,-3.3698,-3.3661,-3.3615,-3.3549,-3.3538,-3.352,-3.3481,-3.3452,-3.3422,-3.3393,-3.3411,-3.3422,-3.3393,-3.3393,-3.3393,-3.3393,-3.3375,-3.3357,-3.3248,-3.2795,-3.16,-3.1166,-3.0387,-2.9119,-2.8902,-2.8587,-2.8587,-2.8587,-2.8587,-2.8587,-2.8587,-2.8587,-2.8587,-2.8587,-2.8587,-2.8587,-2.8587,-2.8587,-2.8587,-2.8587,-2.8587,-2.8587,-2.8587,-2.8587,-2.8587,-2.8587,-2.8587,-2.8587,-2.8587,-2.8587,-2.8587,-2.8587,-2.8587,-2.8587,-2.8587,-2.8587,-2.8587,-2.8587,-2.8587,-2.8587,-2.8587,-2.8587,-2.8562,-2.8543,-2.8562,-2.8562,-2.8587,-2.8637,-2.8737,-2.8785,-2.8865,-2.8776,-2.8706,-2.8492,-2.8503,-2.8207,-2.7894,-2.8079,-2.8301,-2.8463,-2.8664,-2.9148,-2.9222,-2.92,-2.9008,-2.8784,-2.8599,-2.8495,-2.8463,-2.8484,-2.8112,-2.7571,-2.7672,-2.8011,-2.7958,-3.5176,-3.5164,-3.502,-3.5571,-3.6493,-3.6381,-3.6128,-3.5866,-3.5715,-3.5367,-3.4642,-3.4605,-3.4376,-3.3917,-3.3807,-3.3807,-3.3807,-3.378,-3.3707,-3.3671,-3.3643,-3.3605,-3.3549,-3.3509,-3.3499,-3.3452,-3.3422,-3.3393,-3.3393,-3.3393,-3.3393,-3.3393,-3.3393,-3.3393,-3.3393,-3.3375,-3.3302,-3.3085,-3.2893,-3.2206,-3.0849,-3.0468,-2.9954,-2.8719,-2.8502,-2.8484,-2.8484,-2.8484,-2.851,-2.8536,-2.8562,-2.8569,-2.8587,-2.8587,-2.8587,-2.8587,-2.8587,-2.8587,-2.8587,-2.8587,-2.8587,-2.8587,-2.8587,-2.8587,-2.8587,-2.8587,-2.8587,-2.8587,-2.8587,-2.8587,-2.8587,-2.8587,-2.8587,-2.8587,-2.8587,-2.8587,-2.8587,-2.8587,-2.8587,-2.8587,-2.8587,-2.8587,-2.851,-2.8484,-2.8458,-2.8458,-2.8502,-2.851,-2.8562,-2.8597,-2.8549,-2.837,-2.8109,-2.7824,-2.7518,-2.7303,-2.7142,-2.7274,-2.7474,-2.7748,-2.8021,-2.8504,-2.868,-2.8425,-2.8237,-2.8176,-2.775,-2.7193,-2.7276,-2.7509,-2.708,-2.6688,-2.6779,-2.7055,-2.6964,-3.5176,-3.5164,-3.4983,-3.4907,-3.4994,-3.4611,-3.4442,-3.4414,-3.4223,-3.4089,-3.3972,-3.3935,-3.3917,-3.3807,-3.3807,-3.3807,-3.3807,-3.3753,-3.3671,-3.3615,-3.3577,-3.3509,-3.3452,-3.3422,-3.3422,-3.3393,-3.3393,-3.3393,-3.3393,-3.3393,-3.3393,-3.3364,-3.3334,-3.3364,-3.3393,-3.3375,-3.2977,-3.2361,-3.2238,-3.1199,-3.0215,-2.9745,-2.9169,-2.8515,-2.8255,-2.8255,-2.8327,-2.8353,-2.8406,-2.8484,-2.851,-2.8562,-2.8587,-2.8587,-2.8587,-2.8587,-2.8587,-2.8587,-2.8587,-2.8587,-2.8587,-2.8587,-2.8587,-2.8587,-2.8587,-2.8587,-2.8587,-2.8587,-2.8587,-2.8587,-2.8587,-2.8587,-2.8587,-2.8587,-2.8587,-2.8587,-2.8587,-2.8587,-2.8587,-2.8587,-2.8587,-2.8562,-2.8484,-2.8406,-2.838,-2.8398,-2.8398,-2.8424,-2.8432,-2.8204,-2.8087,-2.7695,-2.7349,-2.6795,-2.6498,-2.6457,-2.641,-2.6523,-2.6573,-2.6728,-2.7013,-2.7415,-2.751,-2.7495,-2.7385,-2.7273,-2.6477,-2.5642,-2.5804,-2.5965,-2.6252,-2.6078,-2.6086,-2.6038,-2.5967,-3.5143,-3.5057,-3.4889,-3.4711,-3.4539,-3.4404,-3.4221,-3.4023,-3.3895,-3.3834,-3.3807,-3.3807,-3.3807,-3.3807,-3.3807,-3.3807,-3.3807,-3.3726,-3.3671,-3.3587,-3.352,-3.3462,-3.3422,-3.3393,-3.3393,-3.3393,-3.3393,-3.3393,-3.3393,-3.3393,-3.3334,-3.3322,-3.3142,-3.3214,-3.3112,-3.2877,-3.2252,-3.2,-3.151,-3.0632,-2.9607,-2.9326,-2.892,-2.8081,-2.8,-2.8045,-2.8136,-2.8164,-2.8255,-2.8388,-2.8458,-2.8536,-2.8587,-2.8587,-2.8587,-2.8587,-2.8587,-2.8587,-2.8587,-2.8587,-2.8587,-2.8587,-2.8587,-2.8587,-2.8587,-2.8587,-2.8587,-2.8587,-2.8587,-2.8587,-2.8587,-2.8587,-2.8587,-2.8587,-2.8587,-2.8587,-2.8587,-2.8587,-2.8587,-2.8587,-2.8587,-2.8456,-2.8342,-2.8281,-2.8246,-2.8139,-2.8103,-2.8237,-2.8282,-2.7717,-2.7381,-2.6889,-2.6453,-2.5816,-2.5416,-2.5343,-2.515,-2.5041,-2.5234,-2.5479,-2.5855,-2.6362,-2.6483,-2.6531,-2.6435,-2.6291,-2.5445,-2.4734,-2.4351,-2.4361,-2.4793,-2.4924,-2.471,-2.479,-2.4935,-3.5107,-3.5001,-3.4831,-3.4609,-3.4409,-3.4269,-3.4124,-3.3965,-3.3834,-3.3807,-3.3807,-3.3807,-3.3807,-3.3807,-3.3807,-3.3762,-3.3762,-3.3698,-3.3615,-3.3577,-3.3509,-3.3452,-3.3393,-3.3393,-3.3393,-3.3393,-3.3393,-3.3393,-3.3334,-3.3334,-3.3274,-3.3068,-3.2711,-3.2451,-3.2353,-3.2049,-3.1536,-3.1058,-3.0255,-2.9668,-2.8976,-2.8623,-2.8376,-2.7883,-2.7713,-2.7713,-2.7864,-2.7996,-2.8091,-2.8273,-2.8406,-2.8484,-2.8536,-2.8562,-2.8536,-2.851,-2.8484,-2.851,-2.8543,-2.8562,-2.8562,-2.8587,-2.8587,-2.8587,-2.8587,-2.8587,-2.8587,-2.8587,-2.8587,-2.8587,-2.8587,-2.8587,-2.8587,-2.8587,-2.8587,-2.8587,-2.8562,-2.8562,-2.8536,-2.8562,-2.8464,-2.8314,-2.8092,-2.8157,-2.8121,-2.796,-2.7817,-2.7906,-2.795,-2.7344,-2.6683,-2.6175,-2.564,-2.5034,-2.4503,-2.4172,-2.3943,-2.3634,-2.3988,-2.449,-2.492,-2.5464,-2.5494,-2.5548,-2.547,-2.5189,-2.448,-2.3875,-2.3714,-2.3561,-2.3614,-2.3573,-2.3307,-2.3612,-2.402,-3.5126,-3.4964,-3.4773,-3.4588,-3.4386,-3.4173,-3.3954,-3.3834,-3.3807,-3.3807,-3.3807,-3.3807,-3.3807,-3.3807,-3.3807,-3.3753,-3.3698,-3.3633,-3.3577,-3.3491,-3.3452,-3.3422,-3.3411,-3.3382,-3.3364,-3.3364,-3.3352,-3.3274,-3.3262,-3.2967,-3.2875,-3.2594,-3.1785,-3.1402,-3.119,-3.0942,-3.0485,-2.9834,-2.9225,-2.8676,-2.8147,-2.777,-2.7679,-2.743,-2.7369,-2.74,-2.7509,-2.7647,-2.7836,-2.8053,-2.8246,-2.838,-2.844,-2.8466,-2.8388,-2.8335,-2.83,-2.8388,-2.8466,-2.851,-2.8562,-2.8587,-2.8587,-2.8587,-2.8587,-2.8587,-2.8587,-2.8587,-2.8587,-2.8587,-2.8587,-2.8587,-2.8587,-2.8562,-2.8536,-2.8536,-2.8484,-2.8484,-2.8458,-2.8404,-2.827,-2.8038,-2.7574,-2.7531,-2.7442,-2.7192,-2.7005,-2.7095,-2.705,-2.6677,-2.6055,-2.5498,-2.4913,-2.4271,-2.3815,-2.3537,-2.3465,-2.3394,-2.343,-2.3839,-2.423,-2.4473,-2.4491,-2.4526,-2.4495,-2.418,-2.3755,-2.3477,-2.3287,-2.3168,-2.3144,-2.3119,-2.3119,-2.307,-2.3344,-3.5092,-3.4927,-3.4771,-3.452,-3.4245,-3.3979,-3.3842,-3.3807,-3.3807,-3.3807,-3.3807,-3.3807,-3.378,-3.3726,-3.3726,-3.3689,-3.3633,-3.3577,-3.352,-3.3481,-3.3393,-3.3393,-3.3364,-3.3334,-3.3304,-3.3274,-3.3183,-3.3068,-3.2862,-3.2501,-3.1951,-3.1614,-3.0771,-3.0129,-2.9697,-2.9356,-2.9148,-2.886,-2.8307,-2.7884,-2.7583,-2.7324,-2.7247,-2.7152,-2.7087,-2.7152,-2.7261,-2.7404,-2.763,-2.7864,-2.8025,-2.8136,-2.8255,-2.8228,-2.8164,-2.8182,-2.8219,-2.83,-2.8406,-2.8484,-2.8536,-2.8543,-2.8587,-2.8587,-2.8587,-2.8587,-2.8587,-2.8562,-2.8562,-2.8562,-2.8562,-2.8562,-2.8536,-2.851,-2.8484,-2.8458,-2.8432,-2.8406,-2.8362,-2.8092,-2.7958,-2.7412,-2.6967,-2.6629,-2.6524,-2.6267,-2.6169,-2.626,-2.6189,-2.5817,-2.5525,-2.497,-2.4327,-2.3707,-2.3481,-2.3259,-2.3217,-2.3199,-2.3259,-2.33,-2.3506,-2.3682,-2.3545,-2.3598,-2.3763,-2.3615,-2.3267,-2.3119,-2.3119,-2.302,-2.2995,-2.297,-2.2919,-2.2893,-2.2885,-3.5056,-3.487,-3.4749,-3.4473,-3.4124,-3.3895,-3.3807,-3.3807,-3.3807,-3.3788,-3.3734,-3.3753,-3.3744,-3.3671,-3.3643,-3.3615,-3.3549,-3.3491,-3.3452,-3.3393,-3.3334,-3.3286,-3.3256,-3.3214,-3.3152,-3.3073,-3.289,-3.2638,-3.2186,-3.1405,-3.0735,-3.0585,-2.9673,-2.9018,-2.8572,-2.8197,-2.8006,-2.7861,-2.765,-2.7348,-2.7215,-2.712,-2.704,-2.6975,-2.6942,-2.699,-2.712,-2.7247,-2.7417,-2.7672,-2.7824,-2.7922,-2.7989,-2.7922,-2.7893,-2.7911,-2.794,-2.8081,-2.8237,-2.8345,-2.8406,-2.8484,-2.851,-2.8466,-2.851,-2.851,-2.8466,-2.8466,-2.8484,-2.851,-2.851,-2.8484,-2.8502,-2.8476,-2.8432,-2.8388,-2.8353,-2.8345,-2.8085,-2.7798,-2.7351,-2.677,-2.6308,-2.5943,-2.5608,-2.5379,-2.524,-2.5268,-2.5234,-2.5057,-2.4864,-2.4584,-2.3864,-2.3214,-2.3119,-2.3119,-2.3126,-2.3126,-2.3144,-2.3168,-2.3119,-2.3154,-2.3284,-2.3249,-2.319,-2.3119,-2.3119,-2.3095,-2.307,-2.2995,-2.2919,-2.2876,-2.285,-2.2816,-2.2781,-3.5039,-3.4773,-3.4689,-3.4363,-3.3998,-3.3842,-3.3807,-3.3807,-3.3807,-3.3734,-3.3726,-3.3698,-3.3689,-3.3605,-3.3605,-3.3549,-3.3462,-3.3375,-3.3286,-3.3244,-3.3104,-3.3055,-3.3024,-3.2993,-3.2741,-3.2727,-3.2438,-3.1868,-3.1034,-3.0256,-2.9638,-2.9521,-2.8645,-2.8081,-2.786,-2.74,-2.7212,-2.7194,-2.7158,-2.7007,-2.7007,-2.6942,-2.6876,-2.6876,-2.6825,-2.6808,-2.6957,-2.7087,-2.7213,-2.7478,-2.763,-2.7672,-2.7642,-2.76,-2.76,-2.763,-2.763,-2.7824,-2.8042,-2.8136,-2.8246,-2.83,-2.8327,-2.8255,-2.8282,-2.8362,-2.8362,-2.8362,-2.838,-2.8406,-2.8406,-2.8432,-2.8432,-2.8406,-2.838,-2.8327,-2.83,-2.8174,-2.7942,-2.7549,-2.6923,-2.629,-2.5437,-2.5049,-2.4697,-2.4488,-2.4392,-2.4343,-2.4317,-2.4222,-2.4196,-2.411,-2.3611,-2.3119,-2.3119,-2.3119,-2.3119,-2.3119,-2.3119,-2.3119,-2.3119,-2.3119,-2.3119,-2.3119,-2.3119,-2.3119,-2.3095,-2.307,-2.3045,-2.297,-2.2919,-2.285,-2.2799,-2.2738,-2.2712,-3.4945,-3.4753,-3.439,-3.4124,-3.3921,-3.386,-3.3807,-3.3788,-3.3753,-3.3671,-3.368,-3.368,-3.3633,-3.3538,-3.352,-3.3433,-3.3262,-3.3046,-3.3099,-3.288,-3.2702,-3.2478,-3.266,-3.2353,-3.2181,-3.1747,-3.1351,-3.08,-2.9918,-2.9143,-2.856,-2.839,-2.7725,-2.7334,-2.7266,-2.6876,-2.6825,-2.6825,-2.6825,-2.6859,-2.6909,-2.6825,-2.6742,-2.6759,-2.6742,-2.6775,-2.6892,-2.6942,-2.7038,-2.7198,-2.7213,-2.7244,-2.7244,-2.723,-2.7261,-2.7307,-2.7417,-2.76,-2.7777,-2.794,-2.8053,-2.8109,-2.8109,-2.8053,-2.8063,-2.8201,-2.8255,-2.8228,-2.8246,-2.8273,-2.83,-2.8327,-2.8353,-2.8327,-2.83,-2.8246,-2.8219,-2.7977,-2.7754,-2.713,-2.6471,-2.5661,-2.4757,-2.4211,-2.3826,-2.3618,-2.3541,-2.3517,-2.3538,-2.3513,-2.3608,-2.3523,-2.3418,-2.3119,-2.3119,-2.3119,-2.3119,-2.3119,-2.3119,-2.3119,-2.3119,-2.3119,-2.3119,-2.3119,-2.3119,-2.3119,-2.3077,-2.3028,-2.3003,-2.297,-2.2919,-2.2825,-2.2773,-2.2712,-2.2712,-3.4017,-3.4185,-3.4102,-3.3998,-3.3895,-3.3834,-3.3605,-3.3266,-3.3176,-3.2921,-3.2784,-3.325,-3.352,-3.3404,-3.3393,-3.299,-3.2733,-3.2504,-3.2018,-3.1787,-3.1749,-3.1491,-3.1482,-3.1472,-3.1021,-3.0554,-2.9884,-2.9265,-2.875,-2.81,-2.7605,-2.7521,-2.7029,-2.6809,-2.6792,-2.6742,-2.6708,-2.6708,-2.6708,-2.6742,-2.6825,-2.6742,-2.6708,-2.6708,-2.6708,-2.6775,-2.6825,-2.6876,-2.6975,-2.7023,-2.7087,-2.7087,-2.7087,-2.7055,-2.7055,-2.7103,-2.723,-2.7355,-2.7522,-2.7689,-2.7795,-2.7824,-2.7795,-2.7659,-2.7659,-2.776,-2.7789,-2.7789,-2.7979,-2.8035,-2.8053,-2.8081,-2.8164,-2.8191,-2.8182,-2.8182,-2.7913,-2.7619,-2.7076,-2.6331,-2.5638,-2.485,-2.4109,-2.3731,-2.3417,-2.3351,-2.3186,-2.3168,-2.3119,-2.3119,-2.3119,-2.3119,-2.3119,-2.3119,-2.3119,-2.3119,-2.3119,-2.3119,-2.3119,-2.3119,-2.3119,-2.3119,-2.3119,-2.3119,-2.3119,-2.3119,-2.3077,-2.3028,-2.2977,-2.2944,-2.2893,-2.2842,-2.2764,-2.2712,-2.2712,-3.2901,-3.3441,-3.3733,-3.3873,-3.385,-3.3687,-3.3256,-3.2661,-3.2407,-3.1908,-3.1473,-3.2583,-3.3013,-3.3015,-3.2919,-3.2331,-3.1852,-3.1538,-3.0965,-3.0525,-3.0261,-3.0339,-3.0256,-2.9965,-2.9779,-2.9298,-2.8579,-2.822,-2.7896,-2.7334,-2.7029,-2.6876,-2.6792,-2.6708,-2.6708,-2.6708,-2.6708,-2.6708,-2.6708,-2.6708,-2.6708,-2.6708,-2.6708,-2.6708,-2.6708,-2.6775,-2.6825,-2.6876,-2.6909,-2.6909,-2.6925,-2.6942,-2.6909,-2.6909,-2.6942,-2.699,-2.7055,-2.7152,-2.723,-2.7355,-2.7386,-2.7386,-2.7341,-2.731,-2.7293,-2.7293,-2.7355,-2.7478,-2.7642,-2.7806,-2.7836,-2.7911,-2.7996,-2.8035,-2.8025,-2.7901,-2.7525,-2.7161,-2.6419,-2.5658,-2.4898,-2.4113,-2.3664,-2.3305,-2.3186,-2.3119,-2.3119,-2.3119,-2.3119,-2.3119,-2.3119,-2.3119,-2.3119,-2.3119,-2.3119,-2.3119,-2.3119,-2.3119,-2.3119,-2.3119,-2.3119,-2.3119,-2.3119,-2.3119,-2.3119,-2.3095,-2.3077,-2.3052,-2.2977,-2.2919,-2.2868,-2.2816,-2.2764,-2.2712,-2.2712,-3.2674,-3.3078,-3.3074,-3.3313,-3.3668,-3.3128,-3.2716,-3.2407,-3.1725,-3.1273,-3.1039,-3.1028,-3.1286,-3.1258,-3.1141,-3.0862,-3.0681,-3.0437,-3.0279,-2.9924,-2.9429,-2.9435,-2.9368,-2.9041,-2.887,-2.8305,-2.7623,-2.7199,-2.7233,-2.6962,-2.6742,-2.6742,-2.6742,-2.6708,-2.6708,-2.6708,-2.6708,-2.6708,-2.6708,-2.6708,-2.6708,-2.6708,-2.6708,-2.6708,-2.6708,-2.6725,-2.6725,-2.6742,-2.6742,-2.6725,-2.6758,-2.6725,-2.6742,-2.6775,-2.6809,-2.6876,-2.6925,-2.6975,-2.7023,-2.7055,-2.7087,-2.6989,-2.6956,-2.694,-2.694,-2.6957,-2.7023,-2.712,-2.7324,-2.763,-2.7707,-2.7777,-2.7836,-2.7783,-2.7736,-2.7338,-2.694,-2.6511,-2.5985,-2.5226,-2.4512,-2.3869,-2.3393,-2.3168,-2.3144,-2.3119,-2.3119,-2.3119,-2.3119,-2.3119,-2.3119,-2.3119,-2.3119,-2.3119,-2.3119,-2.3119,-2.3119,-2.3119,-2.3119,-2.3119,-2.3119,-2.3119,-2.3119,-2.3119,-2.3095,-2.307,-2.307,-2.3028,-2.2944,-2.2868,-2.2842,-2.279,-2.2738,-2.2712,-2.2712]},{"header":{"parameterUnit":"m.s-1","parameterCategory":1,"la1":31.0,"la2":29.5877,"lo1":-88.7671,"lo2":-86.6584,"dy":0.0162,"dx":0.0185,"nx":115,"ny":88,"refTime":"2023-05-16T18:00:00:Z","depth":0,"parameterNumber":3,"parameterNumberName":"V-component_of_WINDS"},"data":[0.0,0.0,0.0,0.0,0.0,0.0,0.0,0.0,0.0,0.0,0.0,0.0,0.0,0.0,0.0,0.0,0.0,0.0,0.0,0.0,0.0,0.0,0.0,0.0,0.0,0.0,0.0,0.0,0.0,0.0,0.0,0.0,0.0,0.0,0.0,0.0,0.0,0.0,0.0,0.0,0.0,0.0,0.0,0.0,0.0,0.0,0.0,0.0,0.0,0.0,0.0,0.0,0.0,0.0,0.0,0.0,0.0,0.0,0.0,0.0,0.0,0.0,0.0,0.0,0.0,0.0,0.0,0.0,0.0,0.0,0.0,0.0,0.0,0.0,0.0,0.0,0.0,0.0,0.0,0.0,0.0,0.0,0.0,0.0,0.0,0.0,0.0,0.0,0.0,0.0,0.0,0.0,0.0,0.0,0.0,0.0,0.0,0.0,0.0,0.0,0.0,0.0,0.0,0.0,0.0,0.0,0.0,0.0,0.0,0.0,0.0,0.0,0.0,0.0,0.0,0.0,0.0,0.0,0.0,0.0,0.0,0.0,0.0,0.0,0.0,0.0,0.0,0.0,0.0,0.0,0.0,0.0,0.0,0.0,0.0,0.0,0.0,0.0,0.0,0.0,0.0,0.0,0.0,0.0,0.0,0.0,0.0,0.0,0.0,0.0,0.0,0.0,0.0,0.0,0.0,0.0,0.0,0.0,0.0,0.0,0.0,0.0,0.0,0.0,0.0,0.0,0.0,0.0,0.0,0.0,0.0,0.0,0.0,0.0,0.0,0.0,0.0,0.0,0.0,0.0,0.0,0.0,0.0,0.0,0.0,0.0,0.0,0.0,0.0,0.0,0.0,0.0,0.0,0.0,0.0,0.0,0.0,0.0,0.0,0.0,0.0,0.0,0.0,0.0,0.0,0.0,0.0,0.0,0.0,0.0,0.0,0.0,0.0,0.0,0.0,0.0,0.0,0.0,0.0,0.0,0.0,0.0,0.0,0.0,0.0,0.0,0.0,0.0,0.0,0.0,0.0,0.0,0.0,0.0,0.0,0.0,0.0,0.0,0.0,0.0,0.0,0.0,0.0,0.0,0.0,0.0,0.0,0.0,0.0,0.0,0.0,0.0,0.0,0.0,0.0,0.0,0.0,0.0,0.0,0.0,0.0,0.0,0.0,0.0,0.0,0.0,0.0,0.0,0.0,0.0,0.0,0.0,0.0,0.0,0.0,0.0,0.0,0.0,0.0,0.0,0.0,0.0,0.0,0.0,0.0,0.0,0.0,0.0,0.0,0.0,0.0,0.0,0.0,0.0,0.0,0.0,0.0,0.0,0.0,0.0,0.0,0.0,0.0,0.0,0.0,0.0,0.0,0.0,0.0,0.0,0.0,0.0,0.0,0.0,0.0,0.0,0.0,0.0,0.0,0.0,0.0,0.0,0.0,0.0,0.0,0.0,0.0,0.0,0.0,0.0,0.0,0.0,0.0,0.0,0.0,0.0,0.0,0.0,0.0,0.0,0.0,0.0,0.0,0.0,0.0,0.0,0.0,0.0,0.0,0.0,0.0,0.0,0.0,0.0,0.0,0.0,0.0,0.0,0.0,0.0,0.0,0.0,0.0,0.0,0.0,0.0,0.0,0.0,0.0,0.0,0.0,0.0,0.0,0.0,0.0,0.0,0.0,0.0,0.0,0.0,0.0,0.0,0.0,0.0,0.0,0.0,0.0,0.0,0.0,0.0,0.0,0.0,0.0,0.0,0.0,0.0,0.0,0.0,0.0,0.0,0.0,0.0,0.0,0.0,0.0,0.0,0.0,0.0,0.0,0.0,0.0,0.0,0.0,0.0,0.0,0.0,0.0,0.0,0.0,0.0,0.0,0.0,0.0,0.0,0.0,0.0,0.0,0.0,0.0,0.0,0.0,0.0,0.0,0.0,0.0,0.0,0.0,0.0,0.0,0.0,0.0,0.0,0.0,0.0,0.0,0.0,0.0,0.0,0.0,0.0,0.0,0.0,0.0,0.0,0.0,0.0,0.0,0.0,0.0,0.0,0.0,0.0,0.0,0.0,0.0,0.0,0.0,0.0,0.0,0.0,0.0,0.0,0.0,0.0,0.0,0.0,0.0,0.0,0.0,0.0,0.0,0.0,0.0,0.0,0.0,0.0,0.0,0.0,0.0,0.0,0.0,0.0,0.0,0.0,0.0,0.0,0.0,0.0,0.0,0.0,0.0,0.0,0.0,0.0,0.0,0.0,0.0,0.0,0.0,0.0,0.0,0.0,0.0,0.0,0.0,0.0,0.0,0.0,0.0,0.0,0.0,0.0,0.0,0.0,0.0,0.0,0.0,0.0,0.0,0.0,0.0,0.0,0.0,0.0,0.0,0.0,0.0,0.0,0.0,0.0,0.0,0.0,0.0,0.0,0.0,0.0,0.0,0.0,0.0,0.0,0.0,0.0,0.0,0.0,0.0,0.0,0.0,0.0,0.0,0.0,0.0,0.0,0.0,0.0,0.0,0.0,0.0,0.0,0.0,0.0,0.0,0.0,0.0,0.0,0.0,0.0,0.0,0.0,0.0,0.0,0.0,0.0,0.0,0.0,0.0,0.0,0.0,0.0,0.0,0.0,0.0,0.0,0.0,0.0,0.0,0.0,0.0,0.0,0.0,0.0,0.0,0.0,0.0,0.0,0.0,0.0,0.0,0.0,0.0,0.0,0.0,0.0,0.0,0.0,0.0,0.0,0.0,0.0,0.0,0.0,0.0,0.0,0.0,0.0,0.0,0.0,0.0,0.0,0.0,0.0,0.0,0.0,0.0,0.0,0.0,0.0,0.0,0.0,0.0,0.0,0.0,0.0,0.0,0.0,0.0,0.0,0.0,0.0,0.0,0.0,0.0,0.0,0.0,0.0,0.0,0.0,0.0,0.0,0.0,0.0,0.0,0.0,0.0,0.0,0.0,0.0,0.0,0.0,0.0,0.0,0.0,0.0,0.0,0.0,0.0,0.0,0.0,0.0,0.0,0.0,0.0,0.0,0.0,0.0,0.0,0.0,0.0,0.0,0.0,0.0,0.0,0.0,0.0,0.0,0.0,0.0,0.0,0.0,0.0,0.0,0.0,0.0,0.0,0.0,0.0,0.0,0.0,0.0,0.0,0.0,0.0,0.0,0.0,0.0,0.0,0.0,0.0,0.0,0.0,0.0,0.0,0.0,0.0,0.0,0.0,0.0,0.0,0.0,0.0,0.0,0.0,0.0,0.0,0.0,0.0,0.0,0.0,0.0,0.0,0.0,0.0,0.0,0.0,0.0,0.0,0.0,0.0,0.0,0.0,0.0,0.0,0.0,0.0,0.0,0.0,0.0,0.0,0.0,0.0,0.0,0.0,0.0,0.0,0.0,0.0,0.0,0.0,0.0,0.0,0.0,0.0,0.0,0.0,0.0,0.0,0.0,0.0,0.0,0.0,0.0,0.0,0.0,0.0,0.0,0.0,0.0,0.0,0.0,0.0,0.0,0.0,0.0,0.0,0.0,0.0,0.0,0.0,0.0,0.0,0.0,0.0,0.0,0.0,0.0,0.0,0.0,0.0,0.0,0.0,0.0,0.0,0.0,0.0,0.0,0.0,0.0,0.0,0.0,0.0,0.0,0.0,0.0,0.0,0.0,0.0,0.0,0.0,0.0,0.0,0.0,0.0,0.0,0.0,0.0,0.0,0.0,0.0,0.0,0.0,0.0,0.0,0.0,0.0,0.0,0.0,0.0,0.0,0.0,0.0,0.0,0.0,0.0,0.0,0.0,0.0,0.0,0.0,0.0,0.0,0.0,0.0,0.0,0.0,0.0,0.0,0.0,0.0,0.0,0.0,0.0,0.0,0.0,0.0,0.0,0.0,0.0,0.0,0.0,0.0,0.0,0.0,0.0,0.0,0.0,0.0,0.0,0.0,0.0,0.0,0.0,0.0,0.0,0.0,0.0,0.0,0.0,0.0,0.0,0.0,0.0,0.0,0.0,0.0,0.0,0.0,0.0,0.0,0.0,0.0,0.0,0.0,0.0,0.0,0.0,0.0,0.0,0.0,0.0,0.0,0.0,0.0,0.0,0.0,0.0,0.0,0.0,0.0,0.0,0.0,0.0,0.0,0.0,0.0,0.0,0.0,0.0,0.0,0.0,0.0,0.0,0.0,0.0,0.0,0.0,0.0,0.0,0.0,0.0,0.0,0.0,0.0,0.0,0.0,0.0,0.0,0.0,0.0,0.0,0.0,0.0,0.0,0.0,0.0,0.0,0.0,0.0,-0.2652,0.0,0.0,0.0,0.0,0.0,0.0,0.0,0.0,0.0,0.0,0.0,0.0,0.0,0.0,0.0,0.0,0.0,0.0,0.0,0.0,0.0,0.0,0.0,0.0,0.0,0.0,0.0,0.0,0.0,0.0,0.0,0.0,0.0,0.0,0.0,0.0,0.0,0.0,0.0,0.0,0.0,0.0,0.0,0.0,0.0,0.0,0.0,0.0,0.0,0.0,0.0,0.0,0.0,0.0,0.0,0.0,0.0,0.0,0.0,0.0,0.0,0.0,0.0,0.0,0.0,0.0,0.0,0.0,0.0,0.0,0.0,0.0,0.0,0.0,0.0,0.0,0.0,0.0,0.0,0.0,0.0,0.0,0.0,0.0,0.0,0.0,0.0,0.0,0.0,0.0,0.0,0.0,0.0,0.0,0.0,0.0,0.0,0.0,0.0,0.0,0.0,0.0,0.0,0.0,0.0,0.0,0.0,0.0,0.0,0.0,-0.1024,-0.1854,-0.2223,-0.2575,-0.2994,0.0,0.0,0.0,0.0,0.0,0.0,0.0,0.0,0.0,0.0,0.0,0.0,0.0,0.0,0.0,0.0,0.0,0.0,0.0,0.0,0.0,0.0,0.0,0.0,0.0,0.0,0.0,0.0,0.0,0.0,0.0,0.0,0.0,0.0,0.0,0.0,0.0,0.0,0.0,0.0,0.0,0.0,0.0,0.0,0.0,0.0,0.0,0.0,0.0,0.0,0.0,0.0,0.0,0.0,0.0,0.0,0.0,0.0,0.0,0.0,0.0,0.0,0.0,0.0,0.0,0.0,0.0,0.0,0.0,0.0,0.0,0.0,0.0,0.0,0.0,0.0,0.0,0.0,0.0,0.0,0.0,0.0,0.0,0.0,0.0,0.0,0.0,0.0,0.0,0.0,0.0,0.0,0.0,0.0,0.0,0.0,0.0,0.0,0.0,0.0,0.0,0.0,0.0,0.0,0.0,0.0,0.0,0.0,0.0,0.0,0.0,0.0,-0.2523,-0.2956,-0.3494,0.0,0.0,0.0,0.0,0.0,0.0,0.0,0.0,0.0,0.0,0.0,0.0,0.0,0.0,0.0,0.0,0.0,0.0,0.0,0.0,0.0,0.0,0.0,0.0,0.0,0.0,0.0,0.0,0.0,0.0,0.0,0.0,0.0,0.0,0.0,0.0,0.0,0.0,0.0,0.0,0.0,0.0,0.0,0.0,0.0,0.0,0.0,0.0,0.0,0.0,0.0,0.0,0.0,0.0,0.0,0.0,0.0,0.0,0.0,0.0,0.0,0.0,0.0,0.0,0.0,0.0,0.0,0.0,0.0,0.0,0.0,0.0,0.0,0.0,0.0,0.0,0.0,0.0,0.0,0.0,0.0,0.0,0.0,0.0,0.0,0.0,0.0,0.0,0.0,0.0,0.0,0.0,0.0,0.0,0.0,0.0,0.0,0.0,0.0,0.0,0.0,0.0,0.0,0.0,0.0,0.0,0.0,0.0,0.0,0.0,-0.1596,-0.2087,-0.2767,0.0,-0.4311,0.0,0.0,0.0,0.0,0.0,0.0,0.0,0.0,0.0,0.0,0.0,0.0,0.0,0.0,0.0,0.0,0.0,0.0,0.0,0.0,0.0,0.0,0.0,0.0,0.0,0.0,0.0,0.0,0.0,0.0,0.0,0.0,0.0,0.0,0.0,0.0,0.0,0.0,0.0,0.0,0.0,0.0,0.0,0.0,0.0,0.0,0.0,0.0,0.0,0.0,0.0,0.0,0.0,0.0,0.0,0.0,0.0,0.0,0.0,0.0,0.0,0.0,0.0,0.0,0.0,0.0,0.0,0.0,0.0,0.0,0.0,0.0,0.0,0.0,0.0,0.0,0.0,0.0,0.0,0.0,0.0,0.0,0.0,0.0,0.0,0.0,0.0,0.0,0.0,0.0,0.0,0.0,0.0,0.0,0.0,0.0,0.0,0.0,0.0,0.0,0.0,0.0,0.0,0.0,0.0,0.0,0.0,0.0,0.0,0.0,-0.1697,-0.2305,-0.2973,-0.3655,0.0,0.0,0.0,0.0,0.0,0.0,0.0,0.0,0.0,0.0,0.0,0.0,0.0,0.0,0.0,0.0,0.0,0.0,0.0,0.0,0.0,0.0,0.0,0.0,0.0,0.0,0.0,0.0,0.0,0.0,0.0,0.0,0.0,0.0,0.0,0.0,0.0,0.0,0.0,0.0,0.0,0.0,0.0,0.0,0.0,0.0,0.0,0.0,0.0,0.0,0.0,0.0,0.0,0.0,0.0,0.0,0.0,0.0,0.0,0.0,0.0,0.0,0.0,0.0,0.0,0.0,0.0,0.0,0.0,0.0,0.0,0.0,0.0,0.0,0.0,0.0,0.0,0.0,0.0,0.0,0.0,0.0,0.0,0.0,0.0,0.0,0.0,0.0,0.0,0.0,0.0,0.0,0.0,0.0,0.0,0.0,0.0,0.0,0.0,0.0,0.0,0.0,0.0,0.0,0.0,0.0,0.0,0.0,0.0,0.0,-0.1436,-0.1973,-0.278,-0.3338,-0.3923,-0.451,0.0,0.0,0.0,0.0,0.0,0.0,0.0,0.0,0.0,0.0,0.0,0.0,0.0,0.0,0.0,0.0,0.0,0.0,0.0,0.0,0.0,0.0,0.0,0.0,0.0,0.0,0.0,0.0,0.0,0.0,0.0,0.0,0.0,0.0,0.0,0.0,0.0,0.0,0.0,0.0,0.0,0.0,0.0,0.0,0.0,0.0,0.0,0.0,0.0,0.0,0.0,0.0,0.0,0.0,0.0,0.0,0.0,0.0,0.0,0.0,0.0,0.0,0.0,0.0,0.0,0.0,0.0,0.0,0.0,0.0,0.0,0.0,0.0,0.0,0.0,0.0,0.0,0.0,0.0,0.0,0.0,0.0,0.0,0.0,0.0,0.0,0.0,0.0,0.0,0.0,0.0,0.0,0.0,0.0,0.0,0.0,0.0,0.0,0.0,0.0,0.0,0.0,0.0,0.0,0.0,0.0,0.0,0.0,-0.1346,-0.1885,-0.2602,-0.3496,-0.3689,-0.4038,0.0,0.0,0.0,0.0,0.0,0.0,0.0,0.0,0.0,0.0,0.0,0.0,0.0,0.0,0.0,0.0,0.0,0.0,0.0,0.0,0.0,0.0,0.0,0.0,0.0,0.0,0.0,0.0,0.0,0.0,0.0,0.0,0.0,0.0,0.0,0.0,0.0,0.0,0.0,0.0,0.0,0.0,0.0,0.0,0.0,0.0,0.0,0.0,0.0,0.0,0.0,0.0,0.0,0.0,0.0,0.0,0.0,0.0,0.0,0.0,0.0,0.0,0.0,0.0,0.0,0.0,0.0,0.0,0.0,0.0,0.0,0.0,0.0,0.0,0.0,0.0,0.0,0.0,0.0,0.0,0.0,0.0,0.0,0.0,0.0,0.0,0.0,0.0,0.0,0.0,0.0,0.0,0.0,0.0,0.0,0.0,0.0,0.0,0.0,0.0,0.0,0.0,0.0,0.0,0.0,0.0,0.0,0.0,0.0,-0.1705,-0.242,-0.3227,-0.403,-0.4037,-0.4295,0.0,0.0,0.0,0.0,0.0,0.0,0.0,0.0,0.0,0.0,0.0,0.0,0.0,0.0,0.0,0.0,0.0,0.0,0.0,0.0,0.0,0.0,0.0,0.0,0.0,0.0,0.0,0.0,0.0,0.0,0.0,0.0,0.0,0.0,0.0,0.0,0.0,0.0,0.0,0.0,0.0,0.0,0.0,0.0,0.0,0.0,0.0,0.0,0.0,0.0,0.0,0.0,0.0,0.0,0.0,0.0,0.0,0.0,0.0,0.0,0.0,0.0,0.0,0.0,0.0,0.0,0.0,0.0,0.0,0.0,0.0,0.0,0.0,0.0,0.0,0.0,0.0,0.0,0.0,0.0,0.0,0.0,0.0,0.0,0.0,0.0,0.0,0.0,0.0,0.0,0.0,0.0,0.0,0.0,0.0,0.0,0.0,0.0,0.0,0.0,0.0,0.0,0.0,0.0,0.0,0.0,0.0,0.0,0.0,-0.2153,0.0,-0.3764,-0.4295,-0.4299,-0.4552,0.0,0.0,0.0,0.0,0.0,0.0,0.0,0.0,0.0,0.0,0.0,0.0,0.0,0.0,0.0,0.0,0.0,0.0,0.0,0.0,0.0,0.0,0.0,0.0,0.0,0.0,0.0,0.0,0.0,0.0,0.0,0.0,0.0,0.0,0.0,0.0,0.0,0.0,0.0,0.0,0.0,0.0,0.0,0.0,0.0,0.0,0.0,0.0,0.0,0.0,0.0,0.0,0.0,0.0,0.0,0.0,0.0,0.0,0.0,0.0,0.0,0.0,0.0,0.0,0.0,0.0,0.0,0.0,0.0,0.0,0.0,0.0,0.0,0.0,0.0,0.0,0.0,0.0,0.0,0.0,0.0,0.0,0.0,0.0,0.0,0.0,0.0,0.0,0.0,0.0,0.0,0.0,0.0,0.0,0.0,0.0,0.0,0.0,0.0,0.0,0.0,0.0,0.0,0.0,0.0,0.0,0.0,0.0,-0.1974,-0.2869,-0.3857,-0.431,-0.43,-0.4658,-0.4901,0.0,0.0,0.0,0.0,0.0,0.0,0.0,0.0,0.0,0.0,0.0,0.0,0.0,0.0,0.0,0.0,0.0,0.0,0.0,0.0,0.0,0.0,0.0,0.0,0.0,0.0,0.0,0.0,0.0,0.0,0.0,0.0,0.0,0.0,0.0,0.0,0.0,0.0,0.0,0.0,0.0,0.0,0.0,0.0,0.0,0.0,0.0,0.0,0.0,0.0,0.0,0.0,0.0,0.0,0.0,0.0,0.0,0.0,0.0,0.0,0.0,0.0,0.0,0.0,0.0,0.0,0.0,0.0,0.0,0.0,0.0,0.0,0.0,0.0,0.0,0.0,0.0,0.0,0.0,0.0,0.0,0.0,0.0,0.0,0.0,0.0,0.0,0.0,0.0,0.0,0.0,0.0,0.0,0.0,0.0,0.0,0.0,0.0,0.0,0.0,0.0,0.0,0.0,0.0,0.0,0.0,0.0,0.0,0.0,-0.3751,-0.4451,-0.4919,-0.5216,-0.5203,-0.5231,0.0,0.0,0.0,0.0,0.0,0.0,0.0,0.0,0.0,0.0,0.0,0.0,0.0,0.0,0.0,0.0,0.0,0.0,0.0,0.0,0.0,0.0,0.0,0.0,0.0,0.0,0.0,0.0,0.0,0.0,0.0,0.0,0.0,0.0,0.0,0.0,0.0,0.0,0.0,0.0,0.0,0.0,0.0,0.0,0.0,0.0,0.0,0.0,0.0,0.0,0.0,0.0,0.0,0.0,0.0,0.0,0.0,0.0,0.0,0.0,0.0,0.0,0.0,0.0,0.0,0.0,0.0,0.0,0.0,0.0,0.0,0.0,0.0,0.0,0.0,0.0,0.0,0.0,0.0,0.0,0.0,0.0,0.0,0.0,0.0,0.0,0.0,0.0,0.0,0.0,0.0,0.0,0.0,0.0,0.0,0.0,0.0,0.0,0.0,0.0,0.0,0.0,0.0,0.0,0.0,0.0,0.0,0.0,0.0,-0.4957,-0.514,-0.5388,-0.5603,-0.5546,-0.5569,-0.5681,0.0,0.0,0.0,0.0,0.0,0.0,0.0,0.0,0.0,0.0,0.0,0.0,0.0,0.0,0.0,0.0,0.0,0.0,0.0,0.0,0.0,0.0,0.0,0.0,0.0,0.0,0.0,0.0,0.0,0.0,0.0,0.0,0.0,0.0,0.0,0.0,0.0,0.0,0.0,0.0,0.0,0.0,0.0,0.0,0.0,0.0,0.0,0.0,0.0,0.0,0.0,0.0,0.0,0.0,0.0,0.0,0.0,0.0,0.0,0.0,0.0,0.0,0.0,0.0,0.0,0.0,0.0,0.0,0.0,0.0,0.0,0.0,0.0,0.0,0.0,0.0,0.0,0.0,0.0,0.0,0.0,0.0,0.0,0.0,0.0,0.0,0.0,0.0,0.0,0.0,0.0,0.0,0.0,0.0,0.0,0.0,0.0,0.0,0.0,0.0,0.0,0.0,0.0,0.0,0.0,0.0,0.0,0.0,-0.6537,-0.6031,-0.5823,-0.5815,-0.5802,-0.5939,0.0,0.0,0.0,0.0,0.0,0.0,0.0,0.0,0.0,0.0,0.0,0.0,0.0,0.0,0.0,0.0,0.0,0.0,0.0,0.0,0.0,0.0,0.0,0.0,0.0,0.0,0.0,0.0,0.0,0.0,0.0,0.0,0.0,0.0,0.0,0.0,0.0,0.0,0.0,0.0,0.0,0.0,0.0,0.0,0.0,0.0,0.0,0.0,0.0,0.0,0.0,0.0,0.0,0.0,0.0,0.0,0.0,0.0,0.0,0.0,0.0,0.0,0.0,0.0,0.0,0.0,0.0,0.0,0.0,0.0,0.0,0.0,0.0,0.0,0.0,0.0,0.0,0.0,0.0,0.0,0.0,0.0,0.0,0.0,0.0,0.0,0.0,0.0,0.0,0.0,0.0,0.0,0.0,0.0,0.0,0.0,0.0,0.0,0.0,0.0,0.0,0.0,0.0,0.0,0.0,0.0,0.0,0.0,0.0,-0.6731,-0.6968,-0.6939,-0.6842,-0.6869,-0.6747,0.0,0.0,0.0,0.0,0.0,0.0,0.0,0.0,0.0,0.0,0.0,0.0,0.0,0.0,0.0,0.0,0.0,0.0,0.0,0.0,0.0,0.0,0.0,0.0,0.0,0.0,0.0,0.0,0.0,0.0,0.0,0.0,0.0,0.0,0.0,0.0,0.0,0.0,0.0,0.0,0.0,0.0,0.0,0.0,0.0,0.0,0.0,0.0,0.0,0.0,0.0,0.0,0.0,0.0,0.0,0.0,0.0,0.0,0.0,0.0,0.0,0.0,0.0,0.0,0.0,0.0,0.0,0.0,0.0,0.0,0.0,0.0,0.0,0.0,0.0,0.0,0.0,0.0,0.0,0.0,0.0,0.0,0.0,0.0,0.0,0.0,0.0,0.0,0.0,0.0,0.0,0.0,0.0,0.0,0.0,0.0,0.0,0.0,0.0,0.0,0.0,0.0,0.0,0.0,0.0,0.0,0.0,0.0,-0.6789,-0.7406,-0.7962,-0.8173,-0.7926,-0.7601,-0.733,0.0,0.0,0.0,0.0,0.0,0.0,0.0,0.0,0.0,0.0,0.0,0.0,0.0,0.0,0.0,0.0,0.0,0.0,0.0,0.0,0.0,0.0,0.0,0.0,0.0,0.0,0.0,0.0,0.0,0.0,0.0,0.0,0.0,0.0,0.0,0.0,0.0,0.0,0.0,0.0,0.0,0.0,0.0,0.0,0.0,0.0,0.0,0.0,0.0,0.0,0.0,0.0,0.0,0.0,0.0,0.0,0.0,0.0,0.0,0.0,0.0,0.0,0.0,0.0,0.0,0.0,0.0,0.0,0.0,0.0,0.0,0.0,0.0,0.0,0.0,0.0,0.0,0.0,0.0,0.0,0.0,0.0,0.0,0.0,0.0,0.0,0.0,0.0,0.0,0.0,0.0,0.0,0.0,0.0,0.0,0.0,0.0,0.0,0.0,0.0,0.0,0.0,0.0,0.0,0.0,0.0,0.0,0.0,-0.7422,-0.8141,-0.8838,-0.9176,-0.8916,-0.8221,-0.7727,0.0,0.0,0.0,0.0,0.0,0.0,0.0,0.0,0.0,0.0,0.0,0.0,0.0,0.0,0.0,0.0,0.0,0.0,0.0,0.0,0.0,0.0,0.0,0.0,0.0,0.0,0.0,0.0,0.0,0.0,0.0,0.0,0.0,0.0,0.0,0.0,0.0,0.0,0.0,0.0,0.0,0.0,0.0,0.0,0.0,0.0,0.0,0.0,0.0,0.0,0.0,0.0,0.0,0.0,0.0,0.0,0.0,0.0,0.0,0.0,0.0,0.0,0.0,0.0,0.0,0.0,0.0,0.0,0.0,0.0,0.0,0.0,0.0,0.0,0.0,0.0,0.0,0.0,0.0,0.0,0.0,0.0,0.0,0.0,0.0,0.0,0.0,0.0,0.0,0.0,0.0,0.0,0.0,0.0,0.0,0.0,0.0,0.0,0.0,0.0,0.0,0.0,0.0,0.0,0.0,0.0,0.0,0.0,-0.7677,-0.8193,-0.8885,-0.9172,-0.9227,-0.9053,-0.8643,0.0,0.0,0.0,0.0,0.0,0.0,0.0,0.0,0.0,0.0,0.0,0.0,0.0,0.0,0.0,0.0,0.0,0.0,0.0,0.0,0.0,0.0,0.0,0.0,0.0,0.0,0.0,0.0,0.0,0.0,0.0,0.0,0.0,0.0,0.0,0.0,0.0,0.0,0.0,0.0,0.0,0.0,0.0,0.0,0.0,0.0,0.0,0.0,-0.6294,0.0,0.0,0.0,0.0,0.0,0.0,0.0,0.0,0.0,0.0,0.0,0.0,0.0,0.0,0.0,0.0,0.0,0.0,0.0,0.0,0.0,0.0,0.0,0.0,0.0,0.0,0.0,0.0,0.0,0.0,0.0,0.0,0.0,0.0,0.0,0.0,0.0,0.0,0.0,0.0,0.0,0.0,0.0,0.0,0.0,0.0,0.0,0.0,0.0,0.0,0.0,0.0,0.0,0.0,0.0,0.0,0.0,0.0,0.0,-0.8133,-0.8774,-0.933,-0.9595,-0.9541,-0.9488,-0.9153,0.0,0.0,0.0,0.0,0.0,0.0,0.0,0.0,0.0,0.0,0.0,0.0,0.0,0.0,0.0,0.0,0.0,0.0,0.0,0.0,0.0,0.0,0.0,0.0,0.0,0.0,0.0,0.0,0.0,0.0,0.0,0.0,0.0,0.0,0.0,0.0,0.0,0.0,0.0,0.0,0.0,0.0,0.0,0.0,0.0,0.0,0.0,0.0,0.0,0.0,0.0,0.0,0.0,0.0,0.0,0.0,0.0,0.0,0.0,0.0,0.0,0.0,0.0,0.0,0.0,0.0,0.0,0.0,0.0,0.0,0.0,0.0,0.0,0.0,0.0,0.0,0.0,0.0,0.0,0.0,0.0,0.0,0.0,0.0,0.0,0.0,0.0,0.0,0.0,0.0,0.0,0.0,0.0,0.0,0.0,0.0,0.0,0.0,0.0,0.0,0.0,0.0,0.0,0.0,0.0,0.0,0.0,-0.8089,-0.8695,-0.9253,-0.975,-0.9871,-0.9704,-0.9698,-0.936,-0.8816,0.0,0.0,0.0,0.0,0.0,0.0,0.0,0.0,0.0,0.0,0.0,0.0,0.0,0.0,0.0,0.0,0.0,0.0,0.0,0.0,0.0,0.0,0.0,0.0,0.0,0.0,0.0,0.0,0.0,0.0,0.0,0.0,0.0,0.0,0.0,0.0,0.0,0.0,-0.1436,-0.1557,0.0,0.0,0.0,0.0,0.0,0.0,0.0,0.0,-0.7596,0.0,0.0,0.0,0.0,0.0,0.0,0.0,0.0,0.0,0.0,0.0,0.0,0.0,0.0,0.0,0.0,0.0,0.0,0.0,0.0,0.0,0.0,0.0,0.0,0.0,0.0,0.0,0.0,0.0,0.0,0.0,0.0,0.0,0.0,0.0,0.0,0.0,0.0,0.0,0.0,0.0,0.0,0.0,0.0,0.0,0.0,0.0,0.0,0.0,0.0,0.0,0.0,0.0,0.0,0.0,0.0,-0.777,-0.8423,-0.8881,-0.9326,-0.9622,-0.9804,-0.9831,-0.9734,-0.9458,-0.9019,0.0,0.0,0.0,0.0,0.0,0.0,0.0,0.0,0.0,0.0,0.0,0.0,0.0,0.0,0.0,0.0,0.0,0.0,0.0,0.0,0.0,0.0,0.0,0.0,0.0,0.0,0.0,0.0,0.0,0.0,0.0,0.0,0.0,0.0,0.0,0.0,0.0,0.0,0.0,-0.1946,-0.2352,0.0,0.0,0.0,0.0,0.0,0.0,0.0,0.0,-0.7918,0.0,0.0,0.0,0.0,0.0,0.0,0.0,0.0,0.0,0.0,0.0,0.0,0.0,0.0,0.0,0.0,0.0,0.0,0.0,0.0,0.0,0.0,0.0,0.0,0.0,0.0,0.0,0.0,0.0,0.0,0.0,0.0,0.0,0.0,0.0,0.0,0.0,0.0,0.0,0.0,0.0,0.0,0.0,0.0,0.0,0.0,0.0,0.0,0.0,0.0,0.0,0.0,0.0,0.0,0.0,-0.8124,-0.8679,-0.913,-0.9438,-0.9681,-0.9871,-0.988,-0.9624,-0.9364,0.0,0.0,0.0,0.0,0.0,0.0,0.0,0.0,0.0,0.0,0.0,0.0,0.0,0.0,0.0,0.0,0.0,0.0,0.0,0.0,0.0,0.0,0.0,0.0,0.0,0.0,0.0,0.0,0.0,0.0,0.0,0.0,0.0,0.0,0.0,0.0,0.0,0.0,0.0,0.0,-0.2245,-0.2647,-0.2966,0.0,0.0,0.0,0.0,0.0,0.0,-0.7775,-0.814,0.0,0.0,0.0,0.0,0.0,0.0,0.0,0.0,0.0,0.0,0.0,0.0,0.0,0.0,0.0,0.0,0.0,0.0,0.0,0.0,0.0,0.0,0.0,0.0,0.0,0.0,0.0,0.0,0.0,0.0,0.0,0.0,0.0,0.0,0.0,0.0,0.0,0.0,0.0,0.0,0.0,0.0,0.0,0.0,0.0,0.0,0.0,0.0,0.0,0.0,0.0,0.0,0.0,0.0,0.0,-0.8481,-0.9032,-0.9379,-0.9579,-0.9742,-0.9831,-0.9827,-0.9559,-0.9311,0.0,0.0,0.0,0.0,0.0,0.0,0.0,0.0,0.0,0.0,0.0,0.0,0.0,0.0,0.0,0.0,0.0,0.0,0.0,0.0,0.0,0.0,0.0,0.0,0.0,0.0,0.0,0.0,0.0,0.0,0.0,0.0,0.0,0.0,0.0,0.0,0.0,0.0,0.0,0.0,0.0,-0.2954,-0.3189,-0.3748,0.0,0.0,0.0,0.0,-0.7446,-0.798,0.0,0.0,0.0,0.0,0.0,0.0,0.0,0.0,0.0,0.0,0.0,0.0,0.0,0.0,0.0,0.0,0.0,0.0,0.0,0.0,0.0,0.0,0.0,0.0,0.0,0.0,0.0,0.0,0.0,0.0,0.0,0.0,0.0,0.0,0.0,0.0,0.0,0.0,0.0,0.0,0.0,0.0,0.0,0.0,0.0,0.0,0.0,0.0,0.0,0.0,0.0,0.0,0.0,0.0,0.0,0.0,-0.8477,-0.9099,-0.9384,-0.9393,-0.9563,-0.9657,-0.9661,-0.9616,-0.9437,0.0,0.0,0.0,0.0,0.0,0.0,0.0,0.0,0.0,0.0,0.0,0.0,0.0,0.0,0.0,0.0,0.0,0.0,0.0,0.0,0.0,0.0,0.0,0.0,0.0,0.0,0.0,0.0,0.0,0.0,0.0,0.0,0.0,0.0,0.0,0.0,0.0,0.0,0.0,0.0,0.0,-0.3518,-0.3798,-0.4493,-0.5183,0.0,0.0,-0.6841,-0.757,-0.7998,0.0,0.0,0.0,0.0,0.0,0.0,0.0,0.0,0.0,0.0,0.0,0.0,0.0,0.0,0.0,0.0,0.0,0.0,0.0,0.0,0.0,0.0,0.0,0.0,0.0,0.0,0.0,0.0,0.0,0.0,0.0,0.0,0.0,0.0,0.0,0.0,0.0,0.0,0.0,0.0,0.0,0.0,0.0,0.0,0.0,0.0,0.0,0.0,0.0,0.0,0.0,0.0,0.0,0.0,0.0,-0.8407,-0.8597,-0.8926,-0.9051,-0.906,-0.9328,-0.9474,-0.947,-0.947,-0.9356,0.0,0.0,0.0,0.0,0.0,0.0,0.0,0.0,0.0,0.0,0.0,0.0,0.0,0.0,0.0,0.0,0.0,0.0,0.0,0.0,0.0,0.0,0.0,0.0,0.0,0.0,0.0,0.0,0.0,0.0,0.0,0.0,0.0,0.0,0.0,0.0,0.0,0.0,0.0,0.0,0.0,0.0,-0.3816,-0.4648,0.0,0.0,0.0,-0.7298,-0.8139,0.0,0.0,0.0,0.0,0.0,0.0,0.0,0.0,0.0,0.0,0.0,0.0,0.0,0.0,0.0,0.0,0.0,0.0,0.0,0.0,0.0,0.0,0.0,0.0,0.0,0.0,0.0,0.0,0.0,0.0,0.0,0.0,0.0,0.0,0.0,0.0,0.0,0.0,0.0,0.0,0.0,0.0,0.0,0.0,0.0,0.0,0.0,0.0,0.0,0.0,0.0,0.0,0.0,0.0,0.0,0.0,0.0,-0.8568,-0.8735,-0.882,-0.8832,-0.9173,-0.9356,-0.9356,-0.9356,0.0,0.0,0.0,0.0,0.0,0.0,0.0,0.0,0.0,0.0,0.0,0.0,0.0,0.0,0.0,0.0,0.0,0.0,0.0,0.0,0.0,0.0,0.0,0.0,0.0,0.0,0.0,-0.5217,0.0,0.0,0.0,0.0,0.0,0.0,0.0,0.0,0.0,0.0,0.0,0.0,0.0,0.0,-0.3634,-0.3932,-0.4692,-0.5541,0.0,0.0,-0.7727,-0.8468,-0.8641,-0.8818,0.0,0.0,0.0,0.0,0.0,0.0,0.0,0.0,0.0,0.0,0.0,0.0,0.0,0.0,0.0,0.0,0.0,0.0,0.0,0.0,0.0,0.0,0.0,0.0,0.0,0.0,0.0,0.0,0.0,0.0,0.0,0.0,0.0,0.0,0.0,0.0,0.0,0.0,0.0,0.0,0.0,0.0,0.0,0.0,0.0,0.0,0.0,0.0,0.0,0.0,0.0,0.0,0.0,0.0,0.0,-0.8568,-0.8731,-0.8816,-0.8828,-0.9169,-0.9356,-0.9356,-0.9356,-0.9362,0.0,0.0,0.0,0.0,0.0,0.0,0.0,0.0,0.0,0.0,0.0,0.0,0.0,0.0,0.0,0.0,0.0,0.0,0.0,0.0,0.0,0.0,0.0,0.0,0.0,0.0,0.0,0.0,0.0,0.0,0.0,0.0,0.0,0.0,0.0,0.0,0.0,0.0,0.0,0.0,0.0,-0.3786,-0.3995,-0.4931,-0.5837,0.0,0.0,-0.7933,-0.8244,-0.8606,-0.8787,-0.8633,0.0,0.0,0.0,0.0,0.0,0.0,0.0,0.0,0.0,0.0,0.0,0.0,0.0,0.0,0.0,0.0,0.0,0.0,0.0,0.0,0.0,0.0,0.0,0.0,0.0,0.0,0.0,0.0,0.0,0.0,0.0,0.0,0.0,0.0,0.0,0.0,0.0,0.0,0.0,0.0,0.0,0.0,0.0,0.0,0.0,0.0,0.0,0.0,0.0,0.0,0.0,0.0,0.0,-0.8268,-0.8564,-0.8629,-0.8662,-0.8674,-0.8901,-0.9116,-0.9301,-0.9296,-0.9304,0.0,0.0,0.0,0.0,0.0,0.0,0.0,0.0,0.0,0.0,0.0,0.0,0.0,0.0,0.0,0.0,0.0,0.0,0.0,0.0,0.0,0.0,0.0,0.0,0.0,0.0,0.0,0.0,-0.5773,-0.5363,-0.4349,0.0,0.0,0.0,0.0,0.0,0.0,0.0,0.0,0.0,0.0,-0.3653,-0.4071,-0.4673,0.0,0.0,-0.6946,-0.7784,-0.8531,-0.8707,-0.884,-0.8885,-0.8241,0.0,0.0,0.0,0.0,0.0,0.0,0.0,0.0,0.0,0.0,0.0,0.0,0.0,0.0,0.0,0.0,0.0,0.0,0.0,0.0,0.0,0.0,0.0,0.0,0.0,0.0,0.0,0.0,0.0,0.0,0.0,0.0,0.0,0.0,0.0,0.0,0.0,0.0,0.0,0.0,0.0,0.0,0.0,0.0,0.0,0.0,0.0,0.0,0.0,0.0,0.0,0.0,-0.8117,-0.8479,-0.854,-0.8572,-0.8572,-0.882,-0.9001,-0.9268,-0.9448,-0.9656,0.0,0.0,0.0,0.0,0.0,0.0,0.0,0.0,0.0,0.0,0.0,0.0,0.0,0.0,0.0,0.0,0.0,0.0,0.0,0.0,0.0,0.0,0.0,0.0,0.0,0.0,0.0,0.0,-0.5912,-0.5455,-0.4327,0.0,0.0,0.0,0.0,0.0,0.0,0.0,0.0,0.0,0.0,-0.3592,-0.4107,-0.4612,-0.5218,-0.6195,-0.6952,-0.7621,-0.8376,-0.8581,-0.8619,-0.877,0.0,0.0,0.0,0.0,0.0,0.0,0.0,0.0,0.0,0.0,0.0,0.0,0.0,0.0,0.0,0.0,0.0,0.0,0.0,0.0,0.0,0.0,0.0,0.0,0.0,0.0,0.0,0.0,0.0,0.0,0.0,0.0,0.0,0.0,0.0,0.0,0.0,0.0,0.0,0.0,0.0,0.0,0.0,0.0,0.0,0.0,0.0,0.0,0.0,0.0,0.0,0.0,0.0,-0.7947,-0.8296,-0.8479,-0.8568,-0.8568,-0.8999,-0.9259,-0.953,-0.9899,-1.0348,-1.087,0.0,0.0,0.0,0.0,0.0,0.0,0.0,0.0,0.0,0.0,0.0,0.0,0.0,0.0,0.0,0.0,0.0,0.0,0.0,0.0,0.0,0.0,0.0,0.0,0.0,0.0,-0.6722,-0.5798,-0.4915,0.0,0.0,0.0,0.0,0.0,0.0,0.0,0.0,0.0,0.0,-0.3701,-0.3946,-0.4263,-0.4992,-0.5701,-0.6297,-0.7116,-0.7779,-0.7942,-0.8146,-0.8264,0.0,0.0,0.0,0.0,0.0,0.0,0.0,0.0,0.0,0.0,0.0,0.0,0.0,0.0,0.0,0.0,0.0,0.0,0.0,0.0,0.0,0.0,0.0,0.0,0.0,0.0,0.0,-1.0865,-1.0855,0.0,0.0,0.0,0.0,0.0,0.0,0.0,0.0,0.0,0.0,0.0,-0.9962,-0.9786,0.0,0.0,0.0,0.0,0.0,0.0,0.0,0.0,0.0,0.0,0.0,0.0,-0.8048,-0.8284,-0.8645,-0.8823,-0.8823,-0.9231,-0.9614,-1.0045,-1.0314,-1.084,-1.1614,0.0,0.0,0.0,0.0,0.0,0.0,0.0,0.0,0.0,0.0,0.0,0.0,0.0,0.0,0.0,0.0,0.0,0.0,0.0,0.0,0.0,0.0,0.0,0.0,0.0,-0.708,0.0,0.0,0.0,0.0,0.0,0.0,0.0,0.0,0.0,0.0,0.0,-0.3559,-0.3753,-0.3924,-0.42,-0.4506,-0.466,-0.4984,0.0,0.0,0.0,0.0,0.0,0.0,0.0,0.0,0.0,0.0,0.0,0.0,0.0,0.0,-0.9315,-0.8886,-0.8781,-0.8959,-0.9414,0.0,0.0,0.0,0.0,0.0,0.0,0.0,0.0,0.0,0.0,0.0,0.0,0.0,0.0,0.0,0.0,-1.1345,0.0,0.0,0.0,0.0,0.0,0.0,0.0,0.0,-1.066,-1.066,-1.0675,-1.0499,-1.0367,0.0,-0.9772,-0.9329,0.0,0.0,0.0,0.0,0.0,0.0,0.0,0.0,-0.8098,-0.8367,-0.8871,-0.9174,-0.9253,-0.9685,-1.0207,-1.0636,-1.1068,-1.1627,-1.2312,-1.1908,-1.157,0.0,0.0,0.0,0.0,0.0,0.0,0.0,0.0,0.0,0.0,0.0,0.0,0.0,0.0,0.0,0.0,0.0,0.0,0.0,0.0,0.0,0.0,0.0,-0.7174,0.0,0.0,0.0,0.0,0.0,0.0,0.0,0.0,0.0,-0.3697,-0.371,-0.3808,-0.3984,-0.406,-0.4233,-0.4608,0.0,0.0,0.0,0.0,0.0,0.0,0.0,-0.7967,-0.8512,-0.9012,-0.9513,-0.9948,-1.0163,-1.0299,-1.0472,0.0,0.0,-0.9764,-0.9695,-0.9887,-1.0148,-1.0311,-1.0453,-1.0391,-1.0243,-1.0089,0.0,0.0,0.0,0.0,0.0,0.0,0.0,0.0,-1.2628,-1.2969,0.0,-1.274,0.0,0.0,0.0,0.0,0.0,0.0,0.0,0.0,-1.1406,-1.1679,-1.1927,-1.1938,-1.1729,-1.1338,-1.0895,-1.0449,-0.9991,-0.8691,0.0,0.0,0.0,0.0,0.0,0.0,-0.826,-0.8461,-0.924,-0.9777,-0.9946,-1.0376,-1.0895,-1.1322,-1.2272,-1.2837,-1.3004,-1.2953,-1.2424,-1.1346,-1.1043,0.0,0.0,0.0,0.0,0.0,0.0,0.0,0.0,0.0,0.0,0.0,0.0,0.0,0.0,0.0,0.0,0.0,0.0,0.0,0.0,-0.6945,0.0,0.0,0.0,0.0,0.0,0.0,0.0,0.0,0.0,0.0,-0.4606,-0.438,-0.4333,-0.4266,0.0,0.0,0.0,0.0,-0.5432,-0.6117,-0.6541,-0.6761,-0.6927,-0.7282,-0.7571,-0.783,0.0,0.0,-1.0174,-1.0509,-1.0733,-1.0921,-1.1008,-1.0916,-1.0722,-1.0799,-1.0901,-1.0987,-1.1128,-1.1161,-1.1025,-1.0848,-1.08,-0.9705,0.0,0.0,0.0,0.0,-1.0858,-1.1461,-1.1927,-1.3097,-1.3696,-1.387,-1.3218,0.0,0.0,0.0,0.0,0.0,0.0,-1.1649,-1.2048,-1.2082,-1.2093,-1.1973,-1.1875,-1.1743,-1.1585,-1.116,-1.0869,-1.0706,-1.006,-0.9628,-0.9303,0.0,0.0,0.0,0.0,-0.9326,-0.9554,-1.0066,-1.0463,-1.0722,-1.1235,-1.1929,-1.2534,-1.3137,-1.3348,-1.3238,-1.3043,-1.2737,-1.2408,-1.1372,0.0,0.0,0.0,0.0,0.0,0.0,0.0,0.0,0.0,0.0,0.0,0.0,0.0,0.0,0.0,0.0,0.0,0.0,0.0,-0.7438,-0.7246,-0.7058,0.0,0.0,0.0,0.0,0.0,0.0,0.0,0.0,0.0,-0.6226,-0.5643,-0.5167,0.0,0.0,-0.5209,-0.5296,-0.5281,-0.5371,-0.5735,0.0,0.0,0.0,-0.6789,-0.7285,-0.8114,-0.9148,-1.0088,-1.0534,-1.0809,-1.0921,-1.1008,-1.1089,-1.1176,-1.1176,-1.1176,-1.1176,-1.116,-1.0916,-1.0667,-1.0664,-1.0476,-1.0274,-0.9782,-0.9624,-0.9624,-0.978,-1.0117,-1.1161,-1.1844,-1.2299,-1.3632,-1.4352,-1.4409,-1.4071,-1.3843,-1.3748,-1.2783,0.0,0.0,0.0,-1.2454,-1.2625,-1.2527,-1.2527,-1.2466,-1.2283,-1.2277,-1.2277,-1.1935,-1.1757,-1.1671,-1.1541,-1.1294,-1.0863,0.0,0.0,-0.9932,-0.9932,-0.9883,-0.9968,-1.0512,-1.0968,-1.122,-1.1989,-1.2687,-1.3307,-1.3464,-1.3483,-1.3395,-1.3081,-1.2792,-1.2713,-1.1808,-1.1126,0.0,0.0,0.0,0.0,0.0,0.0,0.0,0.0,0.0,0.0,0.0,-0.7033,-0.723,0.0,0.0,0.0,-0.6998,-0.7307,-0.7745,-0.7584,0.0,0.0,0.0,0.0,0.0,0.0,0.0,-0.7364,-0.723,-0.7152,-0.7388,-0.6861,-0.6294,-0.5684,-0.5491,-0.5482,-0.5566,0.0,-0.5329,-0.5626,-0.5702,-0.5844,-0.6135,-0.6588,-0.7244,-0.8349,-0.925,-0.9935,-1.0197,-1.0519,-1.0665,-1.0757,-1.09,-1.0984,-1.0979,-1.0984,-1.1016,-1.1176,-1.0819,-1.0536,-1.0519,-1.0266,-1.0144,-0.9782,-0.9628,-0.9624,-0.9828,-1.0171,-1.121,-1.1956,-1.2531,-1.4094,-1.4688,-1.4765,-1.5052,-1.4754,-1.4161,-1.3633,0.0,0.0,-1.3228,-1.3137,-1.3143,-1.2881,-1.2875,-1.3143,-1.3112,-1.3105,-1.3105,-1.3087,-1.2899,-1.2735,-1.2892,-1.2904,-1.2668,-1.1112,-1.0335,-1.0508,-1.0395,-1.0279,-1.0095,-1.0872,-1.1381,-1.1599,-1.2488,-1.3233,-1.3652,-1.3417,-1.3349,-1.3554,-1.3039,-1.2669,-1.2503,-1.2159,-1.1665,-1.0912,0.0,0.0,0.0,0.0,0.0,0.0,0.0,0.0,0.0,0.0,0.0,0.0,0.0,0.0,0.0,-0.7344,0.0,-0.7975,-0.7823,0.0,0.0,0.0,-0.6885,-0.6976,-0.6949,-0.7161,-0.7736,0.0,0.0,-0.8219,0.0,-0.7574,-0.623,-0.5628,-0.5398,-0.5692,-0.546,-0.5449,-0.5833,-0.5953,-0.6018,-0.6034,-0.6518,-0.7214,-0.807,-0.8769,-0.9139,-0.94,-0.9868,-1.0123,-1.0218,-1.04,-1.0573,-1.0562,-1.0573,-1.0676,-1.088,-1.0751,-1.0541,-1.0358,-1.0266,-1.0279,-0.9786,-0.9628,-0.9624,-0.9895,-1.0347,-1.1272,-1.2042,-1.278,-1.4178,-1.479,-1.5064,-1.5245,-1.4929,-1.4158,-1.3636,-1.3483,-1.3652,-1.3398,-1.3398,-1.3568,-1.3313,-1.3222,-1.33,-1.3098,-1.2997,-1.2984,-1.2782,-1.26,-1.2519,-1.2663,-1.277,-1.2895,-1.2529,-1.2153,-1.1905,-1.1466,-1.1422,-1.1706,-1.194,-1.2207,-1.2578,-1.2795,-1.3026,-1.3333,-1.3267,-1.3121,-1.2966,-1.2896,-1.2645,-1.235,-1.2116,-1.1822,-1.1458,-1.0722,0.0,0.0,0.0,0.0,0.0,0.0,0.0,0.0,0.0,-0.7379,-0.789,0.0,-0.8038,0.0,-0.8201,-0.8242,-0.8285,-0.8164,0.0,0.0,-0.7704,-0.7659,-0.7832,-0.7716,-0.7909,-0.8801,-0.8715,-0.8724,-0.9215,-0.8787,-0.8296,-0.7761,-0.7014,-0.6305,-0.6002,-0.5796,-0.5734,-0.5619,-0.5594,-0.5628,-0.5818,-0.6199,-0.6593,-0.6888,-0.7472,-0.7871,-0.7911,-0.8739,-0.9393,-0.9423,-0.9902,-1.0314,-1.0379,-1.0338,-1.0401,-1.0444,-1.0406,-1.0363,-1.0304,-1.0143,-1.0041,-0.9713,-0.9624,-0.9624,-0.9821,-1.0314,-1.11,-1.178,-1.2554,-1.3695,-1.4319,-1.4578,-1.4734,-1.4652,-1.4335,-1.3867,-1.3737,-1.3828,-1.3652,-1.3568,-1.3646,-1.3355,-1.3297,-1.3374,-1.3097,-1.3043,-1.3037,-1.2881,-1.2803,-1.2803,-1.2803,-1.2888,-1.3118,-1.2994,-1.2743,-1.2502,-1.2267,-1.2195,-1.23,-1.2351,-1.2533,-1.285,-1.285,-1.2909,-1.3048,-1.2929,-1.2711,-1.2339,-1.2201,-1.1998,-1.1722,-1.1676,-1.1595,-1.1376,-1.0996,-1.0414,0.0,0.0,0.0,0.0,0.0,0.0,0.0,0.0,0.0,0.0,0.0,-0.8449,0.0,-0.8497,0.0,-0.8506,-0.8418,-0.837,-0.8392,-0.8291,-0.8311,-0.8485,-0.8385,-0.863,-0.9335,-0.9267,-0.9243,-0.9523,-0.9298,-0.8832,-0.8436,-0.7689,-0.6959,-0.6248,-0.5887,-0.5658,-0.5455,-0.5412,-0.5455,-0.571,-0.5954,-0.6117,-0.628,-0.6692,-0.7087,-0.7174,-0.7975,-0.8685,-0.8843,-0.9375,-0.9853,-1.0001,-1.0068,-1.0159,-1.0256,-1.0202,-1.0137,-1.0132,-1.0182,-1.0242,-0.9624,-0.9624,-0.9624,-0.9723,-1.0019,-1.0703,-1.1389,-1.2058,-1.2975,-1.3689,-1.4007,-1.4135,-1.4348,-1.4502,-1.4222,-1.4088,-1.4082,-1.3822,-1.3717,-1.3665,-1.3258,-1.313,-1.3241,-1.3047,-1.2989,-1.3153,-1.3106,-1.3093,-1.3093,-1.3093,-1.3106,-1.314,-1.2872,-1.2744,-1.2651,-1.2732,-1.2563,-1.2332,-1.2447,-1.2612,-1.2822,-1.2822,-1.2795,-1.2805,-1.2524,-1.2155,-1.1742,-1.1395,-1.1128,-1.0905,-1.1147,-1.1228,-1.1013,-1.1089,-1.0819,0.0,-0.958,0.0,0.0,0.0,0.0,0.0,0.0,0.0,0.0,-0.8567,-0.875,-0.8642,-0.8564,-0.8524,-0.8671,-0.8684,-0.8698,-0.8779,-0.8751,-0.8833,-0.9032,-0.8998,-0.916,-0.9544,-0.9625,-0.9625,-0.9646,-0.9638,-0.9291,-0.8625,-0.8034,-0.7396,-0.6512,-0.5888,-0.5456,-0.5394,-0.5322,-0.538,-0.5553,-0.5564,-0.5726,-0.5891,-0.6207,-0.6515,-0.6541,-0.7319,-0.7985,-0.815,-0.8741,-0.9261,-0.9468,-0.9706,-0.9997,-1.0269,-1.0182,-1.009,-1.0084,-1.0209,-1.0489,-0.9624,-0.9624,-0.9624,-0.9628,-0.9727,-1.0117,-1.0806,-1.1765,-1.2775,-1.368,-1.4469,-1.4317,-1.4342,-1.4502,-1.4215,-1.4088,-1.4088,-1.4088,-1.3864,-1.3639,-1.3503,-1.3358,-1.3194,-1.2979,-1.2832,-1.2819,-1.2585,-1.2478,-1.2472,-1.2472,-1.2592,-1.2832,-1.2849,-1.2822,-1.2876,0.0,0.0,0.0,-1.2674,-1.2752,-1.2822,-1.2822,-1.2696,-1.2588,-1.2022,0.0,-1.1369,-1.1102,-1.0937,-1.0893,-1.1141,0.0,0.0,0.0,0.0,0.0,0.0,0.0,0.0,0.0,0.0,0.0,-0.8396,-0.8505,-0.8383,-0.8882,-0.9094,-0.8941,-0.9044,-0.9042,-0.8923,-0.9063,-0.9202,-0.9163,-0.9158,-0.9214,-0.9246,-0.9241,-0.9316,-0.9544,-0.9625,-0.97,-0.9776,-0.9661,-0.9438,-0.8937,-0.8358,-0.7696,-0.6958,-0.6087,-0.5529,-0.539,-0.5179,-0.5089,-0.5165,-0.5176,-0.5187,-0.5241,-0.5396,-0.5623,-0.5683,-0.6376,-0.6994,-0.7173,-0.8093,-0.8856,-0.9084,-0.9539,-0.9943,-1.0231,-1.0352,-1.0456,-1.0445,-1.017,-0.9997,-0.9624,0.0,-0.9624,-0.9624,0.0,-0.992,-1.0314,-1.0881,-1.18,-1.2836,-1.3811,-1.3844,-1.3959,-1.4302,-1.4148,-1.4001,-1.3868,-1.3874,-1.3714,-1.3427,-1.3267,-1.3126,-1.2966,-1.2665,-1.2525,-1.2518,-1.2378,-1.2305,-1.2305,-1.2305,-1.2378,-1.2525,-1.2525,-1.253,-1.2446,-1.2453,-1.2447,-1.2433,-1.2672,-1.2755,-1.2532,-1.2525,-1.245,-1.2293,0.0,0.0,0.0,0.0,0.0,0.0,0.0,0.0,0.0,0.0,0.0,-1.071,-1.037,-0.9857,-0.909,-0.8727,-0.8449,-0.8316,-0.848,-0.8604,-0.8695,-0.8862,-0.8973,-0.8878,-0.9024,-0.914,-0.9037,-0.9175,-0.9322,-0.9397,-0.9473,-0.9473,-0.9544,-0.9625,-0.962,-0.9695,-0.9771,-0.9771,-0.9846,-0.9846,-0.962,-0.9311,-0.8784,-0.8174,-0.7561,-0.6483,-0.5631,-0.5249,-0.509,-0.5018,-0.5018,-0.5018,-0.5018,-0.5018,-0.5168,-0.5323,-0.5323,-0.5944,-0.6563,-0.6865,-0.7787,-0.8627,-0.9003,-0.9533,-1.0122,-1.0352,-1.0445,-1.0577,-1.0642,-1.0519,-1.0187,-0.9624,-0.9624,-0.9624,-0.9624,-0.9628,-0.9821,-1.0002,-1.0143,0.0,0.0,0.0,-1.3313,-1.3652,-1.4088,-1.4035,-1.3868,-1.3566,-1.3506,-1.3407,-1.312,-1.2866,-1.2795,-1.2659,-1.2418,-1.2305,-1.2305,-1.2305,-1.2305,-1.2305,-1.2305,-1.2305,-1.2305,-1.2305,-1.2224,-1.2077,-1.2077,-1.2133,-1.2368,-1.2649,-1.2701,-1.2392,-1.2378,-1.2304,-1.2081,-1.1983,-1.1741,-1.1306,-1.1249,-1.1115,-1.0912,-1.1147,-1.1293,-1.1312,-1.1789,-1.1733,-1.1234,-1.1057,-1.0567,-0.9504,-0.9101,-0.8741,-0.8264,-0.8484,-0.8702,-0.8959,-0.8807,-0.878,-0.878,-0.9018,-0.9099,-0.9099,-0.9322,-0.9468,-0.962,-0.9695,-0.9695,-0.9846,-0.9922,-0.9846,-0.9922,-0.9922,-0.9922,-0.9922,-0.9922,-0.9846,-0.962,-0.9084,-0.8556,-0.7944,-0.6791,-0.5789,-0.5249,-0.509,-0.5015,-0.5018,-0.5018,-0.5018,-0.5018,-0.5093,-0.5243,-0.5323,-0.5789,-0.6254,-0.671,-0.7629,-0.8399,-0.8851,-0.9609,-1.0242,-1.0517,-1.0577,-1.0553,-1.0683,-1.0677,-1.0454,-0.9624,-0.9624,-0.9624,-0.9624,-0.9624,-0.9628,-0.993,-1.0441,-1.1228,-1.2126,-1.3058,-1.3307,-1.3652,-1.4075,-1.3821,-1.3681,-1.3627,-1.338,-1.3106,0.0,-1.2842,-1.2688,-1.2365,-1.2318,-1.2305,-1.2305,-1.2305,-1.2305,-1.2305,-1.2305,-1.2305,-1.2305,-1.2305,-1.2298,-1.2305,-1.2231,-1.2251,-1.2297,-1.2619,-1.2802,-1.2761,-1.2761,-1.2616,-1.2457,-1.1905,-1.1553,-1.1299,-1.1077,-1.0924,-1.0893,-1.1147,-1.1293,-1.1306,-1.1598,-1.1602,-1.1341,-1.0738,-1.0214,-0.9846,-0.919,-0.8813,-0.8875,-0.9094,-0.9108,-0.8985,-0.8966,-0.9022,-0.917,-0.9397,-0.9549,-0.9544,-0.9695,-0.9771,-0.9846,-0.9841,-0.9846,-0.9922,-0.9922,-0.9922,-0.9922,-0.9922,-0.9922,-0.9922,-0.9922,-0.9846,-0.962,-0.9236,-0.8623,-0.7638,-0.6721,-0.6022,-0.5401,-0.5246,-0.5168,-0.5093,-0.5018,-0.5018,-0.5018,-0.5018,-0.5093,-0.5093,-0.5404,-0.5867,-0.6244,-0.7246,-0.8089,-0.8627,-0.9387,-1.0024,-1.0405,-1.0628,-1.0666,-1.049,-1.0423,-1.0275,-0.9624,-0.9624,-0.9624,-0.9624,-0.9624,-0.9624,-0.9917,-1.041,-1.0976,-1.1694,-1.2673,-1.2949,-1.3307,-1.3802,-1.3602,-1.3391,-1.3394,-1.3093,-1.2792,-1.2518,-1.2498,-1.2432,-1.2318,-1.2305,-1.2305,-1.2305,-1.2305,-1.2305,-1.2305,-1.2305,-1.2218,-1.2064,-1.1911,-1.1824,-1.1837,-1.1991,-1.2064,-1.2071,-1.2358,-1.2505,-1.2505,-1.2505,-1.2512,-1.2362,-1.2091,-1.1959,-1.188,-1.1834,-1.1839,-1.1832,-1.2031,-1.2177,-1.2184,-1.2158,-1.2077,-1.1706,-1.1111,-1.0438,-0.9922,-0.916,-0.8784,-0.8946,-0.9099,-0.9175,-0.9322,-0.9251,-0.917,-0.9322,-0.9473,-0.9625,-0.9625,-0.9771,-0.9922,-0.9922,-0.9922,-0.9922,-0.9922,-0.9922,-0.9922,-0.9922,-0.9922,-0.9922,-0.9922,-0.9922,-0.9846,-0.9771,-0.9392,-0.8784,-0.8021,-0.7488,-0.6872,-0.5864,-0.5556,-0.5401,-0.5171,-0.5171,-0.5093,-0.5018,-0.5018,-0.5018,-0.5018,-0.5326,-0.5712,-0.6015,-0.7011,-0.7859,-0.8475,-0.9387,-1.0067,-1.0443,-1.0738,-1.0809,-1.0578,-1.0329,-1.0025,-0.9624,-0.9624,-0.9624,-0.9624,-0.9624,-0.9624,-0.9836,-1.0289,-1.0528,-1.1145,-1.2037,-1.2482,-1.3107,-1.362,-1.3378,-1.3179,-1.318,-1.2819,-1.2518,-1.2318,-1.2305,-1.2305,-1.2305,-1.2305,-1.2265,-1.2211,-1.2204,-1.2204,-1.2204,-1.2204,-1.2131,-1.1944,-1.1663,-1.1557,-1.163,-1.185,-1.1964,-1.1977,-1.2191,-1.2305,-1.2305,-1.2305,-1.2305,-1.2305,-1.2305,-1.2305,-1.2305,-1.2519,-1.2599,-1.2599,-1.2826,-1.29,-1.29,-1.268,-1.2445,-1.2003,-1.1409,-1.0743,-0.9916,-0.9236,-0.8937,-0.9099,-0.9094,-0.9322,-0.9625,-0.9544,-0.9392,-0.9473,-0.9625,-0.9695,-0.9695,-0.9771,-0.9922,-0.9922,-0.9922,-0.9922,-0.9922,-0.9922,-0.9922,-0.9922,-0.9922,-0.9922,-0.9922,-0.9922,-0.9846,-0.9771,-0.9549,-0.917,-0.8632,-0.8327,-0.7714,-0.6788,-0.6096,-0.5712,-0.5398,-0.5323,-0.5246,-0.5018,-0.5018,-0.5018,-0.5096,-0.5329,-0.5715,-0.6018,-0.6938,-0.7859,-0.8475,-0.9387,-1.0115,-1.0439,-1.0769,-1.09,-1.0562,-1.0212,-0.9814,-0.9624,-0.9624,-0.962,-0.9624,-0.962,-0.962,-0.9801,-1.0066,-1.0114,-1.0575,-1.1425,-1.2299,-1.3021,-1.36,-1.317,-1.2995,-1.3146,-1.2605,-1.2331,-1.2305,-1.2305,-1.2305,-1.2305,-1.2305,-1.2164,-1.1957,-1.1937,-1.1964,-1.1957,-1.1931,-1.2031,-1.2198,-1.1971,-1.1931,-1.2171,-1.2225,-1.2251,-1.2258,-1.2291,-1.2305,-1.2305,-1.2305,-1.2305,-1.2305,-1.2305,-1.2305,-1.2298,-1.2459,-1.2599,-1.2599,-1.282,-1.29,-1.29,-1.2673,-1.2452,-1.2003,-1.1409,-1.0663,-0.9771,-0.9397,-0.9322,-0.9544,-0.9549,-0.962,-0.9846,-0.9846,-0.9846,-0.9846,-0.9846,-0.9841,-0.9841,-0.9846,-0.9922,-0.9922,-0.9922,-0.9922,-0.9922,-0.9922,-0.9922,-0.9922,-0.9922,-0.9922,-0.9922,-0.9922,-0.9846,-0.9695,-0.962,-0.9468,-0.9003,-0.878,-0.8475,-0.7791,-0.7099,-0.6251,-0.5631,-0.5321,-0.5246,-0.5096,-0.5018,-0.5018,-0.5093,-0.5329,-0.5715,-0.6093,-0.6942,-0.7863,-0.8703,-0.9453,-0.9974,-1.0346,-1.0556,-1.0671,-1.0411,-1.0134,-0.979,-0.9624,-0.9616,-0.951,-0.9466,-0.9466,-0.9466,-0.9726,-1.0006,-1.004,-1.041,-1.1042,-1.1754,-1.2405,-1.3048,-1.2737,-1.2798,-1.2906,-1.2492,-1.2305,-1.2305,-1.2305,-1.2305,-1.2305,-1.2305,-1.2231,-1.2131,-1.2124,-1.2124,-1.2098,-1.1957,-1.1931,-1.1997,-1.1757,-1.167,-1.179,-1.1957,-1.2044,-1.2051,-1.2218,-1.2305,-1.2305,-1.2305,-1.2305,-1.2305,-1.2305,-1.2305,-1.2305,-1.2599,-1.2753,-1.2826,-1.3127,-1.3273,-1.3273,-1.3046,-1.282,-1.2526,-1.1706,-1.0962,-1.0363,-0.9922,-0.969,-0.9771,-0.9695,-0.97,-0.9846,-0.9922,-0.9922,-0.9922,-0.9922,-0.9922,-0.9922,-0.9922,-0.9922,-0.9922,-0.9922,-0.9922,-0.9922,-0.9922,-0.9922,-0.9922,-0.9922,-0.9922,-0.9922,-0.9922,-0.9846,-0.9765,-0.9771,-0.962,-0.9387,-0.9311,-0.8932,-0.8403,-0.7944,-0.7249,-0.6328,-0.5944,-0.5715,-0.5323,-0.5168,-0.5168,-0.5093,-0.5329,-0.5715,-0.6015,-0.6938,-0.7863,-0.8623,-0.9335,-0.9957,-1.0252,-1.0396,-1.0341,-1.0083,-0.9952,-0.9772,-0.9596,-0.9535,-0.9409,-0.9356,-0.936,-0.9409,-0.96,-0.9903,-0.9866,-1.014,-1.0672,-1.1156,-1.1636,-1.2164,-1.2401,-1.2557,-1.2656,-1.2438,-1.2305,-1.2305,-1.2305,-1.2305,-1.2305,-1.2305,-1.2258,-1.2191,-1.2171,-1.2178,-1.2164,-1.1977,-1.1975,-1.1931,-1.1697,-1.159,-1.1683,-1.1891,-1.1991,-1.2011,-1.2204,-1.2265,-1.2264,-1.2251,-1.2257,-1.2251,-1.2251,-1.2224,-1.2202,-1.2504,-1.2713,-1.2713,-1.3086,-1.336,-1.3367,-1.3222,-1.3119,-1.2826,-1.2003,-1.1416,-1.1037,-1.0513,-1.0143,-1.0067,-0.9846,-0.9695,-0.9841,-0.9922,-0.9922,-0.9922,-0.9922,-0.9922,-0.9922,-0.9922,-0.9922,-0.9922,-0.9922,-0.9922,-0.9922,-0.9922,-0.9922,-0.9922,-0.9922,-0.9922,-0.9922,-0.9922,-0.9846,-0.9846,-0.9846,-0.9846,-0.9695,-0.962,-0.9473,-0.8861,-0.8708,-0.8016,-0.6945,-0.6409,-0.6099,-0.5637,-0.5401,-0.5323,-0.5249,-0.5559,-0.5948,-0.656,-0.7326,-0.8045,-0.8806,-0.9416,-0.9829,-1.0154,-1.0206,-1.0101,-0.9946,-0.9874,-0.9802,-0.9527,-0.9372,-0.9452,-0.9344,-0.9364,-0.9527,-0.9608,-0.9616,-0.9546,-0.9737,-1.0186,-1.0543,-1.0885,-1.1318,-1.2068,-1.2478,-1.249,-1.2357,-1.2305,-1.2305,-1.2305,-1.2305,-1.2305,-1.2305,-1.2164,-1.1977,-1.1971,-1.1951,-1.1924,-1.1897,-1.2011,-1.2245,-1.1991,-1.1984,-1.2184,-1.2238,-1.2278,-1.2265,-1.2291,-1.2244,-1.2145,-1.2111,-1.2111,-1.2077,-1.209,-1.2045,-1.1943,-1.2093,-1.2237,-1.223,-1.2731,-1.3031,-1.306,-1.3107,-1.3039,-1.2673,-1.2224,-1.1935,-1.1632,-1.1111,-1.0663,-1.0438,-1.0143,-0.9916,-0.9916,-0.9922,-0.9922,-0.9922,-0.9922,-0.9922,-0.9922,-0.9922,-0.9922,-0.9922,-0.9922,-0.9922,-0.9922,-0.9922,-0.9922,-0.9922,-0.9922,-0.9922,-0.9922,-0.9922,-0.9922,-0.9922,-0.9922,-0.9846,-0.9846,-0.9846,-0.9695,-0.9549,-0.9241,-0.8627,-0.7022,-0.6714,-0.6409,-0.5944,-0.5789,-0.5634,-0.5867,-0.6099,-0.6563,-0.7026,-0.7638,-0.8326,-0.8985,-0.947,-0.9786,-0.9909,-0.9926,-0.9832,-0.9784,-0.9844,-0.9784,-0.9279,-0.9027,-0.9141,-0.919,-0.921,-0.938,-0.9518,-0.9604,-0.9433,-0.944,-0.9701,-1.0037,-1.0303,-1.0622,-1.1338,-1.1895,-1.2166,-1.2123,-1.2157,-1.2305,-1.2305,-1.2305,-1.2305,-1.2305,-1.2258,-1.2164,-1.2151,-1.2144,-1.2144,-1.2144,-1.2198,-1.2271,-1.2204,-1.2204,-1.2291,-1.2305,-1.2305,-1.2305,-1.2378,-1.2376,-1.2168,-1.2219,-1.2186,-1.1952,-1.1963,-1.1943,-1.1901,-1.2105,-1.2173,-1.2173,-1.2499,-1.2797,-1.3009,-1.3244,-1.3346,-1.3193,-1.29,-1.2673,-1.2452,-1.1935,-1.1409,-1.1111,-1.0594,-1.0218,-1.0143,-0.9992,-0.9922,-0.9922,-0.9922,-0.9922,-0.9922,-0.9922,-0.9922,-0.9922,-0.9922,-0.9922,-0.9922,-0.9922,-0.9922,-0.9922,-0.9922,-0.9922,-0.9922,-0.9922,-0.9922,-0.9922,-0.9922,-0.9922,-0.9922,-0.9922,-0.9841,-0.9695,-0.9468,-0.9089,-0.8016,-0.7553,-0.7169,-0.6714,-0.6405,-0.617,-0.6247,-0.6556,-0.6942,-0.733,-0.7944,-0.8666,-0.9406,-0.9796,-1.0003,-0.9787,-0.9736,-0.9742,-0.9622,-0.9694,-0.9676,-0.9043,-0.8861,-0.8954,-0.9043,-0.9116,-0.9279,-0.9458,-0.9596,-0.9433,-0.9411,-0.953,-0.9744,-1.002,-1.023,-1.0807,-1.1365,-1.1874,-1.2003,-1.2077,-1.2305,-1.2305,-1.2305,-1.2305,-1.2305,-1.2305,-1.2305,-1.2305,-1.2305,-1.2305,-1.2305,-1.2305,-1.2305,-1.2305,-1.2305,-1.2305,-1.2305,-1.2305,-1.2305,-1.2526,-1.2415,-1.2136,-1.2214,-1.2126,-1.1826,-1.1767,-1.1808,-1.1808,-1.194,-1.2006,-1.2013,-1.224,-1.2562,-1.2972,-1.3221,-1.3389,-1.3477,-1.3346,-1.32,-1.2973,-1.2532,-1.2077,-1.1632,-1.1111,-1.0663,-1.0368,-1.0143,-0.9992,-0.9922,-0.9922,-0.9922,-0.9922,-0.9922,-0.9922,-0.9922,-0.9922,-0.9922,-0.9922,-0.9922,-0.9922,-0.9922,-0.9922,-0.9922,-0.9922,-0.9922,-0.9922,-0.9922,-0.9922,-0.9922,-0.9922,-0.9922,-0.9846,-0.97,-0.969,-0.9468,-0.8822,-0.8401,-0.7816,-0.7291,-0.7049,-0.6827,-0.682,-0.7061,-0.7371,-0.7698,-0.83,-0.9034,-0.9633,-1.0082,-1.003,-0.9784,-0.9718,-0.976,-0.9652,-0.955,-0.955,-0.8828,-0.8808,-0.8824,-0.893,-0.9092,-0.9275,-0.9458,-0.9563,-0.9417,-0.943,-0.9487,-0.9758,-0.9976,-1.0221,-1.0723,-1.1212,-1.1714,-1.1981,-1.2103,-1.2305,-1.2305,-1.2305,-1.2305,-1.2305,-1.2305,-1.2305,-1.2305,-1.2305,-1.2305,-1.2305,-1.2305,-1.2305,-1.2305,-1.2305,-1.2305,-1.2305,-1.2305,-1.2378,-1.2526,-1.2384,-1.1991,-1.2147,-1.2056,-1.1677,-1.1626,-1.1641,-1.1611,-1.1611,-1.1648,-1.1655,-1.1882,-1.2336,-1.2826,-1.298,-1.3133,-1.336,-1.3448,-1.3382,-1.3142,-1.2896,-1.249,-1.1991,-1.1601,-1.1069,-1.0611,-1.0329,-1.0104,-0.9954,-0.9884,-0.99,-0.989,-0.9884,-0.9895,-0.9922,-0.9922,-0.9922,-0.9922,-0.9911,-0.9911,-0.989,-0.9863,-0.99,-0.99,-0.9873,-0.9868,-0.9868,-0.9873,-0.9873,-0.9852,-0.9825,-0.9873,-0.9868,-0.9723,-0.9442,-0.9373,-0.9224,-0.843,-0.7849,-0.7677,-0.7589,-0.7555,-0.7701,-0.7908,-0.8221,-0.8738,-0.9448,-0.9691,-1.0084,-1.0194,-0.9988,-0.9928,-0.9808,-0.9736,-0.9646,-0.952,-0.8755,-0.8666,-0.8775,-0.8852,-0.8946,-0.9226,-0.9393,-0.9417,-0.9254,-0.9225,-0.9221,-0.9393,-0.9644,-1.0058,-1.0571,-1.131,-1.2012,-1.2246,-1.2368,-1.2351,-1.2311,-1.2318,-1.2311,-1.2311,-1.2305,-1.2305,-1.2305,-1.2305,-1.2305,-1.2305,-1.2305,-1.2305,-1.2305,-1.2305,-1.2305,-1.2305,-1.2372,-1.2526,-1.268,-1.2592,-1.2169,-1.2316,-1.2145,-1.1641,-1.1622,-1.1622,-1.1622,-1.1622,-1.1622,-1.1622,-1.1655,-1.1904,-1.2284,-1.2548,-1.2709,-1.2804,-1.2826,-1.2826,-1.2757,-1.2548,-1.2284,-1.1948,-1.1663,-1.1257,-1.0834,-1.0408,-1.0121,-0.99,-0.9759,-0.9685,-0.9685,-0.9685,-0.9739,-0.99,-0.9922,-0.9895,-0.9863,-0.9771,-0.9696,-0.9663,-0.954,-0.9443,-0.947,-0.955,-0.968,-0.968,-0.9685,-0.9685,-0.9663,-0.9556,-0.9437,-0.9427,-0.9432,-0.9424,-0.9269,-0.9165,-0.8717,-0.8257,-0.8139,-0.8029,-0.8084,-0.8295,-0.85,-0.8782,-0.9212,-0.9575,-0.9869,-1.0077,-1.0152,-1.0107,-0.9946,-0.9874,-0.9844,-0.9724,-0.955,-0.8666,-0.8584,-0.8682,-0.8763,-0.884,-0.9072,-0.9238,-0.9315,-0.9173,-0.9138,-0.9292,-0.9478,-0.9831,-1.0399,-1.0975,-1.1676,-1.2376,-1.2629,-1.2672,-1.2632,-1.2498,-1.2472,-1.2445,-1.2345,-1.2305,-1.2305,-1.2305,-1.2305,-1.2305,-1.2305,-1.2305,-1.2305,-1.2305,-1.2305,-1.2305,-1.2378,-1.2452,-1.2606,-1.2893,-1.2799,-1.2505,-1.2441,-1.227,-1.1802,-1.1689,-1.163,-1.1622,-1.1622,-1.1622,-1.1622,-1.1622,-1.1714,-1.1949,-1.2174,-1.2327,-1.2504,-1.2526,-1.2533,-1.2526,-1.2419,-1.2241,-1.2011,-1.1805,-1.1409,-1.0987,-1.0574,-1.0219,-0.9867,-0.9658,-0.952,-0.9443,-0.9443,-0.9513,-0.9631,-0.9637,-0.9653,-0.9631,-0.9529,-0.9448,-0.941,-0.9314,-0.9222,-0.9249,-0.9314,-0.9443,-0.9437,-0.9443,-0.9443,-0.941,-0.9308,-0.9233,-0.9195,-0.926,-0.9211,-0.9092,-0.8964,-0.889,-0.8658,-0.8503,-0.8431,-0.8322,-0.8689,-0.8969,-0.9259,-0.9684,-0.9831,-1.0089,-1.0178,-1.0271,-1.0081,-0.9908,-0.987,-0.9835,-0.9676,-0.9502,-0.8572,-0.8572,-0.8572,-0.8662,-0.8787,-0.8836,-0.9019,-0.925,-0.9141,-0.9241,-0.9569,-0.9957,-1.0476,-1.1005,-1.1678,-1.2276,-1.2836,-1.2909,-1.3101,-1.3087,-1.2986,-1.2903,-1.2752,-1.2512,-1.2418,-1.2432,-1.2425,-1.2385,-1.2385,-1.2378,-1.2318,-1.2305,-1.2305,-1.2305,-1.2305,-1.2526,-1.2599,-1.2673,-1.2973,-1.3021,-1.2692,-1.2542,-1.2358,-1.2014,-1.1714,-1.1622,-1.1622,-1.1622,-1.1622,-1.1622,-1.1622,-1.1684,-1.1933,-1.1942,-1.2138,-1.2365,-1.2453,-1.2409,-1.2438,-1.2291,-1.2238,-1.209,-1.1885,-1.1669,-1.1198,-1.071,-1.0303,-0.9892,-0.9689,-0.948,-0.9329,-0.9324,-0.926,-0.9168,-0.9244,-0.927,-0.9222,-0.9217,-0.919,-0.9179,-0.9179,-0.9152,-0.9104,-0.9147,-0.9184,-0.919,-0.919,-0.919,-0.9168,-0.913,-0.9147,-0.9109,-0.9034,-0.8943,-0.8885,-0.8847,-0.871,-0.8659,-0.8575,-0.8564,-0.8487,-0.8848,-0.9187,-0.9548,-0.9737,-0.9967,-1.0053,-1.014,-1.017,-1.0119,-1.0003,-0.9943,-0.9791,-0.9616,-0.9502,-0.8572,-0.8572,-0.8572,-0.8593,-0.8653,-0.8763,-0.8865,-0.895,-0.91,-0.9392,-0.9694,-1.0208,-1.0813,-1.1295,-1.2062,-1.2753,-1.3163,-1.3365,-1.3585,-1.3781,-1.3547,-1.3287,-1.3066,-1.2786,-1.2746,-1.2913,-1.2906,-1.2852,-1.2721,-1.2605,-1.2505,-1.2311,-1.2305,-1.2305,-1.2305,-1.2532,-1.268,-1.2826,-1.3046,-1.3122,-1.2953,-1.2626,-1.2298,-1.205,-1.1728,-1.1637,-1.1622,-1.1622,-1.1622,-1.1622,-1.1622,-1.1589,-1.1692,-1.1706,-1.1765,-1.1838,-1.1845,-1.1831,-1.1838,-1.1838,-1.1831,-1.1774,-1.179,-1.1692,-1.1434,-1.0896,-1.0568,-1.0233,-0.997,-0.9773,-0.9699,-0.9564,-0.9355,-0.897,-0.9037,-0.9163,-0.9147,-0.9055,-0.8953,-0.8942,-0.8813,-0.8754,-0.877,-0.8861,-0.8947,-0.8953,-0.8953,-0.8947,-0.8937,-0.8845,-0.8813,-0.8732,-0.8667,-0.8678,-0.8667,-0.8635,-0.8608,-0.8543,-0.8498,-0.8525,-0.8562,-0.8771,-0.9079,-0.9325,-0.9501,-0.9681,-0.9771,-0.9795,-0.9904,-0.9982,-0.9926,-0.9835,-0.9819,-0.9664,-0.9532,-0.8572,-0.8572,-0.8572,-0.8572,-0.8576,-0.8674,-0.8845,-0.8976,-0.9182,-0.954,-1.0019,-1.0595,-1.1249,-1.1944,-1.2625,-1.3162,-1.3566,-1.3745,-1.3921,-1.3995,-1.3761,-1.3474,-1.322,-1.3006,-1.3039,-1.3186,-1.3213,-1.3026,-1.2869,-1.2822,-1.2585,-1.2358,-1.2305,-1.2305,-1.2305,-1.2606,-1.2753,-1.2973,-1.3193,-1.3317,-1.3206,-1.2753,-1.2475,-1.2167,-1.1831,-1.1622,-1.1622,-1.1622,-1.1622,-1.1622,-1.1622,-1.1622,-1.1622,-1.1622,-1.1622,-1.1622,-1.1622,-1.163,-1.1622,-1.1622,-1.1622,-1.1589,-1.1694,-1.1625,-1.1382,-1.106,-1.0744,-1.0419,-1.0223,-1.0027,-0.989,-0.9694,-0.9361,-0.8978,-0.8953,-0.8978,-0.8915,-0.8791,-0.8732,-0.8684,-0.8608,-0.8517,-0.8517,-0.8646,-0.8694,-0.8716,-0.8716,-0.8716,-0.8705,-0.8581,-0.8517,-0.8517,-0.8517,-0.8565,-0.8587,-0.8565,-0.8554,-0.8533,-0.8528,-0.8517,-0.8705,-0.877,-0.904,-0.9309,-0.9356,-0.9426,-0.9515,-0.964,-0.9664,-0.973,-0.97,-0.9688,-0.9676,-0.9658,-0.9532,-0.8572,-0.8572,-0.8572,-0.8572,-0.8572,-0.8576,-0.8831,-0.9097,-0.9341,-0.9786,-1.0544,-1.1154,-1.1872,-1.2794,-1.3123,-1.3626,-1.4068,-1.4041,-1.4062,-1.4015,-1.3834,-1.3601,-1.3427,-1.3307,-1.3313,-1.3373,-1.332,-1.3133,-1.2933,-1.2826,-1.2612,-1.2385,-1.2305,-1.2305,-1.2378,-1.2673,-1.29,-1.2973,-1.3273,-1.3484,-1.3345,-1.2921,-1.2599,-1.2394,-1.1853,-1.1645,-1.1622,-1.1622,-1.1622,-1.1622,-1.1622,-1.1622,-1.1622,-1.1622,-1.1622,-1.1622,-1.1622,-1.1622,-1.1622,-1.1622,-1.1622,-1.1637,-1.163,-1.156,-1.1409,-1.1178,-1.0989,-1.0672,-1.0498,-1.0334,-1.0136,-0.9792,-0.9484,-0.9221,-0.8986,-0.8776,-0.8576,-0.8517,-0.8517,-0.8517,-0.8517,-0.8517,-0.8517,-0.8517,-0.8522,-0.8608,-0.8592,-0.8597,-0.8603,-0.8549,-0.8517,-0.8517,-0.8517,-0.8517,-0.8522,-0.8522,-0.8522,-0.8517,-0.8587,-0.8646,-0.8829,-0.8958,-0.9157,-0.935,-0.9408,-0.9408,-0.9496,-0.952,-0.9526,-0.9538,-0.961,-0.9562,-0.9496,-0.9538,-0.9478,-0.8572,-0.8572,-0.8572,-0.8572,-0.8572,-0.8572,-0.8765,-0.9054,-0.9538,-1.012,-1.0727,-1.1671,-1.2413,-1.3049,-1.3444,-1.3822,-1.4082,-1.4088,-1.4088,-1.4075,-1.4041,-1.3968,-1.3828,-1.3661,-1.3674,-1.3801,-1.3888,-1.3607,-1.3227,-1.3033,-1.2826,-1.2365,-1.2305,-1.2305,-1.2378,-1.2673,-1.29,-1.2973,-1.3273,-1.3492,-1.3433,-1.3104,-1.2745,-1.2475,-1.1889,-1.1652,-1.1622,-1.1622,-1.1622,-1.1622,-1.1622,-1.1622,-1.1622,-1.1622,-1.1622,-1.1622,-1.1622,-1.1622,-1.1622,-1.1622,-1.1622,-1.1622,-1.1622,-1.1622,-1.156,-1.1373,-1.124,-1.1115,-1.0989,-1.0807,-1.0604,-1.0301,-0.9983,-0.9664,-0.9344,-0.9081,-0.8765,-0.8641,-0.8517,-0.8517,-0.8517,-0.8517,-0.8517,-0.8517,-0.8517,-0.8517,-0.8517,-0.8517,-0.8517,-0.8517,-0.8517,-0.8517,-0.8517,-0.8517,-0.8517,-0.8582,-0.8582,-0.8641,-0.8641,-0.877,-0.8958,-0.9087,-0.9215,-0.935,-0.9478,-0.9478,-0.9478,-0.9484,-0.9502,-0.9484,-0.9478,-0.9478,-0.9478,-0.9478,-0.9478,-0.8572,-0.8572,-0.8572,-0.8572,-0.8572,-0.866,-0.8828,-0.9257,-0.9864,-1.0549,-1.1322,-1.2186,-1.2875,-1.3392,-1.3568,-1.3822,-1.4004,-1.4088,-1.4088,-1.4088,-1.4082,-1.4082,-1.4075,-1.3955,-1.3948,-1.4075,-1.4075,-1.3754,-1.3353,-1.3153,-1.2886,-1.2351,-1.2305,-1.2372,-1.2445,-1.2746,-1.2973,-1.3127,-1.3346,-1.3492,-1.344,-1.3177,-1.2745,-1.2321,-1.1831,-1.1622,-1.1622,-1.1622,-1.1622,-1.1622,-1.1622,-1.1622,-1.1622,-1.1622,-1.1622,-1.1622,-1.1622,-1.1622,-1.1622,-1.1622,-1.1622,-1.1622,-1.1622,-1.1622,-1.156,-1.149,-1.1435,-1.1435,-1.1373,-1.1247,-1.1059,-1.0863,-1.0485,-1.0174,-0.9856,-0.9466,-0.9145,-0.8829,-0.8576,-0.8517,-0.8517,-0.8517,-0.8517,-0.8576,-0.8511,-0.8576,-0.8517,-0.8517,-0.8517,-0.8517,-0.8517,-0.8517,-0.8517,-0.8517,-0.8517,-0.8582,-0.8711,-0.8705,-0.8829,-0.8958,-0.9145,-0.921,-0.921,-0.9344,-0.9478,-0.9478,-0.9478,-0.9478,-0.9478,-0.9478,-0.9478,-0.9478,-0.9478,-0.9478,-0.9478,-0.8572,-0.8572,-0.8572,-0.8572,-0.8568,-0.8656,-0.8999,-0.9602,-1.0207,-1.0982,-1.1929,-1.2534,-1.3137,-1.3568,-1.3737,-1.3913,-1.4082,-1.4088,-1.4088,-1.4088,-1.4088,-1.4088,-1.4075,-1.4062,-1.4008,-1.4035,-1.3988,-1.3674,-1.3327,-1.3126,-1.2806,-1.2385,-1.2305,-1.2452,-1.2599,-1.282,-1.3046,-1.32,-1.3346,-1.3492,-1.347,-1.3228,-1.2819,-1.2248,-1.178,-1.1637,-1.1622,-1.1622,-1.1622,-1.1622,-1.1622,-1.1622,-1.1622,-1.1622,-1.1622,-1.1622,-1.1622,-1.1622,-1.1622,-1.1622,-1.1622,-1.1622,-1.1622,-1.1622,-1.156,-1.156,-1.156,-1.156,-1.156,-1.1498,-1.1373,-1.1178,-1.0926,-1.0618,-1.0301,-0.9983,-0.9588,-0.921,-0.8964,-0.8576,-0.8582,-0.8646,-0.8641,-0.8641,-0.8576,-0.8576,-0.8576,-0.8517,-0.8582,-0.8517,-0.8517,-0.8517,-0.8517,-0.8576,-0.8641,-0.8705,-0.8835,-0.8899,-0.8952,-0.9081,-0.9274,-0.9274,-0.9344,-0.9414,-0.9478,-0.9478,-0.9478,-0.9478,-0.9478,-0.9478,-0.9478,-0.9478,-0.9478,-0.9478,-0.9478,-0.8572,-0.8572,-0.8572,-0.8572,-0.8656,-0.874,-0.9174,-0.9689,-1.0549,-1.1327,-1.21,-1.2881,-1.3392,-1.3737,-1.3913,-1.4075,-1.4055,-1.4035,-1.4035,-1.4021,-1.4015,-1.4008,-1.3988,-1.3968,-1.3908,-1.3768,-1.3681,-1.3474,-1.3193,-1.2939,-1.2748,-1.2371,-1.2452,-1.2599,-1.2753,-1.2973,-1.3119,-1.3273,-1.3411,-1.3492,-1.3462,-1.3309,-1.3016,-1.2387,-1.186,-1.1659,-1.1622,-1.1622,-1.1622,-1.1622,-1.1622,-1.1622,-1.1622,-1.1622,-1.1622,-1.1622,-1.1622,-1.1622,-1.1622,-1.1622,-1.1622,-1.1622,-1.1622,-1.1622,-1.1622,-1.1622,-1.1622,-1.1622,-1.1622,-1.156,-1.156,-1.1373,-1.1247,-1.0996,-1.0744,-1.0491,-1.004,-0.9792,-0.9472,-0.9028,-0.8899,-0.877,-0.8829,-0.8894,-0.8888,-0.8894,-0.8829,-0.877,-0.8705,-0.8646,-0.8517,-0.8517,-0.8517,-0.8641,-0.8705,-0.8894,-0.8952,-0.9022,-0.9081,-0.921,-0.9338,-0.9408,-0.9478,-0.9478,-0.9478,-0.9478,-0.9478,-0.9478,-0.9478,-0.9478,-0.9478,-0.9478,-0.9478,-0.9478,-0.9478,-0.8572,-0.8572,-0.8572,-0.8652,-0.8828,-0.8999,-0.9515,-1.0207,-1.0895,-1.1677,-1.2534,-1.3137,-1.3568,-1.3828,-1.3997,-1.4015,-1.3888,-1.3854,-1.3774,-1.3681,-1.3634,-1.3634,-1.3654,-1.3647,-1.3561,-1.34,-1.3267,-1.314,-1.2966,-1.2909,-1.2647,-1.252,-1.2599,-1.2673,-1.29,-1.3119,-1.3266,-1.3346,-1.3419,-1.3492,-1.3433,-1.3228,-1.2789,-1.2467,-1.1933,-1.1659,-1.1622,-1.1622,-1.1622,-1.1622,-1.1622,-1.1622,-1.1622,-1.1622,-1.1622,-1.1622,-1.1622,-1.1622,-1.1622,-1.1622,-1.1622,-1.1622,-1.1622,-1.1622,-1.1622,-1.1622,-1.1622,-1.1622,-1.1622,-1.1622,-1.156,-1.1498,-1.1435,-1.1373,-1.1178,-1.0933,-1.0618,-1.0428,-0.9983,-0.9536,-0.9402,-0.9274,-0.9204,-0.9204,-0.9268,-0.921,-0.9145,-0.9087,-0.8964,-0.8835,-0.8705,-0.8582,-0.8582,-0.8705,-0.8894,-0.9022,-0.9145,-0.921,-0.921,-0.9338,-0.9408,-0.9478,-0.9478,-0.9478,-0.9478,-0.9478,-0.9478,-0.9478,-0.9478,-0.9478,-0.9478,-0.9478,-0.9478,-0.9478,-0.9478,-0.8572,-0.8572,-0.8572,-0.874,-0.8911,-0.9262,-0.9864,-1.0636,-1.1235,-1.21,-1.3052,-1.3392,-1.3613,-1.3898,-1.3895,-1.3768,-1.3561,-1.3479,-1.344,-1.3313,-1.3273,-1.3233,-1.322,-1.32,-1.3206,-1.3093,-1.3017,-1.2829,-1.2842,-1.2741,-1.2662,-1.2668,-1.2673,-1.282,-1.3119,-1.3266,-1.3346,-1.3419,-1.3492,-1.3492,-1.3338,-1.2892,-1.2526,-1.246,-1.1904,-1.1622,-1.1622,-1.1622,-1.1622,-1.1622,-1.1622,-1.1622,-1.1622,-1.1622,-1.1622,-1.1622,-1.1622,-1.1622,-1.1622,-1.1622,-1.1622,-1.1622,-1.1622,-1.1622,-1.1622,-1.1622,-1.1622,-1.1622,-1.1622,-1.1622,-1.1622,-1.1622,-1.156,-1.156,-1.1435,-1.131,-1.1059,-1.087,-1.0674,-1.0295,-0.9964,-0.9843,-0.9779,-0.9779,-0.9849,-0.9786,-0.9728,-0.9536,-0.9408,-0.9087,-0.8894,-0.8705,-0.8711,-0.8835,-0.9022,-0.9151,-0.928,-0.9344,-0.9344,-0.9408,-0.9478,-0.9478,-0.9478,-0.9478,-0.9478,-0.9478,-0.9478,-0.9478,-0.9478,-0.9478,-0.9478,-0.9478,-0.9478,-0.9484,-0.9548,-0.8572,-0.8572,-0.8572,-0.874,-0.8999,-0.9602,-1.012,-1.0717,-1.1757,-1.2534,-1.3137,-1.3451,-1.3658,-1.3619,-1.3454,-1.3327,-1.3267,-1.3253,-1.32,-1.3093,-1.3106,-1.3106,-1.3166,-1.3206,-1.3057,-1.2903,-1.2891,-1.2898,-1.2817,-1.2709,-1.2668,-1.268,-1.2973,-1.3193,-1.3193,-1.3346,-1.3499,-1.3492,-1.3492,-1.3484,-1.336,-1.284,-1.257,-1.2328,-1.1933,-1.1622,-1.1622,-1.1622,-1.1622,-1.1622,-1.1622,-1.1622,-1.1622,-1.1622,-1.1622,-1.1622,-1.1622,-1.1622,-1.1622,-1.1622,-1.1622,-1.1622,-1.1622,-1.1622,-1.1622,-1.1622,-1.1622,-1.1622,-1.1622,-1.1622,-1.1622,-1.1622,-1.1622,-1.1622,-1.156,-1.1435,-1.131,-1.1247,-1.1059,-1.0989,-1.0667,-1.0485,-1.0364,-1.0428,-1.0498,-1.0434,-1.0301,-1.011,-0.9792,-0.9402,-0.9022,-0.8835,-0.8835,-0.9022,-0.9087,-0.928,-0.9344,-0.9408,-0.9478,-0.9478,-0.9478,-0.9478,-0.9478,-0.9478,-0.9478,-0.9478,-0.9478,-0.9478,-0.9478,-0.9478,-0.9478,-0.9478,-0.9478,-0.9548,-0.9612,-0.8373,-0.8568,-0.8572,-0.8915,-0.934,-0.9864,-1.0636,-1.1413,-1.2192,-1.2875,-1.336,-1.3471,-1.3421,-1.332,-1.3253,-1.312,-1.2993,-1.2946,-1.2839,-1.2739,-1.2726,-1.2719,-1.2679,-1.2768,-1.2736,-1.2798,-1.2872,-1.2926,-1.2817,-1.285,-1.2826,-1.2973,-1.3119,-1.3266,-1.3346,-1.3419,-1.3492,-1.3492,-1.3477,-1.3397,-1.3155,-1.2789,-1.2438,-1.2182,-1.1802,-1.1667,-1.1622,-1.1622,-1.1622,-1.1622,-1.1622,-1.1622,-1.1622,-1.1622,-1.1622,-1.1622,-1.1622,-1.1622,-1.1622,-1.1622,-1.1622,-1.1622,-1.1622,-1.1622,-1.1622,-1.1622,-1.1622,-1.1622,-1.1622,-1.1622,-1.1622,-1.1622,-1.1622,-1.1622,-1.1622,-1.156,-1.1498,-1.1498,-1.1435,-1.1373,-1.1373,-1.1059,-1.087,-1.087,-1.087,-1.0807,-1.0681,-1.0428,-1.0047,-0.9594,-0.921,-0.8894,-0.9022,-0.9215,-0.928,-0.935,-0.9414,-0.9478,-0.9478,-0.9478,-0.9478,-0.9478,-0.9542,-0.9542,-0.9484,-0.9478,-0.9478,-0.9478,-0.9478,-0.9478,-0.9478,-0.9478,-0.9478,-0.9676,-0.9804,-0.8178,-0.8426,-0.8521,-0.8858,-0.9452,-1.0052,-1.0889,-1.1742,-1.2404,-1.3008,-1.3361,-1.3297,-1.3121,-1.31,-1.2986,-1.2812,-1.2639,-1.2632,-1.258,-1.2432,-1.2372,-1.2486,-1.26,-1.264,-1.2714,-1.268,-1.2949,-1.3015,-1.3001,-1.3053,-1.3127,-1.32,-1.3266,-1.3339,-1.3419,-1.3492,-1.3492,-1.3492,-1.3492,-1.3331,-1.3038,-1.2701,-1.2365,-1.205,-1.1758,-1.1622,-1.1622,-1.1622,-1.1622,-1.1622,-1.1622,-1.1622,-1.1622,-1.1622,-1.1622,-1.1622,-1.1622,-1.1622,-1.1622,-1.1622,-1.1622,-1.1622,-1.1622,-1.1622,-1.1622,-1.1622,-1.1622,-1.1622,-1.1622,-1.1622,-1.1622,-1.1622,-1.1622,-1.1622,-1.1622,-1.1622,-1.1622,-1.156,-1.156,-1.1498,-1.1498,-1.156,-1.1373,-1.131,-1.1247,-1.1247,-1.1059,-1.0807,-1.0421,-0.9913,-0.9588,-0.9274,-0.9262,-0.939,-0.9332,-0.9402,-0.9472,-0.9512,-0.9512,-0.953,-0.9588,-0.96,-0.9612,-0.9612,-0.9612,-0.967,-0.9734,-0.9606,-0.9478,-0.9478,-0.9478,-0.9478,-0.9542,-0.9728,-1.011,-0.8024,-0.8048,-0.8222,-0.8647,-0.9151,-0.9932,-1.0681,-1.1468,-1.2258,-1.2753,-1.3028,-1.2908,-1.2866,-1.2808,-1.2572,-1.2438,-1.2351,-1.2331,-1.2405,-1.2539,-1.2592,-1.268,-1.2746,-1.282,-1.29,-1.29,-1.3046,-1.3193,-1.3193,-1.3346,-1.3273,-1.3266,-1.3346,-1.3419,-1.3492,-1.3492,-1.3492,-1.3492,-1.3492,-1.3294,-1.2987,-1.2665,-1.235,-1.2021,-1.1736,-1.1622,-1.1622,-1.1622,-1.1622,-1.1622,-1.1622,-1.1622,-1.1622,-1.1622,-1.1622,-1.1622,-1.1622,-1.1622,-1.1622,-1.1622,-1.1622,-1.1622,-1.1622,-1.1622,-1.1622,-1.1622,-1.1622,-1.1622,-1.1622,-1.1622,-1.1622,-1.1622,-1.1622,-1.1622,-1.1622,-1.1622,-1.1622,-1.1622,-1.156,-1.1622,-1.1622,-1.1622,-1.1622,-1.156,-1.1498,-1.1498,-1.1373,-1.1185,-1.087,-1.0421,-1.0034,-0.9773,-0.9697,-0.9633,-0.9372,-0.9394,-0.9393,-0.9468,-0.9499,-0.9566,-0.9679,-0.9703,-0.9798,-0.9798,-0.9862,-0.9926,-0.9894,-0.9705,-0.9566,-0.9512,-0.9506,-0.9487,-0.9681,-0.995,-1.0365,-0.777,-0.7932,-0.8243,-0.8777,-0.9409,-1.005,-1.0864,-1.176,-1.2326,-1.2693,-1.2842,-1.2792,-1.2721,-1.2478,-1.2392,-1.2305,-1.2305,-1.2305,-1.2452,-1.2526,-1.2599,-1.2753,-1.282,-1.3046,-1.3127,-1.3119,-1.3273,-1.3346,-1.3419,-1.3492,-1.3499,-1.3419,-1.3492,-1.3492,-1.3492,-1.3492,-1.3484,-1.3477,-1.3433,-1.325,-1.2767,-1.2592,-1.2277,-1.1765,-1.1677,-1.1622,-1.1622,-1.1622,-1.1622,-1.1622,-1.1622,-1.1622,-1.1622,-1.1622,-1.1622,-1.1622,-1.1622,-1.1622,-1.1622,-1.1622,-1.1622,-1.1622,-1.1622,-1.1622,-1.1622,-1.1622,-1.1622,-1.1622,-1.1622,-1.1622,-1.1622,-1.1622,-1.1622,-1.1622,-1.1622,-1.1622,-1.1622,-1.1622,-1.1622,-1.1622,-1.1622,-1.1622,-1.1685,-1.1677,-1.1685,-1.1685,-1.1622,-1.1498,-1.1247,-1.0905,-1.0577,-1.019,-1.0095,-0.988,-0.9606,-0.9506,-0.9333,-0.9395,-0.947,-0.9662,-0.98,-0.9894,-0.9919,-0.9983,-1.0059,-1.0052,-0.9987,-0.9812,-0.9662,-0.96,-0.9543,-0.9494,-0.9799,-1.0126,-1.0662,-0.7638,-0.7876,-0.8327,-0.8869,-0.9523,-1.0089,-1.0959,-1.1914,-1.2298,-1.2524,-1.2694,-1.2681,-1.2512,-1.2345,-1.2305,-1.2305,-1.2305,-1.2378,-1.2519,-1.2673,-1.2746,-1.29,-1.3046,-1.32,-1.328,-1.3346,-1.3419,-1.3492,-1.3492,-1.3492,-1.3492,-1.3492,-1.3492,-1.3492,-1.3492,-1.3484,-1.3455,-1.3367,-1.3373,-1.3094,-1.2542,-1.2543,-1.2407,-1.1969,-1.1879,-1.1872,-1.1872,-1.1872,-1.1809,-1.1747,-1.1685,-1.1615,-1.1622,-1.1622,-1.1622,-1.1622,-1.1622,-1.1622,-1.1622,-1.1622,-1.1622,-1.1622,-1.1622,-1.1622,-1.1622,-1.1622,-1.1622,-1.1622,-1.1622,-1.1622,-1.1622,-1.1622,-1.1622,-1.1622,-1.1622,-1.1622,-1.1622,-1.1622,-1.1622,-1.1622,-1.1622,-1.1622,-1.1809,-1.1872,-1.1934,-1.1934,-1.1879,-1.1809,-1.1685,-1.1337,-1.103,-1.0678,-1.037,-1.0127,-0.988,-0.9669,-0.9479,-0.9458,-0.9594,-0.9758,-0.9923,-1.0024,-1.0227,-1.0416,-1.0417,-1.0186,-1.01,-1.0032,-0.986,-0.9674,-0.9656,-0.9648,-1.0079,-1.0453,-1.0894,-0.7638,-0.7876,-0.8479,-0.8946,-0.9459,-1.017,-1.0859,-1.1515,-1.1951,-1.2155,-1.2365,-1.2351,-1.2345,-1.2305,-1.2305,-1.2305,-1.2305,-1.2452,-1.2673,-1.282,-1.2973,-1.32,-1.3346,-1.3419,-1.3419,-1.3492,-1.3492,-1.3492,-1.3492,-1.3492,-1.3492,-1.3564,-1.3637,-1.3564,-1.3492,-1.3484,-1.3323,-1.3075,-1.3271,-1.2923,-1.2593,-1.2703,-1.2608,-1.2399,-1.2359,-1.2359,-1.2243,-1.2182,-1.2058,-1.1872,-1.1809,-1.1685,-1.1622,-1.1622,-1.1622,-1.1622,-1.1622,-1.1622,-1.1622,-1.1622,-1.1622,-1.1622,-1.1622,-1.1622,-1.1622,-1.1622,-1.1622,-1.1622,-1.1622,-1.1622,-1.1622,-1.1622,-1.1622,-1.1622,-1.1622,-1.1622,-1.1622,-1.1622,-1.1622,-1.1622,-1.1622,-1.1685,-1.1872,-1.2058,-1.212,-1.2127,-1.2127,-1.2065,-1.1996,-1.1682,-1.1348,-1.1119,-1.0773,-1.042,-1.0105,-0.9826,-0.9613,-0.9588,-0.9737,-0.9993,-1.0234,-1.0387,-1.0629,-1.083,-1.0787,-1.0538,-1.043,-1.036,-1.0165,-0.9967,-0.9815,-0.9945,-1.0407,-1.0785,-1.1156,-0.7791,-0.8255,-0.8699,-0.9382,-1.0067,-1.0519,-1.1037,-1.1632,-1.2003,-1.2231,-1.2305,-1.2305,-1.2305,-1.2305,-1.2305,-1.2305,-1.2305,-1.2526,-1.2673,-1.2893,-1.3119,-1.3266,-1.3419,-1.3492,-1.3492,-1.3492,-1.3492,-1.3492,-1.3492,-1.3492,-1.3637,-1.3717,-1.3897,-1.3928,-1.3715,-1.3618,-1.3442,-1.3337,-1.3294,-1.3161,-1.2874,-1.298,-1.3027,-1.2797,-1.2834,-1.2781,-1.2674,-1.2613,-1.2359,-1.205,-1.1934,-1.1747,-1.1622,-1.1622,-1.1622,-1.1622,-1.1622,-1.1622,-1.1622,-1.1622,-1.1622,-1.1622,-1.1622,-1.1622,-1.1622,-1.1622,-1.1622,-1.1622,-1.1622,-1.1622,-1.1622,-1.1622,-1.1622,-1.1622,-1.1622,-1.1622,-1.1622,-1.1622,-1.1622,-1.1622,-1.1622,-1.1787,-1.1958,-1.2151,-1.2282,-1.2235,-1.2219,-1.2351,-1.2297,-1.198,-1.1623,-1.1483,-1.1161,-1.076,-1.0398,-1.0111,-0.9907,-0.9864,-1.0067,-1.0294,-1.0512,-1.0718,-1.0834,-1.0922,-1.095,-1.089,-1.0735,-1.0562,-1.0462,-1.0341,-1.027,-1.026,-1.0616,-1.0972,-1.1364,-0.7863,-0.8403,-0.8927,-0.9679,-1.0438,-1.0887,-1.1335,-1.1861,-1.2231,-1.2305,-1.2305,-1.2305,-1.2305,-1.2305,-1.2305,-1.2372,-1.2372,-1.2599,-1.282,-1.2973,-1.32,-1.3346,-1.3492,-1.3492,-1.3492,-1.3492,-1.3492,-1.3492,-1.3637,-1.3637,-1.3783,-1.4122,-1.4308,-1.4364,-1.4151,-1.4018,-1.363,-1.3504,-1.3391,-1.3364,-1.3282,-1.3347,-1.3459,-1.3449,-1.3442,-1.3442,-1.3216,-1.2981,-1.2728,-1.2367,-1.2058,-1.1872,-1.1747,-1.1685,-1.1747,-1.1809,-1.1872,-1.1809,-1.1677,-1.1685,-1.1685,-1.1622,-1.1622,-1.1622,-1.1622,-1.1622,-1.1622,-1.1622,-1.1622,-1.1622,-1.1622,-1.1622,-1.1622,-1.1622,-1.1622,-1.1622,-1.1685,-1.1685,-1.1747,-1.1685,-1.1717,-1.1873,-1.1997,-1.2243,-1.2373,-1.2303,-1.224,-1.2425,-1.2517,-1.2103,-1.181,-1.1654,-1.1416,-1.095,-1.0654,-1.0385,-1.0225,-1.0154,-1.0368,-1.0585,-1.0771,-1.094,-1.1019,-1.1042,-1.1075,-1.1083,-1.0899,-1.0817,-1.0745,-1.0799,-1.0824,-1.0867,-1.093,-1.1199,-1.1521,-0.7868,-0.8475,-0.9074,-0.9755,-1.0513,-1.1186,-1.1774,-1.2231,-1.2305,-1.2305,-1.2305,-1.2305,-1.2305,-1.2305,-1.2305,-1.2452,-1.2599,-1.2826,-1.2973,-1.3193,-1.3346,-1.3419,-1.3499,-1.3572,-1.3564,-1.3564,-1.3645,-1.3783,-1.3863,-1.3909,-1.4124,-1.4427,-1.4653,-1.4643,-1.4544,-1.4428,-1.3973,-1.3754,-1.3628,-1.3601,-1.3576,-1.377,-1.3951,-1.4052,-1.4172,-1.4112,-1.3941,-1.3709,-1.3277,-1.2858,-1.2428,-1.212,-1.1926,-1.1864,-1.205,-1.2174,-1.2305,-1.205,-1.1864,-1.1809,-1.1685,-1.1622,-1.1622,-1.1622,-1.1622,-1.1622,-1.1622,-1.1622,-1.1622,-1.1622,-1.1622,-1.1622,-1.1622,-1.1685,-1.1747,-1.1747,-1.1872,-1.1872,-1.1934,-1.1911,-1.1927,-1.1974,-1.1918,-1.2114,-1.2218,-1.2107,-1.2094,-1.2276,-1.2327,-1.2157,-1.1874,-1.1822,-1.1551,-1.1125,-1.0853,-1.0664,-1.0632,-1.06,-1.0616,-1.0801,-1.0979,-1.1153,-1.1161,-1.1177,-1.1292,-1.1275,-1.1077,-1.1072,-1.1107,-1.1175,-1.1226,-1.1276,-1.1276,-1.1377,-1.1703,-0.8102,-0.8627,-0.9236,-1.0062,-1.0962,-1.17,-1.215,-1.2305,-1.2305,-1.2305,-1.2305,-1.2305,-1.2378,-1.2526,-1.2526,-1.268,-1.2826,-1.2973,-1.3119,-1.3273,-1.3492,-1.3492,-1.3564,-1.3637,-1.371,-1.3783,-1.4,-1.4122,-1.4204,-1.4301,-1.4477,-1.4742,-1.4925,-1.4858,-1.4806,-1.4877,-1.4374,-1.4076,-1.396,-1.3978,-1.4054,-1.43,-1.4488,-1.4666,-1.4784,-1.4666,-1.4419,-1.4189,-1.37,-1.3216,-1.292,-1.2674,-1.2359,-1.2421,-1.2613,-1.2621,-1.249,-1.2305,-1.2058,-1.1872,-1.1747,-1.1677,-1.1622,-1.1622,-1.1622,-1.1622,-1.1622,-1.1685,-1.1685,-1.1685,-1.1685,-1.1685,-1.1747,-1.1809,-1.1872,-1.1934,-1.1996,-1.2058,-1.2112,-1.1997,-1.2012,-1.1848,-1.1795,-1.1787,-1.1879,-1.1832,-1.1857,-1.2036,-1.2143,-1.197,-1.1903,-1.1843,-1.1604,-1.1181,-1.12,-1.1032,-1.1074,-1.1065,-1.1032,-1.0989,-1.1149,-1.1232,-1.1293,-1.1319,-1.1335,-1.1327,-1.1285,-1.1276,-1.1276,-1.1477,-1.1528,-1.1578,-1.1678,-1.1728,-1.1787,-0.8174,-0.8856,-0.9392,-1.0293,-1.1335,-1.2003,-1.2305,-1.2305,-1.2305,-1.2298,-1.2445,-1.2452,-1.2532,-1.2673,-1.2746,-1.282,-1.3046,-1.3193,-1.3346,-1.3492,-1.3637,-1.3702,-1.3775,-1.3928,-1.4072,-1.4209,-1.4386,-1.4617,-1.4668,-1.4728,-1.4908,-1.5083,-1.5201,-1.5106,-1.5032,-1.5072,-1.4891,-1.4581,-1.4394,-1.4465,-1.4547,-1.4725,-1.4911,-1.5029,-1.5088,-1.4961,-1.4725,-1.4488,-1.4121,-1.3571,-1.3346,-1.3094,-1.2903,-1.3094,-1.3155,-1.3164,-1.3103,-1.2797,-1.2498,-1.2251,-1.2058,-1.1872,-1.1809,-1.1864,-1.1809,-1.1809,-1.1864,-1.1864,-1.1872,-1.1809,-1.1809,-1.1872,-1.1879,-1.1941,-1.1996,-1.205,-1.2182,-1.2251,-1.2212,-1.2087,-1.1892,-1.1709,-1.1644,-1.1551,-1.1535,-1.1566,-1.1636,-1.1715,-1.1834,-1.1751,-1.1793,-1.1792,-1.1575,-1.126,-1.1276,-1.1276,-1.1217,-1.1217,-1.1226,-1.1175,-1.1276,-1.1293,-1.1294,-1.1277,-1.131,-1.1276,-1.1276,-1.1326,-1.1377,-1.1528,-1.1678,-1.1719,-1.1769,-1.1877,-1.1986,-0.8331,-0.9074,-0.9539,-1.0588,-1.1706,-1.215,-1.2305,-1.2305,-1.2305,-1.2445,-1.2526,-1.2599,-1.268,-1.29,-1.29,-1.3046,-1.3266,-1.3484,-1.3702,-1.3855,-1.4137,-1.4201,-1.4274,-1.4346,-1.4577,-1.4657,-1.4869,-1.503,-1.5053,-1.5085,-1.5183,-1.5368,-1.5311,-1.5247,-1.5285,-1.5188,-1.5084,-1.4996,-1.4899,-1.497,-1.497,-1.5088,-1.5205,-1.5205,-1.5254,-1.5245,-1.502,-1.4784,-1.4469,-1.4001,-1.37,-1.3571,-1.3631,-1.3761,-1.3761,-1.37,-1.37,-1.3346,-1.2928,-1.2674,-1.2428,-1.2305,-1.2243,-1.2359,-1.2297,-1.2112,-1.2112,-1.2112,-1.212,-1.2058,-1.2058,-1.1996,-1.1996,-1.2058,-1.212,-1.2243,-1.2305,-1.2397,-1.2295,-1.2122,-1.1846,-1.1636,-1.1392,-1.1349,-1.132,-1.1354,-1.1374,-1.1481,-1.1534,-1.1553,-1.1606,-1.1694,-1.1516,-1.1276,-1.1276,-1.1276,-1.1276,-1.1276,-1.1276,-1.1276,-1.1276,-1.1276,-1.1276,-1.1276,-1.1276,-1.1276,-1.1326,-1.1377,-1.1427,-1.1578,-1.1678,-1.1769,-1.1868,-1.2026,-1.2076,-0.8551,-0.915,-1.0432,-1.1335,-1.1929,-1.2157,-1.2305,-1.2298,-1.2452,-1.2505,-1.2592,-1.2592,-1.2826,-1.3127,-1.3119,-1.3339,-1.3608,-1.3772,-1.4049,-1.4212,-1.4474,-1.4545,-1.4712,-1.4915,-1.5006,-1.5057,-1.5206,-1.544,-1.5492,-1.5414,-1.5346,-1.5495,-1.5368,-1.5308,-1.5348,-1.5205,-1.5254,-1.5254,-1.5254,-1.5196,-1.5147,-1.5254,-1.5362,-1.5371,-1.5362,-1.5303,-1.5137,-1.5088,-1.4834,-1.4538,-1.4469,-1.441,-1.441,-1.4478,-1.4419,-1.4291,-1.4121,-1.3761,-1.3398,-1.3103,-1.2858,-1.2736,-1.2736,-1.2858,-1.2789,-1.2482,-1.2359,-1.2421,-1.2428,-1.2367,-1.2305,-1.2243,-1.2182,-1.2243,-1.2305,-1.2428,-1.249,-1.2456,-1.2429,-1.215,-1.1855,-1.1559,-1.1283,-1.1162,-1.111,-1.1139,-1.1165,-1.1217,-1.1353,-1.1405,-1.1387,-1.1473,-1.1422,-1.1276,-1.1276,-1.1276,-1.1276,-1.1276,-1.1276,-1.1276,-1.1276,-1.1276,-1.1276,-1.1276,-1.1276,-1.1276,-1.1318,-1.1418,-1.1469,-1.1578,-1.1678,-1.1819,-1.1918,-1.2076,-1.2076,-0.8481,-0.916,-1.0834,-1.1706,-1.2003,-1.2231,-1.2231,-1.219,-1.2322,-1.2391,-1.2421,-1.268,-1.3119,-1.3411,-1.3492,-1.3497,-1.381,-1.4049,-1.4088,-1.4319,-1.4637,-1.4684,-1.4932,-1.518,-1.5214,-1.5233,-1.5474,-1.5643,-1.5692,-1.5496,-1.5302,-1.5413,-1.5292,-1.5323,-1.5313,-1.5362,-1.542,-1.542,-1.542,-1.5362,-1.5254,-1.5362,-1.542,-1.542,-1.542,-1.5303,-1.5254,-1.5205,-1.5029,-1.4902,-1.4784,-1.4784,-1.4784,-1.4843,-1.4843,-1.4715,-1.4478,-1.424,-1.3872,-1.358,-1.3407,-1.3346,-1.3407,-1.364,-1.364,-1.339,-1.3329,-1.3329,-1.2972,-1.285,-1.2858,-1.2797,-1.2613,-1.2552,-1.2621,-1.2621,-1.2647,-1.2587,-1.2411,-1.2069,-1.1752,-1.1456,-1.1242,-1.1129,-1.1107,-1.1201,-1.1184,-1.1175,-1.1276,-1.1276,-1.1276,-1.1276,-1.1276,-1.1276,-1.1276,-1.1276,-1.1276,-1.1276,-1.1276,-1.1276,-1.1276,-1.1276,-1.1276,-1.1276,-1.1276,-1.1276,-1.1318,-1.1418,-1.1519,-1.1628,-1.1728,-1.1828,-1.1977,-1.2076,-1.2076,-0.8432,-0.9431,-1.096,-1.1829,-1.207,-1.2178,-1.2104,-1.1968,-1.2036,-1.2089,-1.2239,-1.2835,-1.3338,-1.3591,-1.372,-1.3807,-1.3932,-1.4207,-1.4193,-1.4397,-1.4678,-1.4962,-1.5085,-1.5186,-1.5337,-1.5414,-1.5517,-1.5562,-1.5543,-1.5386,-1.5292,-1.5283,-1.5313,-1.542,-1.542,-1.542,-1.542,-1.542,-1.542,-1.542,-1.542,-1.542,-1.542,-1.542,-1.542,-1.5303,-1.5254,-1.5205,-1.5147,-1.5147,-1.5079,-1.5088,-1.5147,-1.5147,-1.5088,-1.4961,-1.4843,-1.4666,-1.4478,-1.424,-1.4181,-1.4181,-1.4309,-1.4369,-1.4359,-1.4359,-1.424,-1.4001,-1.3631,-1.3338,-1.3277,-1.3164,-1.2981,-1.285,-1.292,-1.2862,-1.2835,-1.2738,-1.239,-1.2033,-1.1676,-1.1372,-1.1224,-1.1116,-1.1184,-1.1276,-1.1276,-1.1276,-1.1276,-1.1276,-1.1276,-1.1276,-1.1276,-1.1276,-1.1276,-1.1276,-1.1276,-1.1276,-1.1276,-1.1276,-1.1276,-1.1276,-1.1276,-1.1276,-1.1276,-1.1326,-1.1318,-1.1368,-1.1519,-1.1678,-1.1778,-1.1877,-1.1977,-1.2076,-1.2076,-0.8985,-1.0509,-1.1147,-1.1715,-1.2171,-1.2058,-1.1989,-1.2036,-1.202,-1.2161,-1.2383,-1.2773,-1.3119,-1.3188,-1.346,-1.366,-1.4063,-1.4355,-1.4686,-1.492,-1.5076,-1.5405,-1.5533,-1.5441,-1.5757,-1.569,-1.547,-1.5388,-1.5486,-1.541,-1.5362,-1.5362,-1.5362,-1.542,-1.542,-1.542,-1.542,-1.542,-1.542,-1.542,-1.542,-1.542,-1.542,-1.542,-1.542,-1.5352,-1.5352,-1.5362,-1.5362,-1.5352,-1.5294,-1.543,-1.5439,-1.5381,-1.5323,-1.5205,-1.5079,-1.5029,-1.4902,-1.4843,-1.4784,-1.4883,-1.4942,-1.501,-1.501,-1.502,-1.4902,-1.4725,-1.43,-1.37,-1.3588,-1.3398,-1.3277,-1.3252,-1.3304,-1.3186,-1.3067,-1.2787,-1.2394,-1.2032,-1.1626,-1.1385,-1.1158,-1.1175,-1.1226,-1.1276,-1.1276,-1.1276,-1.1276,-1.1276,-1.1276,-1.1276,-1.1276,-1.1276,-1.1276,-1.1276,-1.1276,-1.1276,-1.1276,-1.1276,-1.1276,-1.1276,-1.1276,-1.1276,-1.1326,-1.1377,-1.1377,-1.1418,-1.1628,-1.1778,-1.1828,-1.1927,-1.2026,-1.2076,-1.2076]}]]